[[[{"header":{"parameterUnit":"kt","parameterCategory":2,"dx":1,"dy":1,"la1":29.285339999999998,"la2":30.599998999999997,"lo1":-89.70041500000002,"lo2":-87.6738589999976,"nx":112,"ny":82,"refTime":"2022-10-07T00:00:00:Z","depth":0,"parameterNumber":1,"parameterNumberName":"U-component_of_WINDS"},"data":[-2.2811,-2.2731,-2.2692,-2.2494,-2.2666,-2.2758,-2.227,-2.1861,-2.1532,-2.1347,-2.0516,-1.991,0.0,0.0,0.0,0.0,0.0,0.0,0.0,-1.7624,0.0,0.0,0.0,0.0,0.0,0.0,0.0,0.0,-1.9423,0.0,-1.9032,-2.0577,-2.1595,-2.1761,-2.3525,-2.4775,-2.5353,-2.5369,-2.5659,-2.6054,-2.6054,-2.6054,-2.6054,-2.6054,-2.5719,-2.5074,-2.4751,-2.3944,-2.2651,-2.2328,-2.1681,-2.0871,-2.1519,-2.1357,-2.1033,-2.2813,-2.346,-2.3621,-2.4106,-2.4428,-2.4826,-2.5936,-2.6487,-2.699,-2.7491,-2.7716,-2.7795,-2.7795,-2.7992,-2.8283,-2.8573,-2.8876,-2.9166,-2.9443,-2.9509,-2.9509,-2.9509,-2.9509,-2.9509,-2.9509,-2.9509,-2.9509,-2.9509,-2.9509,-2.939,-2.9008,-2.8876,-2.881,-2.881,-2.8718,-2.8652,-2.8652,-2.8652,-2.8652,-2.8652,-2.8652,-2.8691,-2.881,-2.881,-2.8849,-2.8955,-2.8779,-2.865,-2.874,-2.7376,-2.6365,-2.5906,-2.4718,-2.4028,-2.3661,-2.3661,-2.3661,-2.2389,-2.2138,-2.1954,-2.1756,-2.1848,-2.1888,-2.1492,-2.111,-2.078,-2.0582,-1.9676,-1.9023,0.0,0.0,0.0,0.0,0.0,0.0,0.0,0.0,0.0,0.0,0.0,0.0,0.0,0.0,-1.9349,-1.9032,-1.9455,-1.9691,-1.9594,-2.077,-2.1779,-2.2332,-2.383,-2.4894,-2.5353,-2.5474,-2.5751,-2.6054,-2.6054,-2.6054,-2.6054,-2.6054,-2.5719,-2.5074,-2.4751,-2.4106,-2.2975,-2.2651,-2.2328,-2.1842,-2.2328,-2.2328,-2.2004,-2.3783,-2.4106,-2.3944,-2.4913,-2.5074,-2.5312,-2.6279,-2.6766,-2.6872,-2.7465,-2.765,-2.7663,-2.7768,-2.7927,-2.8137,-2.8428,-2.8731,-2.8995,-2.9179,-2.9298,-2.9337,-2.9245,-2.9219,-2.9219,-2.9219,-2.9219,-2.9219,-2.9219,-2.9219,-2.9087,-2.8704,-2.8573,-2.8507,-2.8507,-2.8414,-2.8362,-2.8362,-2.8362,-2.8362,-2.8362,-2.8362,-2.8401,-2.8493,-2.8507,-2.8546,-2.8652,-2.8836,-2.8763,-2.8404,-2.7696,-2.6914,-2.5918,-2.5006,-2.4319,-2.3661,-2.3942,-2.3953,-2.1811,-2.1255,-2.082,-2.0806,-2.0806,-2.0691,-2.0665,-2.0358,-1.9963,-1.9963,-1.8898,-1.8041,-1.8053,0.0,0.0,0.0,0.0,0.0,0.0,0.0,0.0,0.0,0.0,0.0,-1.8419,-1.9487,-1.9783,-1.8863,-1.9656,-2.033,-2.0348,-2.1227,-2.2089,-2.3097,-2.4147,-2.4907,-2.521,-2.5487,-2.5764,-2.6054,-2.6054,-2.6054,-2.6054,-2.6054,-2.6054,-2.5893,-2.5074,-2.459,-2.459,-2.3783,-2.346,-2.346,-2.346,-2.3621,-2.3783,-2.5409,-2.5558,-2.4913,-2.5719,-2.6054,-2.6094,-2.6397,-2.6502,-2.6608,-2.7175,-2.736,-2.7425,-2.7716,-2.7795,-2.7861,-2.8137,-2.8428,-2.8639,-2.8652,-2.8876,-2.9008,-2.8718,-2.8652,-2.8652,-2.8652,-2.8652,-2.8652,-2.8652,-2.8639,-2.8625,-2.8625,-2.8375,-2.819,-2.819,-2.7966,-2.7795,-2.7795,-2.7795,-2.7795,-2.7795,-2.7795,-2.7913,-2.8177,-2.819,-2.8322,-2.8612,-2.8625,-2.8107,-2.7208,-2.8107,-2.7358,-2.4736,-2.5831,-2.5415,-2.364,-2.4315,-2.4326,-2.1242,-2.0806,-2.0411,-1.9878,-1.9838,-1.9589,-1.898,-1.8526,-1.8271,-1.8074,-1.7822,0.0,0.0,0.0,0.0,0.0,0.0,-1.7896,-1.7194,-1.7389,0.0,-1.7553,-1.787,-1.8176,-1.8419,-1.9191,-1.9434,-1.8842,-1.9497,-2.0157,-2.0337,-2.1379,-2.2368,-2.3398,-2.4445,-2.521,-2.5487,-2.5777,-2.5962,-2.6054,-2.6054,-2.6054,-2.6054,-2.6054,-2.5732,-2.5074,-2.4751,-2.4428,-2.3783,-2.3621,-2.346,-2.3621,-2.4106,-2.4751,-2.5396,-2.588,-2.5893,-2.5719,-2.6054,-2.6054,-2.6094,-2.6397,-2.6634,-2.6859,-2.7241,-2.7505,-2.7689,-2.7768,-2.7795,-2.7861,-2.8137,-2.8269,-2.8388,-2.8599,-2.8718,-2.8757,-2.8665,-2.8652,-2.8652,-2.8652,-2.8652,-2.8652,-2.8652,-2.8309,-2.8032,-2.8032,-2.7966,-2.7913,-2.7913,-2.7847,-2.7795,-2.7795,-2.7795,-2.7795,-2.7795,-2.7795,-2.7834,-2.79,-2.7913,-2.7953,-2.8032,-2.823,-2.8147,-2.7972,-2.765,-2.6902,-2.555,-2.5728,-2.4961,-2.3397,-2.3344,-2.328,-2.02,-1.9468,-1.9048,-1.8607,-1.8492,-1.821,-1.773,-1.7569,-1.7568,-1.7414,0.0,0.0,0.0,0.0,0.0,0.0,-1.7737,-1.7751,-1.7128,-1.7632,-1.7901,-1.7775,-1.8123,-1.8398,-1.844,-1.9159,-1.9585,-1.9558,-2.0189,-2.0846,-2.154,-2.2217,-2.3043,-2.397,-2.4989,-2.5448,-2.5606,-2.5896,-2.6054,-2.6054,-2.6054,-2.6054,-2.6054,-2.6054,-2.5719,-2.5235,-2.5235,-2.5074,-2.459,-2.459,-2.459,-2.459,-2.5074,-2.5558,-2.6054,-2.6054,-2.6054,-2.6054,-2.6054,-2.6054,-2.6081,-2.6252,-2.6502,-2.6779,-2.7083,-2.7373,-2.7636,-2.7768,-2.7795,-2.7834,-2.7992,-2.8124,-2.8217,-2.8283,-2.8388,-2.8428,-2.8322,-2.8296,-2.8296,-2.8296,-2.8296,-2.8296,-2.8296,-2.8019,-2.7795,-2.7795,-2.7795,-2.7795,-2.7795,-2.7795,-2.7795,-2.7795,-2.7795,-2.7795,-2.7795,-2.7795,-2.7795,-2.7795,-2.7795,-2.7795,-2.7795,-2.7953,-2.7859,-2.7512,-2.7505,-2.6944,-2.5645,-2.5645,-2.5197,-2.4266,-2.4132,-2.3766,-1.8843,-1.8002,-1.7332,-1.7219,-1.6961,-1.6832,-1.6891,0.0,-1.7298,-1.7321,0.0,-1.6991,-1.6991,0.0,0.0,-1.5957,-1.6612,-1.7003,-1.6549,-1.7257,-1.7828,-1.7828,-1.8398,-1.8715,-1.8504,-1.9233,-1.9853,-2.0337,-2.0954,-2.1773,-2.3122,-2.3335,-2.3804,-2.4788,-2.5289,-2.5593,-2.5659,-2.5922,-2.6054,-2.6054,-2.6054,-2.6054,-2.6054,-2.6054,-2.6054,-2.6054,-2.6054,-2.6054,-2.6054,-2.6054,-2.6054,-2.6054,-2.6054,-2.6054,-2.6054,-2.6054,-2.6054,-2.6054,-2.6054,-2.6054,-2.6054,-2.6054,-2.6226,-2.6489,-2.6779,-2.7096,-2.7412,-2.7716,-2.7795,-2.7795,-2.7795,-2.7979,-2.8098,-2.7861,-2.7979,-2.8098,-2.7847,-2.7795,-2.7795,-2.7795,-2.7795,-2.7795,-2.7795,-2.7795,-2.7795,-2.7795,-2.7795,-2.7795,-2.7795,-2.7795,-2.7795,-2.7795,-2.7795,-2.7795,-2.7795,-2.7795,-2.7795,-2.7795,-2.7795,-2.7795,-2.7795,-2.7795,-2.7451,-2.659,-2.7451,-2.7062,-2.5559,-2.5733,-2.5908,-2.6245,-2.5733,-2.4976,-1.8324,-1.766,-1.7219,-1.6642,-1.6274,-1.6227,0.0,0.0,0.0,-1.6566,-1.6816,-1.7106,-1.7106,-1.7035,-1.7102,-1.7331,-1.7648,-1.7722,-1.7133,-1.7838,-1.8314,-1.8314,-1.8599,-1.8779,-1.8736,-1.8895,-1.9475,-2.0303,-2.0629,-2.1392,-2.311,-2.3147,-2.3842,-2.5092,-2.521,-2.55,-2.5962,-2.6028,-2.6054,-2.6054,-2.6054,-2.6054,-2.6054,-2.6054,-2.6054,-2.6054,-2.6054,-2.6054,-2.6054,-2.6054,-2.6054,-2.6054,-2.6054,-2.6054,-2.6054,-2.6054,-2.6054,-2.6054,-2.6054,-2.6054,-2.6054,-2.6054,-2.6081,-2.6186,-2.6489,-2.6938,-2.7412,-2.7716,-2.7795,-2.7795,-2.7795,-2.7834,-2.7861,-2.7808,-2.7834,-2.7861,-2.7808,-2.7795,-2.7795,-2.7795,-2.7795,-2.7795,-2.7795,-2.7795,-2.7795,-2.7795,-2.7795,-2.7795,-2.7795,-2.7795,-2.7795,-2.7795,-2.7795,-2.7795,-2.7795,-2.7795,-2.7795,-2.7795,-2.7795,-2.7795,-2.7795,-2.7795,-2.7795,-2.7623,-2.7623,-2.7305,-2.6321,-2.7011,-2.855,-3.057,-2.6813,-2.5134,-1.7032,-1.6449,-1.6114,-1.5879,-1.5701,0.0,0.0,-1.6087,-1.6253,-1.6485,-1.6802,-1.7088,-1.7204,-1.732,-1.7343,-1.7584,-1.7849,-1.788,-1.7764,-1.8145,-1.8398,-1.8271,-1.8578,-1.8747,-1.8631,-1.8821,-1.9295,-2.0303,-2.1288,-2.2344,-2.3699,-2.384,-2.4264,-2.5184,-2.5329,-2.5606,-2.6041,-2.6054,-2.6054,-2.6054,-2.6054,-2.5975,-2.583,-2.583,-2.5751,-2.5619,-2.5619,-2.5698,-2.583,-2.583,-2.583,-2.5843,-2.5988,-2.6054,-2.6054,-2.6054,-2.6054,-2.6054,-2.6054,-2.6054,-2.6054,-2.6054,-2.6054,-2.6107,-2.641,-2.6793,-2.7215,-2.7676,-2.7795,-2.7795,-2.7795,-2.7795,-2.7795,-2.7795,-2.7795,-2.7795,-2.7795,-2.7795,-2.7795,-2.7795,-2.7795,-2.7795,-2.7795,-2.7795,-2.8482,-3.017,-3.0512,-3.1182,-3.3045,-3.3216,-3.3216,-3.3216,-3.3216,-3.2549,-3.0684,-3.0512,-3.0512,-3.0512,-3.0512,-3.0512,-3.0512,-3.2208,-3.2378,-3.0512,-3.0512,-3.0341,-2.9827,-3.2208,-3.3897,-3.5242,-3.2503,-3.0298,-1.581,-1.5277,-1.5152,-1.5085,-1.5161,0.0,-1.5534,-1.6052,-1.6559,-1.6781,-1.7056,-1.7278,-1.7249,-1.7343,-1.7458,-1.7785,-1.7817,-1.788,-1.806,-1.8292,-1.8366,-1.8176,-1.8567,-1.8789,-1.8588,-1.8948,-1.9489,-2.0382,-2.1923,-2.3248,-2.4301,-2.4525,-2.4828,-2.5184,-2.5408,-2.5698,-2.6041,-2.6054,-2.6015,-2.5962,-2.5962,-2.5804,-2.5527,-2.5527,-2.5408,-2.5197,-2.5197,-2.5316,-2.5527,-2.558,-2.5606,-2.5632,-2.587,-2.6001,-2.6054,-2.6054,-2.6054,-2.6054,-2.6054,-2.6054,-2.6054,-2.6054,-2.6054,-2.6107,-2.641,-2.6687,-2.7017,-2.7557,-2.7755,-2.7795,-2.7795,-2.7795,-2.7795,-2.7795,-2.7795,-2.7795,-2.7795,-2.7795,-2.7808,-2.7861,-2.7874,-2.8073,-2.8976,-2.9163,-3.0328,-3.3839,-3.4506,-3.5496,-3.8311,-3.8631,-3.8631,-3.8631,-3.8631,-3.7447,-3.4578,-3.4238,-3.4238,-3.4238,-3.4238,-3.4238,-3.4238,-3.7108,-3.7277,-3.4408,-3.4238,-3.4238,-3.4238,-3.7954,-3.9644,-3.9644,-3.8275,-3.6022,-1.502,-1.4961,-1.5085,-1.4745,-1.5059,0.0,-1.6348,-1.676,-1.7035,-1.7133,-1.7669,-1.7849,-1.7333,-1.7732,-1.8018,-1.8039,-1.8049,-1.806,-1.8081,-1.8292,-1.843,-1.8409,-1.881,-1.9074,-1.9053,-1.9286,-1.9735,-2.0489,-2.1578,-2.2796,-2.415,-2.4327,-2.4604,-2.5171,-2.5224,-2.55,-2.6041,-2.6054,-2.5922,-2.5659,-2.5659,-2.5514,-2.5237,-2.5237,-2.5224,-2.5197,-2.5197,-2.521,-2.5263,-2.55,-2.5606,-2.5606,-2.5645,-2.5817,-2.6054,-2.6054,-2.6054,-2.6054,-2.6054,-2.6054,-2.6054,-2.6054,-2.6054,-2.6107,-2.641,-2.6687,-2.6977,-2.7307,-2.7597,-2.7795,-2.7795,-2.7795,-2.7795,-2.7795,-2.7795,-2.7795,-2.7795,-2.7795,-2.7874,-2.8111,-2.8164,-2.9277,-3.3049,-3.3621,-3.491,-3.8188,-3.8821,-3.8693,-3.8668,-3.8631,-3.8631,-3.8631,-3.8631,-3.8462,-3.8124,-3.8124,-3.8124,-3.8124,-3.8124,-3.8124,-3.8124,-3.8462,-3.8462,-3.8124,-3.8124,-3.8124,-3.8124,-4.1666,-4.3365,-4.3365,-4.015,-3.8093,-1.4524,-1.462,-1.489,-1.5037,0.0,0.0,-1.6411,-1.6887,-1.7278,-1.7249,-1.7521,-1.787,-1.7806,-1.7954,-1.8081,-1.8081,-1.8081,-1.8134,-1.8271,-1.8493,-1.8652,-1.8652,-1.9053,-1.9275,-1.9138,-1.9339,-1.9929,-2.1288,-2.1741,-2.2645,-2.415,-2.4301,-2.4577,-2.5171,-2.5197,-2.5382,-2.579,-2.579,-2.5645,-2.5369,-2.5369,-2.521,-2.4933,-2.4933,-2.4841,-2.467,-2.467,-2.4775,-2.4947,-2.5052,-2.5105,-2.5131,-2.5474,-2.5685,-2.5804,-2.5988,-2.6054,-2.6054,-2.6054,-2.6054,-2.6054,-2.6054,-2.6054,-2.6107,-2.641,-2.6687,-2.6964,-2.7267,-2.7571,-2.7795,-2.7795,-2.7795,-2.7795,-2.7795,-2.7795,-2.7795,-2.7795,-2.7795,-2.9294,-3.4258,-3.5226,-3.5798,-3.7521,-3.7731,-3.8809,-4.2037,-4.247,-4.3181,-4.4769,-4.4873,-4.4873,-4.4873,-4.4873,-4.4036,-4.2002,-4.1666,-4.1666,-4.1666,-4.1834,-4.1834,-4.1834,-4.3868,-4.3868,-4.1834,-4.1666,-4.1666,-4.1834,-4.5374,-4.7087,-4.7087,-4.5563,-4.3306,-1.4302,0.0,0.0,0.0,0.0,0.0,-1.6443,-1.694,-1.727,-1.727,-1.75,-1.788,-1.7975,-1.8039,-1.8102,-1.8176,-1.8187,-1.8261,-1.8504,-1.8736,-1.8884,-1.8884,-1.9233,-1.9381,-1.9148,-1.9275,-1.9982,-2.1785,-2.1785,-2.2571,-2.415,-2.4301,-2.4538,-2.5052,-2.5065,-2.521,-2.5487,-2.5487,-2.5342,-2.5065,-2.5065,-2.4907,-2.4617,-2.4617,-2.4512,-2.4301,-2.4301,-2.4872,-2.5821,-2.4922,-2.467,-2.4788,-2.5303,-2.554,-2.5645,-2.5936,-2.6054,-2.6054,-2.6054,-2.6054,-2.6054,-2.6054,-2.6054,-2.6282,-2.7622,-2.7401,-2.7144,-2.8544,-2.8477,-2.7795,-2.7795,-2.7795,-2.7795,-2.7795,-2.864,-2.9355,-2.9424,-3.0227,-3.2548,-3.8648,-3.9988,-4.0199,-4.1372,-4.1565,-4.2642,-4.581,-4.6255,-4.6927,-4.9177,-4.9439,-4.9439,-4.9439,-4.9439,-4.8253,-4.573,-4.5374,-4.5374,-4.5374,-4.5563,-4.5563,-4.5563,-4.8086,-4.8086,-4.5541,-4.5374,-4.5374,-4.5374,-4.7949,-4.9228,-4.9228,-4.9087,-4.7032,0.0,0.0,0.0,-1.5238,-1.5841,-1.6422,-1.6633,-1.7056,-1.727,-1.727,-1.7764,-1.8007,-1.7806,-1.7944,-1.8166,-1.8388,-1.843,-1.8514,-1.8757,-1.8979,-1.9106,-1.9106,-1.9328,-1.9381,-1.9148,-1.9127,-1.9732,-2.1535,-2.1535,-2.2387,-2.4137,-2.4301,-2.4446,-2.4749,-2.4762,-2.4907,-2.521,-2.5366,-2.5052,-2.4762,-2.4762,-2.4604,-2.4314,-2.4314,-2.4314,-2.4301,-2.4301,-2.6088,-2.8616,-2.5502,-2.4485,-2.4775,-2.5092,-2.5369,-2.5645,-2.5936,-2.6054,-2.6054,-2.6054,-2.6054,-2.6054,-2.6054,-2.6054,-2.6793,-3.0789,-2.9693,-2.7685,-3.1824,-3.0498,-2.7795,-2.7795,-2.7795,-2.7795,-2.7795,-3.0512,-3.314,-3.3642,-3.6177,-3.8572,-3.8974,-3.9047,-4.0379,-4.447,-4.5071,-4.6303,-4.9416,-5.0044,-4.9857,-4.9509,-4.9439,-4.9439,-4.9439,-4.9439,-4.9273,-4.9273,-4.9273,-4.9273,-4.9273,-4.9273,-4.9273,-4.9273,-4.9273,-4.9273,-4.9273,-4.9273,-4.9273,-4.9273,-4.8782,-4.8548,-4.8524,-4.8172,-4.7472,-1.4626,-1.4953,-1.5323,-1.5873,-1.6295,-1.6644,-1.6876,-1.7299,-1.75,-1.75,-1.788,-1.806,-1.7986,-1.8166,-1.8345,-1.843,-1.8578,-1.8757,-1.8979,-1.9074,-1.9117,-1.9117,-1.9191,-1.9148,-1.8927,-1.8905,-1.9639,-2.125,-2.1417,-2.2301,-2.3875,-2.4195,-2.434,-2.4446,-2.4643,-2.5861,-2.8091,-2.8091,-2.7913,-2.7585,-2.7585,-2.6338,-2.4451,-2.6523,-2.7406,-2.7272,-2.5188,-2.7272,-3.2153,-3.1115,-3.0603,-3.0753,-3.1135,-3.1483,-3.1848,-3.223,-3.1085,-2.9372,-2.9372,-2.7958,-2.6054,-2.6054,-2.6054,-2.6793,-3.0968,-3.1332,-3.132,-3.5716,-3.5921,-3.5088,-3.5088,-3.5088,-3.5088,-3.5088,-3.5921,-3.6974,-3.7097,-4.1983,-4.6507,-4.6794,-4.6881,-4.7461,-4.8861,-4.9056,-4.924,-5.0115,-5.0213,-5.0025,-4.9509,-4.9439,-4.9439,-4.9439,-4.9439,-4.9439,-4.9439,-4.9439,-4.9439,-4.9439,-4.9439,-4.9439,-4.9439,-4.9439,-4.9439,-4.9439,-4.9439,-4.9087,-4.8406,-4.8219,-4.8148,-4.8125,-4.7609,-4.7444,-1.4964,-1.5312,-1.5682,-1.6232,-1.6591,-1.6855,-1.7014,-1.7415,-1.7754,-1.7754,-1.7933,-1.8081,-1.8081,-1.8282,-1.8472,-1.8557,-1.8768,-1.899,-1.9222,-1.9254,-1.9222,-1.9138,-1.9117,-1.9001,-1.8694,-1.8673,-1.9386,-2.0977,-2.1226,-2.2154,-2.3879,-2.4156,-2.4301,-2.4301,-2.4485,-2.6082,-2.9245,-3.0434,-3.0919,-3.0669,-3.0669,-2.9644,-2.7705,-2.9777,-3.0669,-3.052,-2.8601,-3.0669,-3.5405,-3.4225,-3.3781,-3.3818,-3.4091,-3.4493,-3.5049,-3.5298,-3.4286,-3.287,-3.287,-3.1435,-2.9708,-2.9708,-2.9708,-3.0471,-3.4718,-3.5105,-3.4947,-3.9399,-3.9531,-3.8447,-3.8594,-3.8521,-3.8447,-3.8594,-3.8631,-3.9307,-4.2002,-4.6305,-5.0025,-5.0354,-5.0424,-5.0424,-5.0424,-5.0424,-5.0307,-4.9978,-4.9931,-4.9814,-4.9486,-4.9439,-4.9439,-4.9439,-4.9439,-4.9439,-4.9439,-4.9439,-4.9439,-4.9439,-4.9439,-4.9439,-4.9439,-4.9439,-4.9368,-4.9181,-4.9181,-4.8735,-4.7867,-4.7679,-4.7609,-4.7585,-4.7069,-4.7022,-1.5164,-1.5661,-1.6084,-1.6327,-1.6718,-1.7056,-1.7067,-1.7426,-1.7754,-1.7775,-1.7944,-1.8081,-1.8081,-1.8292,-1.8536,-1.8757,-1.899,-1.9222,-1.9444,-1.9465,-1.937,-1.9138,-1.9096,-1.8916,-1.8462,-1.8419,-1.9134,-2.0704,-2.0953,-2.1945,-2.3852,-2.4129,-2.4287,-2.4601,-2.4601,-2.6088,-2.9479,-3.245,-3.4077,-3.4077,-3.4077,-3.3929,-3.3781,-3.3929,-3.4077,-3.4372,-3.4372,-3.5994,-3.851,-3.5552,-3.4372,-3.441,-3.4522,-3.5062,-3.5471,-3.5726,-3.6134,-3.6328,-3.6346,-3.6365,-3.6206,-3.6206,-3.6206,-3.6989,-4.1393,-4.0358,-3.857,-4.2889,-4.1495,-3.8579,-3.9007,-3.8803,-3.8598,-3.9026,-3.9307,-4.1161,-4.792,-4.9439,-4.9439,-4.9439,-4.9439,-4.9439,-4.9439,-4.9439,-4.9439,-4.9439,-4.9439,-4.9439,-4.9439,-4.9439,-4.9439,-4.9439,-4.9439,-4.9439,-4.9439,-4.9439,-4.9439,-4.9439,-4.9439,-4.9439,-4.9415,-4.9415,-4.8992,-4.8501,-4.8618,-4.8336,-4.7796,-4.7304,-4.7069,-4.7069,-4.642,-4.6186,-1.508,-1.5777,-1.6327,-1.6549,-1.6834,-1.7098,-1.7267,-1.7542,-1.7806,-1.7965,-1.8049,-1.8081,-1.8081,-1.8419,-1.8726,-1.8789,-1.9127,-1.9413,-1.9465,-1.9328,-1.9127,-1.8905,-1.8726,-1.8493,-1.8197,-1.8176,-1.8881,-2.0419,-2.0811,-2.1662,-2.3549,-2.3839,-2.5118,-2.7705,-2.7705,-3.0372,-3.5994,-3.6876,-3.7337,-3.7337,-3.7337,-3.6141,-3.3929,-3.6288,-3.8657,-4.0893,-4.0893,-4.133,-4.2081,-4.1184,-4.0893,-4.0915,-4.1026,-4.1381,-4.1847,-4.2336,-4.1119,-3.9393,-3.9716,-3.8242,-3.6206,-3.6206,-3.6206,-3.6989,-4.1393,-4.2147,-4.2271,-4.6185,-4.6603,-4.5879,-4.6012,-4.5945,-4.5967,-4.6454,-4.6565,-4.7087,-4.8941,-4.9439,-4.9439,-4.9439,-4.9439,-4.9439,-4.9439,-4.9439,-4.9439,-4.9439,-4.9439,-4.9439,-4.9439,-4.9439,-4.9439,-4.9439,-4.9439,-4.9439,-4.9439,-4.9439,-4.9439,-4.9439,-4.9439,-4.9274,-4.8735,-4.8711,-4.8618,-4.8101,-4.7702,-4.7257,-4.6583,-4.6443,-4.6373,-4.6373,-4.6256,-4.6186,-1.5378,-1.5968,-1.6538,-1.6665,-1.7024,-1.7363,-1.7259,-1.7743,-1.806,-1.8081,-1.8007,-1.7944,-1.7944,-1.8409,-1.8757,-1.8652,-1.9022,-1.9286,-1.9191,-1.9064,-1.8895,-1.8673,-1.8525,-1.8345,-1.8102,-1.8362,-1.9063,-2.0324,-2.0998,-2.1982,-2.343,-2.504,-2.6946,-2.8883,-3.0372,-3.3486,-3.851,-3.851,-3.9264,-4.0601,-4.0601,-3.9702,-3.8071,-3.9849,-4.1622,-4.3413,-4.3413,-4.3413,-4.3413,-4.3413,-4.3413,-4.3413,-4.3413,-4.3719,-4.4237,-4.4755,-4.3885,-4.2673,-4.3312,-4.2214,-4.0645,-4.0645,-4.0645,-4.1083,-4.3731,-4.4767,-4.5472,-4.7571,-4.8336,-4.8336,-4.8336,-4.8336,-4.8453,-4.8993,-4.9274,-4.9439,-4.9439,-4.9439,-4.9439,-4.9439,-4.9439,-4.9439,-4.9439,-4.9439,-4.9439,-4.9439,-4.9439,-4.9439,-4.9439,-4.9439,-4.9439,-4.9439,-4.9439,-4.9439,-4.9439,-4.9439,-4.9439,-4.9439,-4.9439,-4.9228,-4.8548,-4.8524,-4.8312,-4.7562,-4.7022,-4.6467,-4.6186,-4.6186,-4.6186,-4.6186,-4.6186,-4.6186,-1.5566,-1.6147,-1.6623,-1.6718,-1.7225,-1.7521,-1.7312,-1.7891,-1.8282,-1.8039,-1.787,-1.7754,-1.7754,-1.8303,-1.8683,-1.8472,-1.88,-1.9011,-1.8821,-1.8768,-1.8673,-1.8462,-1.8409,-1.8314,-1.8102,-1.8642,-1.9483,-2.0324,-2.1244,-2.2217,-2.3364,-2.6706,-2.8785,-2.9547,-3.271,-3.5994,-3.9096,-3.9117,-4.0579,-4.3413,-4.3413,-4.3413,-4.3413,-4.3413,-4.3413,-4.3413,-4.3413,-4.3413,-4.3413,-4.3413,-4.3413,-4.3413,-4.3413,-4.3695,-4.4143,-4.4661,-4.5028,-4.5567,-4.5929,-4.6139,-4.6186,-4.6186,-4.6186,-4.6279,-4.6952,-4.7421,-4.7773,-4.7773,-4.7773,-4.7773,-4.7773,-4.782,-4.8007,-4.8547,-4.8899,-4.9439,-4.9439,-4.9439,-4.9439,-4.9439,-4.9439,-4.9439,-4.9439,-4.9439,-4.9439,-4.9439,-4.9439,-4.9439,-4.9439,-4.9439,-4.9439,-4.9439,-4.9439,-4.9439,-4.9439,-4.9439,-4.9439,-4.9439,-4.9439,-4.9016,-4.8594,-4.8571,-4.7916,-4.7022,-4.642,-4.6186,-4.6186,-4.6186,-4.6186,-4.6186,-4.6186,-4.6186,-1.5714,-1.6031,-1.6264,-1.6845,-1.7225,-1.7312,-1.727,-1.7511,-1.7806,-1.7427,-1.7511,-1.7754,-1.7754,-1.8166,-1.8493,-1.8451,-1.8673,-1.8842,-1.88,-1.8631,-1.8483,-1.8451,-1.8261,-1.8134,-1.8092,-1.8221,-1.8923,-2.0324,-2.064,-2.1349,-2.2918,-2.6349,-2.9563,-3.2521,-3.5964,-3.9264,-4.2518,-4.2518,-4.2832,-4.3413,-4.3413,-4.3413,-4.3413,-4.3413,-4.3413,-4.3413,-4.3413,-4.3413,-4.3413,-4.3413,-4.3413,-4.3413,-4.3413,-4.346,-4.3601,-4.4119,-4.4637,-4.5004,-4.5544,-4.5835,-4.6186,-4.6186,-4.6186,-4.6279,-4.6952,-4.7163,-4.7233,-4.7233,-4.7233,-4.7233,-4.7233,-4.7562,-4.8007,-4.8547,-4.8899,-4.9439,-4.9439,-4.9439,-4.9439,-4.9439,-4.9439,-4.9439,-4.9439,-4.9439,-4.9439,-4.9439,-4.9439,-4.9439,-4.9439,-4.9439,-4.9439,-4.9439,-4.9439,-4.9439,-4.9439,-4.9439,-4.9439,-4.9439,-4.9439,-4.9016,-4.8054,-4.8007,-4.7538,-4.635,-4.6233,-4.6186,-4.6186,-4.6186,-4.6186,-4.6186,-4.6186,-4.6186,-1.582,-1.6094,-1.6295,-1.675,-1.713,-1.7228,-1.7246,-1.75,-1.7616,-1.713,-1.7225,-1.7426,-1.7417,-1.7944,-1.825,-1.825,-1.8451,-1.8567,-1.844,-1.8324,-1.825,-1.825,-1.8155,-1.8081,-1.8081,-1.8502,-1.9203,-2.0324,-2.2128,-2.3786,-2.5239,-3.0096,-3.3774,-3.5637,-3.9153,-4.179,-4.3268,-4.3413,-4.3413,-4.3413,-4.3413,-4.3413,-4.3413,-4.3413,-4.3413,-4.3413,-4.3413,-4.3413,-4.3413,-4.3413,-4.3413,-4.3413,-4.3413,-4.3413,-4.3338,-4.3978,-4.4496,-4.5014,-4.5403,-4.5765,-4.6186,-4.6186,-4.6186,-4.6233,-4.649,-4.6905,-4.7045,-4.6787,-4.6747,-4.7045,-4.6787,-4.728,-4.7937,-4.8195,-4.8876,-4.9439,-4.9439,-4.9439,-4.9439,-4.9439,-4.9439,-4.9439,-4.9439,-4.9439,-4.9439,-4.9439,-4.9439,-4.9439,-4.9439,-4.9439,-4.9439,-4.9439,-4.9439,-4.9439,-4.9439,-4.9439,-4.9439,-4.9439,-4.9204,-4.8688,-4.789,-4.7609,-4.7116,-4.6209,-4.6186,-4.6186,-4.6186,-4.6186,-4.6186,-4.6186,-4.6186,-4.6186,-1.6194,-1.6379,-1.6475,-1.6644,-1.7014,-1.7278,-1.7088,-1.7341,-1.7437,-1.6813,-1.6919,-1.7162,-1.7299,-1.7743,-1.8071,-1.8018,-1.8208,-1.8303,-1.8113,-1.8081,-1.8362,-1.8912,-1.9052,-1.9332,-1.9892,-1.9892,-2.0312,-2.1303,-2.3926,-2.6117,-2.725,-3.3647,-3.7354,-3.7673,-4.1215,-4.3295,-4.3413,-4.3413,-4.3413,-4.3413,-4.3413,-4.3413,-4.3413,-4.3413,-4.3413,-4.3413,-4.3413,-4.3413,-4.3413,-4.3413,-4.3413,-4.3413,-4.3413,-4.3413,-4.346,-4.386,-4.4402,-4.5014,-4.5262,-4.5825,-4.6186,-4.6186,-4.6186,-4.6186,-4.6186,-4.6623,-4.6858,-4.6303,-4.6467,-4.6858,-4.6303,-4.7092,-4.7867,-4.7867,-4.8688,-4.9439,-4.9439,-4.9439,-4.9439,-4.9439,-4.9439,-4.9439,-4.9439,-4.9439,-4.9439,-4.9439,-4.9439,-4.9439,-4.9439,-4.9439,-4.9439,-4.9439,-4.9439,-4.9439,-4.9439,-4.9345,-4.9274,-4.9274,-4.8805,-4.8103,-4.7726,-4.721,-4.6607,-4.6209,-4.6186,-4.6186,-4.6186,-4.6186,-4.6186,-4.6186,-4.6186,-4.6186,-1.7013,-1.6869,-1.6665,-1.6686,-1.6887,-1.7077,-1.7056,-1.7077,-1.7035,-1.675,-1.7056,-1.731,-1.7119,-1.7627,-1.8018,-1.7817,-1.7975,-1.8113,-1.8092,-1.8081,-1.9052,-2.1824,-2.2102,-2.3217,-2.5871,-2.3773,-2.2812,-2.4219,-2.4622,-2.5455,-2.7027,-3.3067,-3.6871,-3.7333,-4.086,-4.2798,-4.3413,-4.3413,-4.3413,-4.3413,-4.3413,-4.3413,-4.3413,-4.3413,-4.3413,-4.3413,-4.3413,-4.3413,-4.3413,-4.3413,-4.3413,-4.3413,-4.3413,-4.3413,-4.3268,-4.346,-4.4096,-4.4943,-4.499,-4.552,-4.6186,-4.6186,-4.6186,-4.6186,-4.6186,-4.6233,-4.6256,-4.6209,-4.6233,-4.6256,-4.6209,-4.7092,-4.7867,-4.7867,-4.8688,-4.9439,-4.9439,-4.9439,-4.9439,-4.9439,-4.9439,-4.9439,-4.9439,-4.9439,-4.9439,-4.9439,-4.9439,-4.9439,-4.9439,-4.9439,-4.9439,-4.9439,-4.9439,-4.9439,-4.9439,-4.9016,-4.8595,-4.8595,-4.8242,-4.7702,-4.721,-4.6693,-4.6233,-4.6186,-4.6186,-4.6186,-4.6186,-4.6186,-4.6186,-4.6186,-4.6186,-4.6186,-1.6879,-1.6844,-1.6812,-1.6581,-1.6665,-1.6834,-1.6834,-1.6834,-1.6845,-1.6898,-1.694,-1.7035,-1.7225,-1.7373,-1.7574,-1.7901,-1.7912,-1.7933,-1.8071,-1.8081,-1.9192,-2.2242,-2.2521,-2.3773,-2.6703,-2.4761,-2.4344,-2.7118,-2.7778,-2.9295,-3.2061,-3.6759,-3.9337,-3.9539,-4.1483,-4.2611,-4.2822,-4.3127,-4.3413,-4.3413,-4.3413,-4.3413,-4.3413,-4.3413,-4.3413,-4.3413,-4.3413,-4.3413,-4.3413,-4.3413,-4.3413,-4.3413,-4.3413,-4.3413,-4.3413,-4.3413,-4.386,-4.4519,-4.4826,-4.5286,-4.5788,-4.6092,-4.6186,-4.6186,-4.6186,-4.6186,-4.6186,-4.6186,-4.6186,-4.6186,-4.6186,-4.7092,-4.7867,-4.7867,-4.8453,-4.8899,-4.9392,-4.9439,-4.9439,-4.9439,-4.9439,-4.9439,-4.9439,-4.9439,-4.9439,-4.9439,-4.9439,-4.9439,-4.9439,-4.9439,-4.9439,-4.9439,-4.9439,-4.9321,-4.8852,-4.8641,-4.8384,-4.8219,-4.7702,-4.7186,-4.6513,-4.6459,-4.6186,-4.6186,-4.6186,-4.6186,-4.6186,-4.6186,-4.6186,-4.6186,-4.6186,-4.6186,-1.7115,-1.7112,-1.7059,-1.6685,-1.6677,-1.6774,-1.6794,-1.6697,-1.6781,-1.7088,-1.7077,-1.7046,-1.7172,-1.7225,-1.7373,-1.7722,-1.7764,-1.7806,-1.7965,-1.8739,-2.044,-2.3495,-2.4607,-2.641,-2.9329,-2.7534,-2.7534,-3.0276,-3.1219,-3.2863,-3.5653,-3.9,-4.0917,-4.1059,-4.1813,-4.2353,-4.2517,-4.3154,-4.3413,-4.3413,-4.3413,-4.3413,-4.3413,-4.3413,-4.3413,-4.3413,-4.3413,-4.3413,-4.3413,-4.3413,-4.3413,-4.3413,-4.3413,-4.3413,-4.3413,-4.3413,-4.3743,-4.426,-4.4755,-4.5145,-4.5508,-4.6022,-4.6186,-4.6186,-4.6186,-4.6186,-4.6186,-4.6186,-4.6186,-4.6186,-4.6186,-4.6998,-4.7632,-4.7632,-4.8172,-4.8618,-4.9134,-4.9345,-4.9439,-4.9439,-4.9439,-4.9439,-4.9439,-4.9439,-4.9439,-4.9439,-4.9439,-4.9439,-4.9439,-4.9439,-4.9392,-4.9228,-4.9228,-4.8852,-4.8314,-4.815,-4.7893,-4.7655,-4.7163,-4.6717,-4.6209,-4.6186,-4.6186,-4.6186,-4.6186,-4.6186,-4.6186,-4.6186,-4.6186,-4.6186,-4.6186,-4.6186,-1.7954,-1.7943,-1.7795,-1.7433,-1.7058,-1.6877,-1.672,-1.6697,-1.6824,-1.7165,-1.7448,-1.7532,-1.6824,-1.7278,-1.7595,-1.713,-1.7447,-1.7754,-1.7754,-2.0423,-2.3634,-2.6564,-2.9605,-3.251,-3.5422,-3.3742,-3.2746,-3.3586,-3.4269,-3.4931,-3.5789,-3.8662,-4.0564,-4.1059,-4.1461,-4.2001,-4.2517,-4.3154,-4.3413,-4.3413,-4.3413,-4.3413,-4.3413,-4.3413,-4.3413,-4.3413,-4.3413,-4.3413,-4.3413,-4.3413,-4.3413,-4.3413,-4.3413,-4.3413,-4.3413,-4.3413,-4.3743,-4.426,-4.4755,-4.5145,-4.5508,-4.6022,-4.6186,-4.6186,-4.6186,-4.6186,-4.6186,-4.6186,-4.6186,-4.6186,-4.6186,-4.674,-4.7116,-4.7116,-4.7753,-4.8524,-4.8524,-4.8922,-4.9439,-4.9439,-4.9439,-4.9439,-4.9439,-4.9439,-4.9439,-4.9439,-4.9439,-4.9439,-4.9439,-4.9439,-4.9251,-4.8595,-4.8524,-4.8477,-4.7937,-4.7421,-4.7116,-4.7116,-4.649,-4.6209,-4.6186,-4.6186,-4.6186,-4.6186,-4.6186,-4.6186,-4.6186,-4.6186,-4.6186,-4.6186,-4.6186,-4.6186,-1.8088,-1.8034,-1.8076,-1.8096,-1.7685,-1.7214,-1.7397,-1.7213,-1.7019,-1.6665,-1.7003,-1.7204,-1.6972,-1.6982,-1.7088,-1.7257,-1.728,-1.8245,-2.0456,-2.1796,-2.4468,-2.9467,-3.0862,-3.2784,-3.6219,-3.4562,-3.4426,-3.717,-3.6198,-3.647,-3.8662,-3.9766,-4.0241,-4.0405,-4.1059,-4.1461,-4.1977,-4.2493,-4.2939,-4.3413,-4.3413,-4.3413,-4.3413,-4.3413,-4.3413,-4.3413,-4.3413,-4.3413,-4.3413,-4.3413,-4.3413,-4.3413,-4.3413,-4.3413,-4.3413,-4.3413,-4.3362,-4.379,-4.4637,-4.5061,-4.5192,-4.606,-4.6186,-4.6186,-4.6186,-4.6186,-4.6186,-4.6186,-4.6186,-4.6186,-4.6186,-4.6303,-4.6513,-4.7022,-4.735,-4.8438,-5.1558,-5.0417,-4.9674,-5.2457,-5.3,-5.2202,-4.9771,-5.3329,-5.4942,-5.0102,-5.1377,-5.2037,-4.9605,-4.9439,-4.9392,-4.9062,-4.8735,-4.8312,-4.7421,-4.721,-4.6952,-4.66,-4.6279,-4.6186,-4.6186,-4.6186,-4.6186,-4.6186,-4.6186,-4.6186,-4.6186,-4.6186,-4.6186,-4.6186,-4.6186,-4.6186,-2.0743,-2.031,-1.9859,-2.0029,-2.0259,-2.0605,-2.0902,-1.9954,-1.9149,-1.9983,-1.9328,-1.9195,-2.0409,-2.0233,-1.9623,-1.881,-1.9592,-2.0674,-2.1901,-2.4082,-2.7081,-3.0981,-3.2784,-3.4426,-3.6763,-3.6219,-3.6627,-3.8955,-3.812,-3.8255,-4.017,-4.017,-4.017,-4.017,-4.08,-4.1247,-4.1438,-4.2165,-4.2681,-4.2986,-4.2986,-4.308,-4.3413,-4.3413,-4.3413,-4.3413,-4.3413,-4.3413,-4.3413,-4.3413,-4.3413,-4.3413,-4.3413,-4.3413,-4.3413,-4.3413,-4.3413,-4.3385,-4.4355,-4.4778,-4.5084,-4.5778,-4.6046,-4.6186,-4.6186,-4.6186,-4.6186,-4.6186,-4.6186,-4.6497,-4.7715,-4.818,-4.8563,-5.0128,-5.0511,-5.1468,-5.4379,-5.345,-5.2747,-5.5178,-5.5714,-5.5096,-5.2857,-5.6386,-5.8001,-5.3489,-5.4975,-5.5759,-5.3657,-5.2202,-5.1304,-5.1109,-4.9481,-4.842,-4.8609,-4.8512,-4.8366,-4.8204,-4.818,-4.862,-4.9829,-4.8774,-4.862,-4.9854,-4.9983,-4.9983,-4.9983,-4.862,-4.818,-4.8025,-4.6808,-4.6092,-2.5111,-2.4084,-2.2821,-2.292,-2.452,-2.6031,-2.6314,-2.4067,-2.2763,-2.5764,-2.3888,-2.2729,-2.5969,-2.5904,-2.445,-2.1734,-2.3498,-2.461,-2.2693,-2.7163,-3.1069,-3.1768,-3.4856,-3.6899,-3.7056,-3.8278,-3.909,-3.909,-3.9766,-4.017,-4.017,-4.017,-4.017,-4.017,-4.0776,-4.1035,-4.1082,-4.1907,-4.24,-4.24,-4.247,-4.2751,-4.3221,-4.3389,-4.3413,-4.3413,-4.3413,-4.3413,-4.3413,-4.3413,-4.3413,-4.3413,-4.3413,-4.3413,-4.3413,-4.3413,-4.3413,-4.3484,-4.4002,-4.4519,-4.5037,-4.5426,-4.5765,-4.6295,-4.6497,-4.6473,-4.6295,-4.6497,-4.6808,-4.756,-5.0445,-5.1366,-5.2259,-5.5306,-5.6338,-5.6763,-5.7128,-5.7274,-5.7543,-5.7884,-5.7884,-5.7913,-5.76,-5.8554,-5.9299,-5.8721,-5.9524,-6.0056,-5.9951,-5.7009,-5.4681,-5.432,-5.0678,-4.9303,-5.1369,-5.1546,-5.152,-5.1826,-5.1673,-5.2871,-5.5912,-5.3023,-5.2871,-5.5912,-5.5912,-5.5912,-5.5912,-5.2871,-5.1494,-5.1314,-4.8261,-4.663,-2.4928,-2.4921,-2.4766,-2.5601,-2.6252,-2.6646,-2.6435,-2.557,-2.4919,-2.5328,-2.48,-2.4767,-2.5881,-2.5958,-2.5781,-2.5454,-2.5294,-2.6182,-2.8656,-2.9977,-3.1881,-3.5203,-3.6355,-3.7328,-3.8413,-3.8819,-3.936,-3.9901,-4.017,-4.017,-4.017,-4.017,-4.017,-4.017,-4.0288,-4.0546,-4.1059,-4.1179,-4.1435,-4.1459,-4.2118,-4.2564,-4.2705,-4.3248,-4.3413,-4.3413,-4.3413,-4.3413,-4.3413,-4.3413,-4.3413,-4.3413,-4.3413,-4.3413,-4.3413,-4.3413,-4.3413,-4.3484,-4.4002,-4.4519,-4.5037,-4.5426,-4.5508,-4.6133,-4.9113,-4.7887,-4.6287,-4.9113,-5.1826,-5.3329,-5.152,-5.3023,-5.5003,-5.5761,-5.6026,-5.7014,-6.0099,-5.8779,-5.7808,-6.0936,-6.149,-6.0716,-5.8069,-6.2137,-6.4149,-5.9429,-6.1216,-6.2276,-6.0188,-5.8561,-5.7745,-5.7606,-5.5819,-5.4923,-5.542,-5.5129,-5.5912,-5.8477,-5.6215,-5.5154,-5.5912,-5.5306,-5.5154,-5.5912,-5.5912,-5.5912,-5.5912,-5.5154,-5.46,-5.4127,-5.3254,-5.2627,-2.7928,-2.7652,-2.746,-2.922,-3.0009,-3.0215,-2.9991,-2.8909,-2.8204,-2.9341,-2.849,-2.7999,-2.9636,-2.9784,-2.9907,-3.012,-2.9893,-3.02,-3.1265,-3.2631,-3.4369,-3.7084,-3.7713,-3.8367,-3.9273,-3.9498,-3.9766,-4.017,-4.017,-4.017,-4.017,-4.017,-4.017,-4.017,-4.017,-4.0311,-4.0569,-4.0729,-4.0847,-4.1082,-4.1508,-4.193,-4.2188,-4.2681,-4.306,-4.2939,-4.3319,-4.3413,-4.3413,-4.3413,-4.3413,-4.3413,-4.3413,-4.3413,-4.3413,-4.3413,-4.3413,-4.346,-4.3743,-4.4308,-4.4943,-4.4863,-4.5192,-4.605,-4.9374,-4.9046,-4.8185,-5.0137,-5.3264,-5.5912,-5.5609,-5.6971,-5.8627,-6.0156,-6.0455,-6.1027,-6.3197,-6.2211,-6.1552,-6.3769,-6.4135,-6.3531,-6.168,-6.4757,-6.6326,-6.2973,-6.4396,-6.5208,-6.3835,-6.1805,-6.0508,-6.0213,-5.8175,-5.732,-5.8585,-5.8383,-5.8957,-6.0754,-6.0605,-6.0455,-6.0455,-5.8957,-5.8957,-6.0455,-6.0149,-5.9995,-5.9995,-5.7734,-5.6495,-5.6142,-5.4396,-5.3356,-3.1536,-3.0745,-3.036,-3.2644,-3.3601,-3.3976,-3.3976,-3.2353,-3.1659,-3.4191,-3.2628,-3.1489,-3.4126,-3.4504,-3.4377,-3.4321,-3.4867,-3.4581,-3.2717,-3.4763,-3.6874,-3.7897,-3.8639,-3.9273,-3.9821,-4.0157,-4.017,-4.017,-4.017,-4.017,-4.017,-4.017,-4.017,-4.017,-4.017,-4.017,-4.017,-4.017,-4.0382,-4.0964,-4.1035,-4.1179,-4.1649,-4.2165,-4.2446,-4.254,-4.2963,-4.3197,-4.3413,-4.3413,-4.3413,-4.3413,-4.3413,-4.3413,-4.3413,-4.3413,-4.3413,-4.3413,-4.3413,-4.4025,-4.4755,-4.4308,-4.4928,-4.6476,-4.9331,-5.0433,-5.0978,-5.1402,-5.4239,-5.7908,-6.0275,-6.1202,-6.2275,-6.5004,-6.5626,-6.5626,-6.5626,-6.5626,-6.5626,-6.5626,-6.5626,-6.5626,-6.5626,-6.6273,-6.6705,-6.6838,-6.7404,-6.787,-6.797,-6.5335,-6.3305,-6.2743,-5.9977,-5.907,-6.1413,-6.1531,-6.1437,-6.1219,-6.3908,-6.544,-6.544,-6.2698,-6.2518,-6.5128,-6.4542,-6.4176,-6.4142,-6.0128,-5.8053,-5.7819,-5.4539,-5.2953,-3.163,-3.2077,-3.2755,-3.3114,-3.3601,-3.3976,-3.3976,-3.3748,-3.3543,-3.4093,-3.375,-3.3682,-3.4657,-3.5076,-3.5325,-3.5254,-3.6104,-3.6612,-3.5975,-3.6231,-3.7026,-3.8117,-3.8704,-3.9406,-4.0152,-4.0217,-4.017,-4.017,-4.017,-4.017,-4.017,-4.017,-4.017,-4.017,-4.017,-4.017,-4.017,-4.017,-4.0217,-4.0288,-4.087,-4.1106,-4.1223,-4.1625,-4.2118,-4.2517,-4.2587,-4.2869,-4.3413,-4.3413,-4.3413,-4.3413,-4.3413,-4.3413,-4.3413,-4.3413,-4.3413,-4.3413,-4.3413,-4.3813,-4.4284,-4.4213,-4.5886,-4.8859,-5.2463,-5.3538,-5.4182,-5.6697,-6.0273,-6.3014,-6.1226,-6.2901,-6.5037,-6.5626,-6.5626,-6.5626,-6.5626,-6.5626,-6.5626,-6.5626,-6.5626,-6.5626,-6.5626,-6.5873,-6.6139,-6.6772,-6.6938,-6.7238,-6.7904,-6.6952,-6.6189,-6.609,-6.5084,-6.4511,-6.4889,-6.5004,-6.4477,-6.3227,-6.359,-6.3876,-6.3876,-6.3414,-6.3149,-6.2836,-6.2245,-6.1984,-6.1984,-6.1199,-6.0495,-5.9766,-5.9228,-5.8566,-3.2005,-3.285,-3.3624,-3.3624,-3.3812,-3.3906,-3.3624,-3.3577,-3.3507,-3.3225,-3.3155,-3.3319,-3.3835,-3.4351,-3.4844,-3.5399,-3.62,-3.6715,-3.6978,-3.736,-3.805,-3.882,-3.933,-3.9882,-4.0569,-4.047,-4.017,-4.017,-4.017,-4.017,-4.017,-4.017,-4.017,-4.017,-4.017,-4.017,-4.017,-4.017,-4.017,-4.017,-4.0405,-4.0522,-4.0546,-4.1062,-4.1438,-4.1812,-4.1977,-4.24,-4.2869,-4.2869,-4.3033,-4.3413,-4.3413,-4.3413,-4.3413,-4.3413,-4.3413,-4.3413,-4.3413,-4.3578,-4.3912,-4.564,-4.7271,-4.9515,-5.4195,-5.7034,-5.8973,-6.0813,-6.2927,-6.4696,-6.4218,-6.4856,-6.5773,-6.6214,-6.6067,-6.5626,-6.5626,-6.5626,-6.5626,-6.5626,-6.5626,-6.5626,-6.5626,-6.5626,-6.5873,-6.6206,-6.6273,-6.6406,-6.6739,-6.6472,-6.6106,-6.5707,-6.5374,-6.5008,-6.4608,-6.3843,-6.3077,-6.2411,-6.2345,-6.2345,-6.2345,-6.2345,-6.2212,-6.1879,-6.1147,-6.078,-6.078,-5.9981,-5.9449,-5.9116,-5.8683,-5.8517,-3.2685,0.0,-3.3976,-3.3976,-3.3976,-3.3882,0.0,-3.3319,-3.3108,-3.2732,-3.2545,-3.2615,-3.3131,-3.3647,-3.4328,-3.5384,-3.5994,-3.6487,-3.7003,-3.7777,-3.8528,-3.9161,-3.9795,-4.0335,-4.0847,-4.0405,-4.017,-4.017,-4.017,-4.017,-4.017,-4.017,-4.017,-4.017,-4.017,-4.017,-4.017,-4.017,-4.017,-4.017,-4.017,-4.017,-4.0329,-4.0569,-4.0964,-4.1106,-4.1367,-4.186,-4.2353,-4.247,-4.2751,-4.3103,-4.3366,-4.3413,-4.3413,-4.3413,-4.3413,-4.3413,-4.3413,-4.3848,-4.4838,-4.7119,-4.9104,-5.1243,-5.5441,-5.9324,-6.2345,-6.3077,-6.3952,-6.5008,-6.6328,-6.6239,-6.6092,-6.6677,-6.625,-6.5712,-6.5712,-6.5566,-6.542,-6.542,-6.5387,-6.5241,-6.5241,-6.542,-6.542,-6.5241,-6.542,-6.542,-6.542,-6.542,-6.5332,-6.4763,-6.4563,-6.4195,-6.3343,-6.2055,-6.1391,-6.1391,-6.1255,-6.1119,-6.1119,-6.0983,-6.0747,-6.0581,-6.0048,-5.9682,-5.9515,-5.8384,-5.7851,-5.7818,-5.7252,-5.7285,0.0,-3.3929,-3.3976,-3.3976,-3.3976,-3.3976,-3.3929,-3.3577,0.0,-3.3178,-3.2803,-3.2615,-3.3131,-3.3647,-3.4328,-3.5384,-3.5994,-3.6487,-3.7003,-3.7144,-3.7566,-3.8598,-3.9584,-4.0329,-4.0352,-4.0194,-4.017,-4.017,-4.017,-4.017,-4.017,-4.017,-4.017,-4.017,-4.017,-4.017,-4.017,-4.017,-4.017,-4.017,-4.017,-4.017,-4.017,-4.0217,-4.0475,-4.1082,-4.1106,-4.1297,-4.1836,-4.2306,-4.254,-4.2611,-4.308,-4.3413,-4.3413,-4.3413,-4.3413,-4.3413,-4.3413,-4.5127,-4.755,-4.7667,-5.1658,-5.6191,-5.6579,-5.9003,-6.1579,-6.2345,-6.3607,-6.4915,-6.5694,-6.6329,-6.6727,-6.687,-6.6212,-6.5697,-6.5697,-6.5306,-6.4739,-6.4739,-6.4137,-6.3676,-6.3676,-6.4312,-6.4597,-6.3819,-6.4279,-6.4739,-6.4739,-6.4739,-6.4739,-6.4671,-6.4029,-6.331,-6.2545,-6.1797,-6.12,-6.12,-6.0673,-6.031,-6.031,-5.9581,-5.9016,-5.835,-5.8284,-5.7918,-5.7219,-5.7119,-5.7052,-5.7052,-5.6986,-5.7019,-3.3929,-3.3976,-3.3976,-3.3976,-3.3976,-3.3906,-3.3577,-3.3108,-3.2662,-3.231,-3.2099,-3.2122,-3.2662,-3.3436,-3.4328,-3.5384,-3.5994,-3.6604,-3.7425,-3.7284,-3.7472,-3.8528,-3.9279,-3.9818,-4.0147,-4.017,-4.017,-4.017,-4.017,-4.017,-4.017,-4.017,-4.017,-4.017,-4.017,-4.017,-4.017,-4.017,-4.017,-4.017,-4.017,-4.017,-4.017,-4.017,-4.0423,-4.0588,-4.0588,-4.0757,0.0,-4.1461,-4.193,-4.254,-4.2728,-4.2986,-4.3413,-4.3413,-4.3413,-4.3558,-4.556,-4.6832,-4.8097,-5.0069,-5.3466,-5.6718,-5.6718,-5.8651,-6.0847,-6.1579,-6.2499,-6.3699,-6.538,-6.5971,-6.6255,-6.6822,-6.6331,-6.5701,-6.5701,-6.556,-6.5277,-6.5277,-6.5136,-6.4819,-6.4819,-6.5136,-6.5277,-6.496,-6.4727,-6.473,-6.5209,-6.4867,-6.4699,-6.4733,-6.4048,-6.3056,-6.183,-6.0521,-5.9912,-5.9912,-5.9656,-5.9527,-5.9527,-5.9236,-5.8715,-5.8026,-5.8026,-5.7636,-5.6986,-5.6986,-5.6986,-5.6986,-5.6986,-5.6986,-3.3976,-3.3976,-3.3976,-3.3976,-3.3976,-3.3906,-3.3554,-3.3061,-3.2592,-3.2216,-3.2028,-3.2122,-3.2826,-3.3507,-3.4375,-3.5595,-3.6088,-3.6627,-3.7472,-3.7308,-3.7402,-3.8293,-3.8856,-3.9373,-3.9889,-4.0077,-4.017,-4.017,-4.017,-4.017,-4.017,-4.017,-4.017,-4.017,-4.017,-4.017,-4.017,-4.017,-4.017,-4.017,-4.017,-4.017,-4.017,-4.017,-4.017,-4.017,-4.017,-4.0382,-4.0847,-4.1012,-4.1506,-4.2024,-4.2212,-4.2493,-4.2942,-4.3779,-4.4281,-4.5001,-4.7836,-4.9649,-5.0921,-5.3015,-5.5711,-5.8215,-5.7994,-5.9151,-6.0786,-6.1288,-6.2441,-6.3843,-6.55,-6.6022,-6.6162,-6.6721,-6.6267,-6.5675,-6.5675,-6.5536,-6.5396,-6.5396,-6.5257,-6.4978,-6.4978,-6.5257,-6.5257,-6.5118,-6.4566,-6.4392,-6.4946,-6.4531,-6.4219,-6.4219,-6.3697,-6.283,-6.2051,-6.0762,-5.9926,-5.9682,-5.9521,-5.943,-5.943,-5.9177,-5.889,-5.8349,-5.8349,-5.8096,-5.7622,-5.7334,-5.7207,-5.7207,-5.7113,-5.6986,-3.3976,-3.3976,-3.3976,-3.3976,-3.3976,-3.3976,-3.3999,-3.3601,-3.3225,-3.3225,-3.2826,-3.2803,-3.3812,-3.3999,-3.4516,-3.6064,-3.6322,-3.651,-3.7026,-3.7097,-3.7261,-3.7904,-3.8317,-3.8856,-3.9349,-3.9865,-4.017,-4.017,-4.017,-4.017,-4.017,-4.017,-4.017,-4.017,-4.017,-4.017,-4.017,-4.017,-4.017,-4.017,-4.017,-4.017,-4.017,-4.017,-4.017,-4.017,-4.017,-4.017,-4.0217,-4.0847,-4.1059,-4.1129,-4.1531,-4.1743,-4.2163,-4.4876,-4.6321,-4.7464,-5.0287,-5.361,-5.6687,-5.6827,-5.8939,-6.1213,-6.0481,-6.0786,-6.1458,-6.1458,-6.3498,-6.5877,-6.5913,-6.6325,-6.6875,-6.6875,-6.6269,-6.5734,-6.5734,-6.5194,-6.4823,-6.4823,-6.4145,-6.3566,-6.3566,-6.4281,-6.4517,-6.3703,-6.3415,-6.3426,-6.3426,-6.3426,-6.3426,-6.3426,-6.2795,-6.273,-6.3381,-6.2668,-6.1884,-6.1064,-6.0402,-6.0025,-6.0025,-5.9395,-5.9177,-5.9177,-5.9177,-5.9051,-5.9051,-5.8349,-5.7935,-5.7935,-5.7207,-5.6986,-3.3976,-3.3976,-3.3976,-3.3976,-3.3976,-3.407,-3.4445,-3.4117,-3.3859,-3.4211,-3.4164,-3.4164,-3.4469,-3.5126,-3.5783,-3.6252,-3.6627,-3.7026,-3.7542,-3.7308,-3.7261,-3.7904,-3.8317,-3.8716,-3.8856,-3.9678,-4.017,-4.017,-4.017,-4.017,-4.017,-4.017,-4.017,-4.017,-4.017,-4.017,-4.017,-4.017,-4.017,-4.017,-4.017,-4.017,-4.017,-4.017,-4.017,-4.017,-4.017,-4.017,-4.0329,-4.047,-4.0753,-4.1082,-4.1247,-4.1414,-4.1883,-4.2698,-4.4282,-4.6608,-4.9756,-5.2775,-5.5573,-5.7736,-5.8978,-5.9682,-5.9476,-5.9896,-6.0445,-5.993,-6.074,-6.1997,-6.3083,-6.4699,-6.6055,-6.6055,-6.5912,-6.5734,-6.5734,-6.5599,-6.5464,-6.5464,-6.5194,-6.5059,-6.5059,-6.5194,-6.5329,-6.5059,-6.4522,-6.4337,-6.4904,-6.4479,-6.4373,-6.4904,-6.4266,-6.3973,-6.4237,-6.2989,-6.2098,-6.1884,-6.1188,-6.0743,-6.0743,-6.0527,-6.0276,-5.9773,-5.9773,-5.9521,-5.9051,-5.889,-5.851,-5.7935,-5.7715,-5.7461,-3.3976,-3.3976,-3.3976,-3.3976,-3.414,-3.4375,-3.468,-3.468,-3.4703,-3.5008,-3.5079,-3.5079,-3.5079,-3.5759,-3.6322,-3.6322,-3.6745,-3.7191,-3.7621,-3.7284,-3.7191,-3.7496,-3.8012,-3.8411,-3.8645,-3.9396,-3.9959,-4.017,-4.017,-4.017,-4.017,-4.017,-4.017,-4.017,-4.017,-4.017,-4.017,-4.017,-4.017,-4.017,-4.017,-4.017,-4.017,-4.017,-4.017,-4.017,-4.017,-4.017,-4.017,-4.017,-4.0494,-4.0776,-4.0776,-4.0827,-4.1385,-4.3697,-4.5714,-4.8055,-5.2112,-5.487,-5.6725,-5.8487,-5.9144,-5.9127,-5.9074,-5.9784,-6.0436,-6.0112,-6.0623,-6.1683,-6.2881,-6.4293,-6.5342,-6.5663,-6.5734,-6.5734,-6.5734,-6.5734,-6.5734,-6.5734,-6.5734,-6.5734,-6.5734,-6.5734,-6.5734,-6.5734,-6.5057,-6.4736,-6.5199,-6.4879,-6.4772,-6.5235,-6.5128,-6.4772,-6.413,-6.3203,-6.2419,-6.1777,-6.1278,-6.0993,-6.0993,-6.0993,-6.0868,-6.0492,-6.0492,-6.0276,-5.9899,-5.9647,-5.9269,-5.8729,-5.8476,-5.813,-3.3976,-3.3976,-3.3999,-3.4046,-3.4398,-3.4774,-3.4915,-3.5313,-3.5665,-3.5759,-3.5736,-3.5689,-3.5689,-3.6088,-3.6393,-3.6393,-3.6768,-3.7073,-3.7073,-3.7073,-3.7073,-3.7073,-3.7645,-3.8186,-3.8598,-3.9115,-3.9631,-4.0147,-4.017,-4.017,-4.017,-4.017,-4.017,-4.017,-4.017,-4.017,-4.017,-4.017,-4.017,-4.017,-4.017,-4.017,-4.017,-4.017,-4.017,-4.017,-4.017,-4.017,-4.017,-4.017,-4.044,-4.0575,-4.0575,-4.0844,-4.1627,-4.6768,-4.9217,-5.0768,-5.5869,-5.8286,-5.895,-5.895,-5.9087,-5.9177,-5.9177,-6.017,-6.124,-6.1169,-6.2212,-6.331,-6.4059,-6.4379,-6.4665,-6.5342,-6.5627,-6.5734,-6.5734,-6.5734,-6.5734,-6.5734,-6.5734,-6.5734,-6.5734,-6.5734,-6.5734,-6.5734,-6.5128,-6.4665,-6.4593,-6.4629,-6.47,-6.47,-6.5306,-6.5128,-6.3702,-6.3524,-6.2847,-6.1421,-6.1243,-6.1207,-6.1207,-6.1207,-6.1171,-6.11,-6.11,-6.1064,-6.0993,-6.0472,-6.0256,-6.013,-5.9499,-5.9281,-3.3976,-3.3976,-3.407,-3.4469,-3.4656,-3.5173,-3.6299,-3.6369,-3.6393,-3.7191,-3.7026,-3.6768,-3.6768,-3.6839,-3.6909,-3.6909,-3.7003,-3.7073,-3.7073,-3.7073,-3.7073,-3.7073,-3.7645,-3.8186,-3.8598,-3.9115,-3.9631,-4.0147,-4.017,-4.017,-4.017,-4.017,-4.017,-4.017,-4.017,-4.017,-4.017,-4.017,-4.017,-4.017,-4.017,-4.017,-4.017,-4.017,-4.017,-4.017,-4.017,-4.017,-4.017,-4.017,-4.1492,-4.345,-4.345,-4.4782,-4.69,-4.8086,-5.0139,-5.2347,-5.3547,-5.5839,-5.8188,-5.8188,-5.8877,-5.9899,-5.9899,-6.0382,-6.1117,-6.1117,-6.1349,-6.1563,-6.1777,-6.2704,-6.3667,-6.3845,-6.4807,-6.5734,-6.5734,-6.5734,-6.5734,-6.5734,-6.5734,-6.5734,-6.5734,-6.5734,-6.5734,-6.5734,-6.5592,-6.5271,-6.4665,-6.5128,-6.5485,-6.5485,-6.5627,-6.5592,-6.5271,-6.4665,-6.4166,-6.3845,-6.3203,-6.2847,-6.2847,-6.2847,-6.2561,-6.1955,-6.1955,-6.1635,-6.0993,-6.1508,-6.1446,-6.0971,-6.0809,-6.0518,-3.3976,-3.3976,-3.4093,-3.4609,-3.4938,-3.5407,-3.6463,-3.6698,-3.6839,-3.7355,-3.7261,-3.7003,-3.6768,-3.6909,-3.7003,-3.6768,-3.6932,-3.7073,-3.7073,-3.7073,-3.7073,-3.7073,-3.7308,-3.7683,-3.8223,-3.8505,-3.8974,-3.9748,-3.9818,-3.9701,-3.9467,-3.9678,-3.9912,-4.0305,-4.017,-4.017,-4.017,-4.017,-4.017,-4.017,-4.017,-4.017,-4.017,-4.017,-4.017,-4.017,-4.017,-4.017,-4.017,-4.017,-4.1871,-4.4357,-4.4357,-4.608,-4.8743,-5.0182,-5.1614,-5.307,-5.4745,-5.6409,-5.8062,-5.8729,-5.9612,-6.0492,-6.0492,-6.0743,-6.0922,-6.0565,-6.0458,-6.0458,-6.0494,-6.1349,-6.2419,-6.3167,-6.4308,-6.5271,-6.5663,-6.5734,-6.5734,-6.5734,-6.5734,-6.5734,-6.5734,-6.5734,-6.5734,-6.5734,-6.5734,-6.5592,-6.5199,-6.5485,-6.5592,-6.5199,-6.552,-6.5592,-6.5199,-6.4807,-6.4415,-6.4023,-6.3595,-6.3346,-6.3346,-6.3346,-6.3167,-6.2775,-6.2775,-6.2561,-6.2134,-6.2205,-6.2077,-6.1729,-6.127,-6.0966,-3.3976,-3.3976,-3.414,-3.4727,-3.522,-3.5736,-3.644,-3.6839,-3.7097,-3.7191,-3.7144,-3.6956,-3.6534,-3.6792,-3.6979,-3.6627,-3.6932,-3.7214,-3.7214,-3.7214,-3.7191,-3.7097,-3.7073,-3.7284,-3.7777,-3.7975,-3.8246,-3.9208,-3.9185,-3.8997,-3.8669,-3.9044,-3.949,-3.9889,-4.0006,-4.0077,-4.017,-4.017,-4.017,-4.017,-4.017,-4.017,-4.017,-4.017,-4.017,-4.017,-4.017,-4.017,-4.017,-4.0305,-4.2005,-4.4357,-4.5021,-4.7005,-4.9921,-5.2651,-5.3845,-5.436,-5.7174,-5.8223,-5.8476,-5.9738,-6.0617,-6.0993,-6.0993,-6.0993,-6.085,-6.0066,-5.9852,-5.9781,-5.9496,-6.0209,-6.1278,-6.249,-6.3702,-6.4772,-6.5378,-6.5627,-6.5734,-6.5734,-6.5734,-6.5734,-6.5734,-6.5734,-6.5734,-6.5734,-6.5734,-6.5663,-6.5556,-6.5663,-6.5485,-6.4843,-6.5342,-6.5485,-6.4843,-6.4772,-6.4486,-6.3809,-6.3631,-6.356,-6.356,-6.3417,-6.331,-6.3167,-6.3167,-6.3096,-6.2954,-6.2455,-6.2205,-6.2205,-6.1528,-6.1207,-3.3976,-3.3976,-3.4211,-3.5196,-3.5501,-3.5923,-3.7331,-3.7355,-3.7214,-3.766,-3.7378,-3.705,-3.6979,-3.7026,-3.7191,-3.7589,-3.7683,-3.7857,-3.7857,-3.7857,-3.7566,-3.712,-3.7073,-3.7284,-3.7777,-3.7975,-3.8106,-3.8716,-3.8317,-3.8223,-3.8645,-3.8716,-3.8786,-3.8856,-3.9279,-3.9725,-4.0305,-4.017,-4.017,-4.017,-4.017,-4.017,-4.017,-4.017,-4.017,-4.017,-4.017,-4.017,-4.0305,-4.0844,-4.2406,-4.4623,-4.7663,-5.0674,-5.3524,-5.6249,-5.7715,-5.8384,-5.8763,-5.9269,-5.9899,-6.0617,-6.0993,-6.0993,-6.0993,-6.0993,-6.085,-6.0066,-5.9852,-5.9531,-5.8141,-5.9389,-6.0886,-6.0423,-6.249,-6.4629,-6.47,-6.5271,-6.5734,-6.5734,-6.5734,-6.5734,-6.5734,-6.5734,-6.5734,-6.5734,-6.5734,-6.5485,-6.4807,-6.5306,-6.5698,-6.5592,-6.5663,-6.5698,-6.5592,-6.5556,-6.552,-6.5413,-6.4772,-6.4415,-6.4415,-6.3738,-6.3061,-6.2383,-6.2383,-6.2027,-6.1314,-6.192,-6.2205,-6.2205,-6.2098,-6.2062,-3.3976,-3.3976,-3.4164,-3.4915,-3.5102,-3.5431,-3.6698,-3.6815,-3.6792,-3.7308,-3.7237,-3.7073,-3.7073,-3.7073,-3.7167,-3.7378,-3.7425,-3.7425,-3.7425,-3.7425,-3.7331,-3.7097,-3.7073,-3.7167,-3.7378,-3.7425,-3.7636,-3.8153,-3.7707,-3.7519,-3.7754,-3.8035,-3.8199,-3.8199,-3.8716,-3.9091,-3.9326,-3.9607,-3.9889,-4.017,-4.017,-4.017,-4.017,-4.017,-4.017,-4.0305,-4.0575,-4.0844,-4.0844,-4.1492,-4.3342,-4.5843,-4.8976,-5.1973,-5.4713,-5.7588,-5.8763,-5.9177,-5.9521,-6.0025,-6.0617,-6.0993,-6.0993,-6.0993,-6.0993,-6.0993,-6.085,-6.0066,-5.9852,-5.9603,-5.8462,-5.9246,-6.0387,-6.0458,-6.192,-6.3488,-6.4379,-6.4843,-6.5199,-6.5663,-6.5734,-6.5734,-6.5734,-6.5734,-6.5734,-6.5734,-6.5734,-6.5449,-6.4665,-6.4879,-6.5446,-6.6483,-6.6946,-6.7188,-6.6614,-6.7114,-6.6529,-6.4547,-6.4094,-6.388,-6.388,-6.356,-6.3203,-6.2847,-6.2847,-6.2668,-6.2312,-6.2241,-6.2205,-6.2205,-6.1742,-6.1528,-3.3976,-3.3976,-3.4093,-3.4609,-3.475,-3.4985,-3.5923,-3.6135,-3.6275,-3.6792,-3.6885,-3.6932,-3.705,-3.7073,-3.712,-3.7261,-3.7284,-3.7284,-3.7284,-3.7284,-3.7237,-3.7097,-3.7073,-3.7073,-3.7073,-3.7073,-3.7362,-3.7865,-3.741,-3.7073,-3.7073,-3.7449,-3.7763,-3.7763,-3.8176,-3.8458,-3.8458,-3.895,-3.942,-3.9795,-4.018,-4.0251,-4.0251,-4.0638,-4.0844,-4.0844,-4.1224,-4.1492,-4.1627,-4.31,-4.4808,-4.6796,-5.0544,-5.3266,-5.5482,-5.8223,-5.9395,-5.9647,-6.015,-6.0617,-6.0993,-6.0993,-6.0993,-6.0993,-6.0993,-6.0993,-6.085,-6.0066,-5.9852,-5.9674,-5.889,-5.9282,-5.9995,-6.0565,-6.1492,-6.2526,-6.3738,-6.413,-6.4522,-6.5271,-6.5449,-6.5485,-6.5698,-6.5734,-6.5734,-6.5734,-6.5734,-6.5378,-6.4415,-6.4273,-6.5071,-6.7082,-6.7503,-6.7524,-6.721,-6.7503,-6.6355,-6.3547,-6.3167,-6.3061,-6.3061,-6.2882,-6.274,-6.274,-6.274,-6.274,-6.274,-6.2169,-6.192,-6.1884,-6.1278,-6.0993,-3.3976,-3.3976,-3.4093,-3.4609,-3.475,-3.4891,-3.5478,-3.5595,-3.5736,-3.6252,-3.6369,-3.651,-3.6979,-3.7073,-3.7237,-3.7857,-3.7927,-3.7927,-3.7927,-3.7927,-3.7763,-3.7144,-3.7073,-3.7073,-3.7073,-3.7073,-3.7446,-3.8092,-3.747,-3.7073,-3.7073,-3.7097,-3.712,-3.712,-3.7613,-3.7894,-3.7894,-3.8434,-3.8716,-3.8739,-3.9866,-4.0369,-4.0501,-4.1675,-4.2297,-4.2297,-4.2297,-4.2297,-4.2565,-4.6002,-4.7032,-4.7005,-5.3137,-5.561,-5.6088,-5.8982,-6.0366,-6.0993,-6.0993,-6.0993,-6.0993,-6.0993,-6.0993,-6.0993,-6.0993,-6.0993,-6.085,-6.0066,-5.9852,-5.9674,-5.889,-5.9282,-5.9852,-5.9888,-6.11,-6.2241,-6.2312,-6.2918,-6.3667,-6.4486,-6.4629,-6.4879,-6.5592,-6.5734,-6.5734,-6.5734,-6.5734,-6.5164,-6.3631,-6.3417,-6.4419,-6.7044,-6.5761,-6.542,-6.7082,-6.5761,-6.4369,-6.3417,-6.2668,-6.2276,-6.2276,-6.1528,-6.11,-6.11,-6.11,-6.11,-6.11,-6.1064,-6.1064,-6.1064,-6.1029,-6.0993,-3.3507,-3.3741,-3.3952,-3.3788,-3.4023,-3.4398,-3.4915,-3.5032,-3.5196,-3.5712,-3.583,-3.5994,-3.6487,-3.658,-3.6768,-3.7261,-3.7355,-3.7355,-3.7355,-3.7707,-3.8011,-3.7719,-3.8067,-3.834,-3.834,-3.834,-3.8464,-3.8712,-3.8464,-3.834,-3.834,-3.834,-3.8192,-3.7819,-3.8385,-3.8482,-3.8082,-3.9013,-3.9431,-3.9431,-4.0199,-4.0597,-4.0597,-4.1054,-4.1259,-4.1284,-4.2157,-4.2439,-4.2861,-4.6604,-4.8086,-4.8452,-5.4296,-5.6504,-5.6886,-5.9577,-6.0868,-6.085,-5.9852,-5.9531,-5.9531,-5.9531,-5.9531,-5.9531,-5.9531,-5.9531,-5.946,-5.9175,-5.9104,-5.9032,-5.8783,-5.8925,-5.9104,-5.9104,-5.9924,-6.0815,-6.1314,-6.2062,-6.2847,-6.3631,-6.3809,-6.388,-6.4166,-6.4201,-6.4201,-6.4201,-6.4201,-6.3809,-6.274,-6.2633,-6.3405,-6.5459,-6.6121,-6.6293,-6.5784,-6.6159,-6.5103,-6.2047,-6.1563,-6.1421,-6.1421,-6.1136,-6.0993,-6.0993,-6.0494,-6.0244,-6.0244,-6.0244,-6.0244,-6.028,-6.0779,-6.0993,-3.3275,-3.3678,-3.3826,-3.3084,-3.3342,-3.3812,-3.4164,-3.4234,-3.4422,-3.5149,-3.5527,-3.5692,-3.6091,-3.6185,-3.6522,-3.6878,-3.7067,-3.7309,-3.7456,-3.8095,-3.844,-3.844,-3.8836,-3.9084,-3.9084,-3.9207,-3.9455,-3.9455,-3.9207,-3.9084,-3.9084,-3.9084,-3.8836,-3.844,-3.8836,-3.8836,-3.844,-3.918,-3.9627,-3.9627,-3.9974,-4.073,-4.2028,-4.3356,-4.3945,-4.3972,-4.4758,-4.5178,-4.5463,-4.9074,-5.0663,-5.1048,-5.5777,-5.7565,-5.7815,-5.959,-6.0209,-6.0066,-5.9068,-5.8712,-5.8712,-5.8712,-5.8712,-5.8712,-5.8712,-5.8712,-5.8712,-5.8712,-5.8712,-5.8712,-5.8712,-5.8712,-5.8712,-5.8712,-5.9282,-5.9995,-6.0494,-6.1243,-6.2027,-6.2811,-6.2989,-6.3061,-6.331,-6.3346,-6.3346,-6.3346,-6.3346,-6.2989,-6.1955,-6.1813,-6.2571,-6.4714,-6.5648,-6.5695,-6.5035,-6.5685,-6.4679,-6.1225,-6.0993,-6.0993,-6.0993,-6.0993,-6.0993,-6.0993,-6.0494,-6.0244,-6.0244,-6.0244,-6.0102,-5.9852,-6.0351,-6.0458,-3.3406,-3.3573,-3.3774,-3.281,-3.296,-3.3337,-3.3337,-3.3313,-3.3596,-3.4631,-3.5309,-3.571,-3.5669,-3.6001,-3.6334,-3.6358,-3.6911,-3.7491,-3.8147,-3.8713,-3.9059,-3.9059,-3.9084,-3.9084,-3.9059,-3.9677,-4.0047,-4.0047,-3.9578,-3.9207,-3.9084,-3.9331,-3.9331,-3.9207,-3.9331,-3.9331,-3.9207,-3.9207,-3.9207,-3.9207,-3.9207,-4.1169,-4.4901,-4.8608,-5.0308,-5.0308,-5.0308,-5.0308,-5.0556,-5.343,-5.4567,-5.4934,-5.759,-5.8712,-5.8712,-5.864,-5.864,-5.864,-5.864,-5.864,-5.864,-5.864,-5.864,-5.864,-5.864,-5.864,-5.864,-5.864,-5.864,-5.864,-5.864,-5.864,-5.864,-5.864,-5.9211,-5.9781,-5.9817,-6.0423,-6.1207,-6.2027,-6.2169,-6.2419,-6.3167,-6.3274,-6.3274,-6.3274,-6.3274,-6.274,-6.1171,-6.0993,-6.1955,-6.4515,-6.3877,-6.3822,-6.4789,-6.3914,-6.2668,-6.1225,-6.1118,-6.0993,-6.0957,-6.0957,-6.0957,-6.0922,-6.0886,-6.0886,-6.0886,-6.0886,-6.0494,-5.9781,-5.9817,-5.9424,-3.3874,-3.3962,-3.3951,-3.3804,-3.417,-3.4561,-3.4561,-3.4133,-3.4158,-3.5228,-3.5382,-3.5406,-3.608,-3.6367,-3.6606,-3.6998,-3.7169,-3.7411,-3.753,-3.8507,-3.9221,-3.9221,-3.9942,-4.0386,-3.9976,-4.0072,-4.0348,-4.0761,-4.2329,-4.2451,-4.054,-4.4036,-4.4978,-4.2695,-4.4736,-4.4857,-4.2573,-4.3061,-4.3305,-4.3305,-4.3305,-4.4821,-4.7538,-4.8564,-4.9139,-4.9049,-4.9541,-4.9756,-5.0032,-5.3235,-5.4567,-5.4934,-5.759,-5.8712,-5.8569,-5.7428,-5.7,-5.7,-5.7,-5.7,-5.7,-5.7,-5.7,-5.7,-5.7,-5.7,-5.7,-5.7,-5.7,-5.7,-5.7,-5.7,-5.7,-5.7,-5.7571,-5.8284,-5.889,-5.9603,-6.0387,-6.1171,-6.1314,-6.1385,-6.1599,-6.1635,-6.1635,-6.1635,-6.1635,-6.1492,-6.1029,-6.0993,-6.1368,-6.208,-6.2427,-6.3242,-6.4714,-6.3402,-6.2952,-6.3851,-6.208,-6.0743,-6.0209,-6.0173,-5.9888,-5.9353,-5.8747,-5.8462,-5.8462,-5.8462,-5.8355,-5.8141,-5.8747,-5.889,-3.4411,-3.402,-3.3385,-3.3175,-3.3398,-3.3818,-3.451,-3.413,-3.4056,-3.5252,-3.5314,-3.54,-3.582,-3.6033,-3.6435,-3.6984,-3.7259,-3.7526,-3.7785,-3.8645,-3.924,-3.924,-3.9883,-4.0537,-4.1267,-4.1332,-4.1933,-4.3589,-4.5058,-4.5413,-4.4251,-4.7028,-4.7748,-4.5945,-4.7628,-4.7748,-4.5945,-4.6306,-4.6427,-4.6427,-4.6427,-4.7748,-5.025,-5.025,-5.0842,-5.1819,-5.2246,-5.2443,-5.2596,-5.4581,-5.5383,-5.5503,-5.7085,-5.7713,-5.7606,-5.668,-5.6323,-5.6323,-5.6323,-5.6323,-5.6323,-5.6323,-5.6323,-5.6323,-5.6323,-5.6323,-5.6323,-5.6323,-5.6323,-5.6323,-5.6323,-5.6323,-5.6323,-5.6323,-5.6929,-5.7606,-5.8106,-5.9068,-5.9995,-6.0423,-6.0779,-6.0993,-6.0993,-6.0993,-6.0886,-6.0565,-6.0244,-6.003,-6.003,-6.0316,-6.053,-6.053,-6.1795,-6.3456,-6.51,-6.3846,-6.3258,-6.3737,-6.1467,-5.9852,-5.9389,-5.9389,-5.9175,-5.8712,-5.8248,-5.7999,-5.7999,-5.7999,-5.782,-5.7617,-5.7963,-5.8593,-3.4897,-3.3879,-3.2444,-3.2018,-3.1967,-3.2415,0.0,-3.3752,-3.3677,-3.4719,-3.5358,-3.5578,-3.5052,-3.5408,-3.5941,-3.6637,-3.712,-3.7591,-3.8269,-3.8877,-3.9215,-3.9488,-3.9254,-4.0191,-4.2778,-4.2778,-4.3964,-4.7003,-4.7531,-4.7926,-4.8307,-4.9025,-4.9175,-4.8937,-4.9269,-4.93,-4.9062,-4.9062,-4.9062,-4.9062,-4.9062,-5.0369,-5.2878,-5.2878,-5.4198,-5.6323,-5.6323,-5.6323,-5.6323,-5.6323,-5.6323,-5.6323,-5.6323,-5.6323,-5.6323,-5.6323,-5.6323,-5.6323,-5.6323,-5.6323,-5.6323,-5.6323,-5.6323,-5.6323,-5.6323,-5.6323,-5.6323,-5.6323,-5.6323,-5.6323,-5.6323,-5.6323,-5.6323,-5.6323,-5.6858,-5.751,-5.7464,-5.8676,-5.9745,-5.9817,-6.0458,-6.0993,-6.0993,-6.0922,-6.0601,-5.9852,-5.9139,-5.8712,-5.8712,-5.9282,-5.9832,-6.0199,-6.2071,-6.4008,-6.5764,-6.5075,-6.413,-6.3318,-6.0995,-5.96,-5.9492,-5.9372,-5.9216,-5.8786,-5.8786,-5.8666,-5.8426,-5.8426,-5.807,-5.7475,-5.771,-5.86,0.0,0.0,0.0,0.0,0.0,0.0,0.0,-3.4126,-3.4229,-3.4844,-3.5079,-3.5079,-3.4972,-3.5465,-3.6063,-3.663,-3.6811,-3.7155,-3.7734,-3.8306,-3.9152,-4.0686,-3.919,-3.9833,-4.4563,-4.3264,-4.3298,-4.6215,-4.8453,-4.8745,-4.6806,-5.1327,-5.2927,-5.09,-5.3391,-5.3814,-5.1787,-5.1669,-5.1669,-5.1669,-5.1669,-5.3112,-5.5629,-5.5629,-5.586,-5.6323,-5.6323,-5.6323,-5.6323,-5.6323,-5.6323,-5.6323,-5.6323,-5.6323,-5.6323,-5.6323,-5.6323,-5.6323,-5.6323,-5.6323,-5.6323,-5.6323,-5.6323,-5.6323,-5.6323,-5.6323,-5.6323,-5.6323,-5.6323,-5.6323,-5.6323,-5.6323,-5.6323,-5.6323,-5.6466,-5.6751,-5.7357,-5.8248,-5.9104,-5.971,-6.0458,-6.0993,-6.0993,-6.0494,-5.9817,-5.9032,-5.8783,-5.8712,-5.8712,-5.8854,-5.9818,-6.2094,-6.2804,-6.4215,-6.6908,-6.6916,-6.7645,-6.9452,-6.672,-6.4827,-6.4187,-6.3656,-6.2199,-5.9755,-5.9603,-5.872,-5.6787,-5.6787,-5.6715,-5.6689,-5.8577,-5.9862,0.0,0.0,0.0,0.0,0.0,0.0,0.0,0.0,0.0,0.0,0.0,-3.6458,-3.7872,0.0,-3.892,-3.9437,-3.9187,-3.8939,-3.8829,-3.8472,-3.9169,-4.2048,-4.1733,-4.2717,-4.6444,-4.5815,-4.6319,-4.9395,-5.0796,-5.1077,-5.0183,-5.2985,-5.398,-5.2673,-5.4369,-5.458,-5.3294,-5.3294,-5.3294,-5.3294,-5.3673,-5.4571,-5.5788,-5.6181,-5.6323,-5.6323,-5.6323,-5.6323,-5.6323,-5.6323,-5.6323,-5.6252,-5.5468,-5.5147,-5.5147,-5.5147,-5.5147,-5.5147,-5.5147,-5.5147,-5.5147,-5.5147,-5.5147,-5.5147,-5.5147,-5.5147,-5.5147,-5.5147,-5.5147,-5.5147,-5.5147,-5.5147,-5.5147,-5.5147,-5.5147,-5.5367,-5.576,-5.668,-5.7642,-5.8034,-5.9032,-5.9852,-5.9852,-5.9175,-5.8773,-5.8974,-5.8459,-5.8088,-5.8324,-5.979,-6.1453,-6.3436,-6.5759,-6.7822,-6.9635,-7.0214,-7.0555,-7.0447,-6.7612,-6.5735,-6.5283,-6.495,-6.3878,-6.1781,-6.0714,-5.9186,-5.7099,-5.6126,-5.5486,-5.526,-5.8329,-5.9894,0.0,0.0,0.0,0.0,0.0,0.0,0.0,0.0,0.0,0.0,0.0,0.0,0.0,0.0,0.0,-4.1919,-4.1566,-4.1131,-4.059,-3.9381,-3.9988,-4.3777,-4.4318,-4.5623,-4.8595,-4.8488,-4.9404,-5.2437,-5.2616,-5.2865,-5.3617,-5.3795,-5.3867,-5.3867,-5.401,-5.4081,-5.4081,-5.4081,-5.4081,-5.4081,-5.4648,0.0,-5.4969,-5.561,-5.5895,-5.5895,-5.5895,-5.5895,-5.5895,-5.5895,-5.5895,-5.5753,-5.4469,-5.4081,-5.4081,-5.4081,-5.4081,-5.4081,-5.4081,-5.4081,-5.4081,-5.4081,-5.4081,-5.4081,-5.4081,-5.4081,0.0,-5.4081,-5.4081,-5.4081,-5.4081,-5.4081,-5.4081,-5.4081,-5.4081,-5.4081,-5.4081,-5.5218,-5.6323,-5.6323,-5.7606,-5.8712,-5.8832,-5.814,-5.8006,-5.9548,-5.8766,-5.8358,-5.9569,-6.1809,-6.3835,-6.5197,-6.8677,-7.1388,-7.2376,-7.3446,-7.2994,-7.0534,-6.834,-6.7063,-6.6955,-6.6677,-6.5672,-6.3951,-6.2098,-5.9874,-5.7208,-5.5548,-5.4455,-5.4019,-5.8313,-6.0259,0.0,0.0,0.0,0.0,0.0,0.0,0.0,0.0,0.0,0.0,0.0,0.0,0.0,0.0,0.0,0.0,-4.0938,-4.1609,-4.2023,-4.1965,-4.3052,-4.6197,-4.4844,-4.5696,-5.084,-4.9488,-4.92,-5.169,-5.1796,-5.1867,-5.1939,-5.258,0.0,0.0,0.0,-5.4081,-5.4081,-5.4081,-5.4081,-5.4081,-5.4188,-5.4224,-5.4224,-5.4295,-5.4367,-5.4367,-5.4367,-5.4367,-5.4367,-5.4367,-5.4367,-5.4331,-5.4153,-5.4081,-5.4081,-5.4081,-5.4081,-5.4081,-5.4081,0.0,0.0,-5.4081,-5.4081,-5.4081,-5.4081,-5.4081,-5.4081,-5.4081,-5.4081,-5.4081,-5.4081,-5.4081,-5.4081,-5.4081,-5.4081,-5.4081,-5.4081,-5.5218,-5.6323,-5.6323,-5.7606,-5.8952,-5.9517,-5.8173,-5.8141,-6.1263,-6.0753,-6.1529,-6.5236,-6.516,-6.5889,-6.8728,-6.9523,0.0,-7.3415,-7.4623,-7.4669,-7.3449,-7.3971,-7.4057,-7.3632,-7.2085,-6.9385,-6.5338,-6.4117,-6.0638,-5.4844,-5.4629,-5.4047,-5.3456,-5.9699,-6.2639,0.0,0.0,0.0,0.0,0.0,0.0,0.0,0.0,0.0,0.0,0.0,0.0,0.0,0.0,0.0,0.0,-4.3313,-4.3668,-4.4597,-4.5303,-4.6281,-4.7535,-4.7198,-4.7813,-5.016,-4.9857,-4.9997,-5.0976,-5.1404,-5.1689,-5.1689,-5.1974,-5.2152,-5.2152,-5.2473,-5.2651,-5.2651,-5.2651,-5.2651,-5.2651,-5.3079,-5.3293,-5.3329,-5.3867,-5.4081,-5.4081,-5.4081,-5.4081,-5.4081,-5.4081,-5.4081,-5.3974,0.0,0.0,0.0,0.0,-5.2651,-5.2651,-5.2651,-5.2651,-5.2651,-5.2651,-5.2651,-5.2651,-5.2651,-5.2651,-5.2651,-5.2651,-5.2832,-5.3155,-5.3155,-5.3155,-5.3155,-5.3155,-5.3155,-5.3155,-5.3155,-5.4238,-5.54,-5.5872,-5.6888,0.0,-5.9493,-5.8768,-5.9407,-6.3359,-6.3304,-6.3725,-6.6468,-6.7606,-6.8856,-7.0759,-7.213,-7.3445,-7.4692,-7.5171,0.0,0.0,0.0,-7.3525,-7.3319,-7.199,0.0,0.0,0.0,-6.2517,-5.8968,-5.8283,0.0,0.0,-5.9386,-6.0633,0.0,0.0,0.0,0.0,0.0,0.0,0.0,0.0,0.0,0.0,0.0,0.0,0.0,0.0,0.0,0.0,-4.5267,-4.5434,-4.6226,-4.7331,-4.798,-4.8195,-4.8815,-4.9353,-4.9604,-5.004,-5.0259,-5.0259,-5.0795,-5.1047,-5.1047,-5.1226,-5.1332,-5.1332,-5.1546,-5.1689,-5.1689,-5.1689,-5.1689,-5.1689,-5.2259,-5.2509,-5.2545,-5.3188,-5.3329,-5.3329,-5.3329,-5.3329,-5.3329,-5.3329,-5.3329,-5.3222,-5.2117,-5.1652,-5.1579,-5.1438,-5.1436,-5.143,-5.143,-5.143,-5.143,-5.143,-5.1574,-5.1789,-5.1789,-5.1933,-5.2077,-5.2077,-5.2394,-5.2674,-5.2674,-5.2674,-5.2674,-5.2674,-5.2674,-5.2674,-5.2674,-5.3611,-5.4559,-5.5255,-5.6649,-5.8258,-6.0094,-6.0225,-6.1434,-6.5726,-6.5831,-6.6322,-6.89,-7.0456,-7.1542,-7.2372,-7.4038,-7.503,-7.503,-7.5264,-7.489,-7.3488,-7.2974,-7.2459,-7.1898,-7.115,-6.9935,-6.8063,-6.5779,-6.3564,0.0,0.0,0.0,0.0,0.0,0.0,0.0,0.0,0.0,0.0,0.0,0.0,0.0,0.0,0.0,0.0,0.0,0.0,0.0,0.0,0.0,0.0,0.0,0.0,-4.6091,-4.677,-4.7541,-4.8313,-4.8599,-4.9103,-5.0035,-4.964,-4.9437,-4.9437,-4.9473,-4.9509,-4.9509,-5.0188,-5.0616,-5.0616,-5.1261,-5.1689,-5.1689,-5.1689,-5.1689,-5.1689,-5.1689,-5.1725,-5.1725,-5.176,-5.176,-5.176,-5.176,-5.176,-5.176,-5.176,-5.176,-5.176,-5.1689,-5.1505,-5.1237,-5.072,-5.0628,-5.0784,-5.0784,-5.0784,-5.0784,-5.0784,-5.1334,-5.206,-5.206,-5.2611,-5.3236,-5.3236,-5.3199,-5.3199,-5.3199,-5.3199,-5.3199,-5.3199,-5.3199,-5.3199,-5.3199,-5.3824,-5.4412,-5.4412,-5.718,-6.007,-6.2188,-6.2494,-6.4007,-6.8392,-6.821,0.0,-7.4459,-7.4365,-7.3759,-7.3759,-7.3862,-7.3862,-7.3862,-7.4843,-7.4563,-7.2459,-7.3254,-7.288,-7.087,-7.0776,-7.0262,-6.9187,-6.6142,-6.308,-6.0148,0.0,0.0,0.0,0.0,0.0,0.0,0.0,0.0,0.0,0.0,0.0,0.0,0.0,0.0,0.0,0.0,0.0,0.0,0.0,0.0,0.0,0.0,0.0,0.0,-4.627,-4.71,-4.6843,-4.7411,-4.7719,-4.7463,-4.8186,-4.8708,-4.8708,-4.9691,-5.0309,-5.0309,-5.0564,-5.0709,-5.0709,-5.0898,-5.1043,-5.1043,-5.1655,-5.1946,-5.1946,-5.2455,-5.271,-5.271,-5.2394,-5.2394,-5.271,-5.1971,-5.1865,-5.2182,-5.1901,-5.1466,-5.1043,-5.1043,-5.0964,-5.0985,-5.143,-5.1533,-5.1693,-5.2207,-5.2391,-5.2391,-5.2391,-5.2611,-5.2936,-5.2936,-5.3015,-5.3199,-5.3199,-5.3618,-5.3932,-5.3932,-5.3932,-5.3932,-5.3932,-5.3932,-5.3932,-5.3932,-5.4366,-5.5439,-5.7408,-5.8852,-6.0816,-6.4352,-6.4344,-6.5302,-6.9622,-6.9369,-6.9798,-7.2965,-7.302,-7.3067,-7.3768,-7.3815,-7.3535,-7.288,-7.3161,-7.2787,-7.1384,-7.0309,-6.9467,-6.8766,-6.797,-6.727,-6.6242,-6.5777,-6.4754,-6.3194,0.0,0.0,0.0,0.0,0.0,0.0,0.0,0.0,0.0,0.0,0.0,0.0,0.0,0.0,0.0,0.0,0.0,0.0,0.0,0.0,0.0,0.0,0.0,0.0,0.0,0.0,-4.7116,-4.7342,0.0,-4.7157,-4.7471,-4.7651,-4.7945,-4.8643,-4.9231,-4.9488,-4.9782,-5.0076,-5.0333,-5.0564,-5.0711,-5.0711,-5.1325,-5.1583,-5.1583,-5.2097,-5.2354,-5.2354,-5.2044,-5.2044,-5.2354,-5.1666,-5.1526,-5.1837,-5.1458,-5.0971,-5.037,-5.037,-5.0003,-4.9794,-5.0543,-5.0853,-5.1003,-5.1619,-5.1915,-5.2118,-5.2118,-5.2811,-5.3645,-5.3645,-5.3645,-5.3683,-5.3987,-5.367,-5.3213,-5.3514,-5.4165,-5.4675,-5.4675,-5.4675,-5.4878,-5.5549,-5.5385,-5.6149,-5.9493,-6.0294,-6.1731,-6.5683,-6.5795,-6.6547,-6.9986,-6.9849,-7.0036,-7.1524,-7.1758,-7.1992,-7.2646,-7.274,-7.2459,-7.1805,-7.1758,-7.115,-6.9748,-6.8343,-6.7456,-6.7083,-6.6103,-6.5258,-6.4406,-6.4883,-6.4509,0.0,0.0,0.0,0.0,0.0,0.0,0.0,0.0,0.0,0.0,0.0,0.0,0.0,0.0,0.0,0.0,0.0,0.0,0.0,0.0,0.0,0.0,0.0,0.0,0.0,0.0,0.0,-4.8574,-4.8099,0.0,0.0,0.0,0.0,-4.7156,-4.6567,-4.6457,-4.7193,-4.7929,-4.8703,-4.9512,-5.0223,-5.0627,-5.0627,-5.0664,-5.0664,-5.0627,-5.0664,-5.0701,-5.0701,-5.0701,-5.0701,-5.0701,-5.0637,-5.0637,-5.0738,-5.0764,-5.0285,-4.9586,-4.9647,-4.9011,-4.8159,-4.8471,-4.8814,-4.9177,-4.9396,-4.9698,-5.0209,-5.0247,-5.2075,-5.4361,-5.4496,-5.4496,0.0,0.0,-5.3615,-5.1773,-5.2575,-5.4105,-5.5528,-5.5568,-5.5568,-5.6052,-5.793,-5.6878,-5.6782,-6.0805,-6.1547,-6.2737,-6.6331,0.0,-6.7594,-6.9626,-6.9957,-7.0095,-7.0594,-7.0636,-7.073,-7.0776,-7.0776,-7.0828,-7.0782,-7.0735,-6.9845,-6.7738,-6.7598,-6.7083,-6.6055,-6.512,-6.4406,-6.3677,-6.3415,0.0,0.0,0.0,0.0,0.0,0.0,0.0,0.0,0.0,0.0,0.0,0.0,0.0,0.0,0.0,0.0,0.0,0.0,0.0,0.0,0.0,0.0,0.0,0.0,0.0,0.0,-4.4511,-4.5027,-4.5027,-4.5424,-4.5791,0.0,0.0,0.0,0.0,0.0,0.0,-4.7384,-4.7534,-4.8115,-4.8944,-4.9208,-4.9321,-4.9321,-4.9866,-4.9866,-4.9321,-4.9866,-5.0167,-5.0167,-4.9783,-4.9783,-5.0108,-4.9929,-5.0089,-5.0468,-5.1003,-5.0639,-4.9886,-5.0571,-5.1156,-5.1537,-5.1588,-5.2527,-5.3637,-5.294,-5.2689,-5.2997,-5.3725,-5.4467,-5.556,-5.776,0.0,0.0,0.0,0.0,-5.5577,-5.6576,-5.6574,-5.662,-5.7382,-5.7549,-5.7739,-5.8215,-5.793,-5.8666,-6.2417,-6.3217,-6.4278,-6.8011,-6.8005,0.0,-6.9151,-6.9059,-6.887,-6.9058,-6.9718,-7.0519,-7.1274,-7.1662,-7.1573,-7.0767,-7.0007,-6.9011,-6.7682,-6.6601,-6.5432,-6.4397,-6.4114,-6.3543,-6.2592,0.0,0.0,0.0,0.0,0.0,0.0,0.0,0.0,0.0,0.0,0.0,0.0,0.0,0.0,0.0,0.0,0.0,0.0,0.0,0.0,0.0,0.0,0.0,0.0,0.0,0.0,0.0,-4.4867,-4.6151,-4.6151,-4.6512,-4.7036,0.0,0.0,0.0,0.0,0.0,0.0,0.0,0.0,0.0,-4.9369,-4.9408,-4.8957,-4.8178,-4.9014,-4.9203,-4.884,-4.9621,-4.9944,-4.9944,-4.9622,-4.966,-4.9944,-4.9825,-5.0039,-5.0587,-5.2237,-5.2344,-5.1615,0.0,0.0,0.0,0.0,-5.3206,-5.3572,-5.2873,-5.2344,-5.2091,-5.3169,0.0,0.0,0.0,0.0,0.0,0.0,0.0,-5.5401,-5.6332,-5.7051,-5.7732,-5.8342,-5.8472,-5.8748,-5.957,-5.8958,-5.908,-6.209,-6.2698,-6.3639,-6.6888,-6.7506,0.0,0.0,0.0,-6.8487,-6.7489,-6.8299,-6.92,-6.977,-7.0102,-7.0053,-6.9386,-6.8476,-6.7425,-6.6373,-6.5486,-6.4805,-6.4393,-6.4345,-6.4042,0.0,0.0,0.0,0.0,0.0,0.0,0.0,0.0,0.0,0.0,0.0,0.0,0.0,0.0,0.0,0.0,0.0,0.0,0.0,0.0,0.0,0.0,0.0,0.0,0.0,0.0,0.0,0.0,0.0,-4.8556,-4.853,0.0,0.0,0.0,0.0,0.0,0.0,0.0,0.0,0.0,0.0,0.0,0.0,0.0,-4.9585,-4.8157,-4.8892,-4.937,-4.937,-4.9937,-5.0154,-5.0154,-5.0154,-5.0045,-4.9881,-5.0276,0.0,-5.0706,-5.3415,0.0,0.0,0.0,0.0,0.0,0.0,0.0,0.0,0.0,0.0,0.0,0.0,0.0,0.0,0.0,0.0,0.0,0.0,0.0,0.0,0.0,0.0,-5.8722,-5.8452,-5.8587,-5.9288,-6.1337,-5.9789,-5.8807,-6.1032,-6.1287,-6.2126,0.0,0.0,0.0,0.0,0.0,0.0,-6.6555,-6.6983,-6.7606,-6.7787,-6.7697,-6.7787,-6.8239,-6.7094,-6.5993,-6.5078,-6.5203,-6.522,-6.498,-6.5161,0.0,0.0,0.0,0.0,0.0,0.0,0.0,0.0,0.0,0.0,0.0,0.0,0.0,0.0,0.0,0.0,0.0,0.0,0.0,0.0,0.0,0.0,0.0,0.0,0.0,0.0,0.0,0.0,0.0,0.0,0.0,0.0,0.0,0.0,0.0,0.0,0.0,0.0,0.0,0.0,0.0,0.0,0.0,0.0,0.0,0.0,0.0,0.0,0.0,0.0,-5.1586,-5.1247,-5.1247,-5.1247,-5.0584,-4.9653,-5.2041,-5.1791,-4.9647,-5.169,0.0,0.0,0.0,0.0,0.0,0.0,0.0,0.0,0.0,0.0,0.0,0.0,0.0,0.0,0.0,0.0,0.0,0.0,0.0,0.0,0.0,0.0,-5.8657,-5.7241,-5.7975,-5.9613,-6.1753,0.0,0.0,0.0,0.0,0.0,0.0,0.0,0.0,0.0,0.0,0.0,-6.755,-6.7062,-6.7344,-6.8734,-6.8048,-6.8572,-7.1386,-6.9437,-6.789,-6.7823,-6.8636,-6.7799,0.0,0.0,0.0,0.0,0.0,0.0,0.0,0.0,0.0,0.0,0.0,0.0,0.0,0.0,0.0,0.0,0.0,0.0,0.0,0.0,0.0,0.0,0.0,0.0,0.0,0.0,0.0,0.0,0.0,0.0,0.0,0.0,0.0,0.0,0.0,0.0,0.0,0.0,0.0,0.0,0.0,0.0,0.0,0.0,0.0,0.0,0.0,0.0,0.0,0.0,0.0,0.0,0.0,0.0,0.0,0.0,0.0,0.0,-5.3258,-5.3002,0.0,0.0,0.0,0.0,0.0,0.0,0.0,0.0,0.0,0.0,0.0,0.0,0.0,0.0,0.0,0.0,0.0,0.0,0.0,0.0,0.0,0.0,0.0,0.0,0.0,0.0,0.0,0.0,0.0,0.0,0.0,0.0,0.0,0.0,0.0,0.0,0.0,0.0,0.0,0.0,-6.7726,-6.8349,-6.9251,-7.0035,-6.9586,-6.992,-7.1568,-6.9982,-6.8903,-6.9144,-6.9047,0.0,0.0,0.0,0.0,0.0,0.0,0.0,0.0,0.0,0.0,0.0,0.0,0.0,0.0,0.0,0.0,0.0,0.0,0.0,0.0,0.0,0.0,0.0,0.0,0.0,0.0,0.0,0.0,0.0,0.0,0.0,0.0,0.0,0.0,0.0,0.0,0.0,0.0,0.0,0.0,0.0,0.0,0.0,0.0,0.0,0.0,0.0,0.0,0.0,0.0,0.0,0.0,0.0,0.0,0.0,0.0,0.0,0.0,0.0,-5.325,-5.2849,0.0,0.0,0.0,0.0,0.0,0.0,0.0,0.0,0.0,0.0,0.0,0.0,0.0,0.0,0.0,0.0,0.0,0.0,0.0,0.0,0.0,0.0,0.0,0.0,0.0,0.0,0.0,0.0,0.0,0.0,0.0,0.0,0.0,0.0,0.0,0.0,0.0,0.0,0.0,0.0,-6.7857,-6.9412,-7.076,-7.1078,-7.084,-7.0999,-7.1632,-7.0567,-6.9874,-6.9891,-6.9338,0.0,0.0,0.0,0.0,0.0,0.0,0.0,0.0,0.0,0.0,0.0,0.0,0.0,0.0,0.0,0.0,0.0,0.0,0.0,0.0,0.0,0.0,0.0,0.0,0.0,0.0,0.0,0.0,0.0,0.0,0.0,0.0,0.0,0.0,0.0,0.0,0.0,0.0,0.0,0.0,0.0,0.0,0.0,0.0,0.0,0.0,0.0,0.0,0.0,0.0,0.0,0.0,0.0,0.0,0.0,0.0,0.0,0.0,0.0,0.0,0.0,0.0,0.0,0.0,0.0,0.0,0.0,0.0,0.0,0.0,0.0,0.0,0.0,0.0,0.0,0.0,0.0,0.0,0.0,0.0,0.0,0.0,0.0,0.0,0.0,0.0,0.0,0.0,0.0,0.0,0.0,0.0,0.0,0.0,0.0,0.0,0.0,0.0,0.0,0.0,0.0,-6.8693,-6.8981,-6.9961,-7.1479,-7.0581,-7.0966,-7.3711,-7.2802,-7.1524,-7.0354,0.0,0.0,0.0,0.0,0.0,0.0,0.0,0.0,0.0,0.0,0.0,0.0,0.0,0.0,0.0,0.0,0.0,0.0,0.0,0.0,0.0,0.0,0.0,0.0,0.0,0.0,0.0,0.0,0.0,0.0,0.0,0.0,0.0,0.0,0.0,0.0,0.0,0.0,0.0,0.0,0.0,0.0,0.0,0.0,0.0,0.0,0.0,0.0,0.0,0.0,0.0,0.0,0.0,0.0,0.0,0.0,0.0,0.0,0.0,0.0,0.0,0.0,0.0,0.0,0.0,0.0,0.0,0.0,0.0,0.0,0.0,0.0,0.0,0.0,0.0,0.0,0.0,0.0,0.0,0.0,0.0,0.0,0.0,0.0,0.0,0.0,0.0,0.0,0.0,0.0,0.0,0.0,0.0,0.0,0.0,0.0,0.0,0.0,0.0,0.0,0.0,0.0,-6.9326,-7.1243,-7.2896,-7.3837,-7.3487,-7.3634,-7.4912,-7.4494,-7.4014,-7.3814,0.0,0.0,0.0,0.0,0.0,0.0,0.0,0.0,0.0,0.0,0.0,0.0,0.0,0.0,0.0,0.0,0.0,0.0,0.0,0.0,0.0,0.0,0.0,0.0,0.0,0.0,0.0,0.0,0.0,0.0,0.0,0.0,0.0,0.0,0.0,0.0,0.0,0.0,0.0,0.0,0.0,0.0,0.0,0.0,0.0,0.0,0.0,0.0,0.0,0.0,0.0,0.0,0.0,0.0,0.0,0.0,0.0,0.0,0.0,0.0,0.0,0.0,0.0,0.0,0.0,0.0,0.0,0.0,0.0,0.0,0.0,0.0,0.0,0.0,0.0,0.0,0.0,0.0,0.0,0.0,0.0,0.0,0.0,0.0,0.0,0.0,0.0,0.0,0.0,0.0,0.0,0.0,0.0,0.0,0.0,0.0,0.0,0.0,0.0,0.0,0.0,0.0,-6.9414,-7.2628,-7.5128,-7.5415,-7.5558,-7.5385,-7.4899,-7.4913,-7.4818,-7.4253,0.0,0.0,0.0,0.0,0.0,0.0,0.0,0.0,0.0,0.0,0.0,0.0,0.0,0.0,0.0,0.0,0.0,0.0,0.0,0.0,0.0,0.0,0.0,0.0,0.0,0.0,0.0,0.0,0.0,0.0,0.0,0.0,0.0,0.0,0.0,0.0,0.0,0.0,0.0,0.0,0.0,0.0,0.0,0.0,0.0,0.0,0.0,0.0,0.0,0.0,0.0,0.0,0.0,0.0,0.0,0.0,0.0,0.0,0.0,0.0,0.0,0.0,0.0,0.0,0.0,0.0,0.0,0.0,0.0,0.0,0.0,0.0,0.0,0.0,0.0,0.0,0.0,0.0,0.0,0.0,0.0,0.0,0.0,0.0,0.0,0.0,0.0,0.0,0.0,0.0,0.0,0.0,0.0,0.0,0.0,0.0,0.0,0.0,0.0,0.0,0.0,0.0,-6.8587,-7.2526,-7.5415,-7.5415,-7.5771,-7.5324,-7.3638,-7.3859,-7.2932,0.0,0.0,0.0,0.0,0.0,0.0,0.0,0.0,0.0,0.0,0.0,0.0,0.0,0.0,0.0,0.0,0.0,0.0,0.0,0.0,0.0,0.0,0.0,0.0,0.0,0.0,0.0,0.0,0.0,0.0,0.0,0.0,0.0,0.0,0.0,0.0,0.0,0.0,0.0,0.0,0.0,0.0,0.0,0.0,0.0,0.0,0.0,0.0,0.0,0.0,0.0,0.0,0.0,0.0,0.0,0.0,0.0,0.0,0.0,0.0,0.0,0.0,0.0,0.0,0.0,0.0,0.0,0.0,0.0,0.0,0.0,0.0,0.0,0.0,0.0,0.0,0.0,0.0,0.0,0.0,0.0,0.0,0.0,0.0,0.0,0.0,0.0,0.0,0.0,0.0,0.0,0.0,0.0,0.0,0.0,0.0,0.0,0.0,0.0,0.0,0.0,0.0,0.0,-6.9813,-7.3274,-7.5865,-7.6163,-7.6422,-7.592,-7.4412,-7.4418,-7.3278,-7.0412,0.0,0.0,0.0,0.0,0.0,0.0,0.0,0.0,0.0,0.0,0.0,0.0,0.0,0.0,0.0,0.0,0.0,0.0,0.0,0.0,0.0,0.0,0.0,0.0,0.0,0.0,0.0,0.0,0.0,0.0,0.0,0.0,0.0,0.0,0.0,0.0,0.0,0.0,0.0,0.0,0.0,0.0,0.0,0.0,0.0,0.0,0.0,0.0,0.0,0.0,0.0,0.0,0.0,0.0,0.0,0.0,0.0,0.0,0.0,0.0,0.0,0.0,0.0,0.0,0.0,0.0,0.0,0.0,0.0,0.0,0.0,0.0,0.0,0.0,0.0,0.0,0.0,0.0,0.0,0.0,0.0,0.0,0.0,0.0,0.0,0.0,0.0,0.0,0.0,0.0,0.0,0.0,0.0,0.0,0.0,0.0,0.0,0.0,0.0,0.0,0.0,0.0,0.0,-7.2637,-7.495,-7.5735,-7.5878,-7.5621,-7.4756,-7.4624,-7.3192,-6.9791,0.0,0.0,0.0,0.0,0.0,0.0,0.0,0.0,0.0,0.0,0.0,0.0,0.0,0.0,0.0,0.0,0.0,0.0,0.0,0.0,0.0,0.0,0.0,0.0,0.0,0.0,0.0,0.0,0.0,0.0,0.0,0.0,0.0,0.0,0.0,0.0,0.0,0.0,0.0,0.0,0.0,0.0,0.0,0.0,0.0,0.0,0.0,0.0,0.0,0.0,0.0,0.0,0.0,0.0,0.0,0.0,0.0,0.0,0.0,0.0,0.0,0.0,0.0,0.0,0.0,0.0,0.0,0.0,0.0,0.0,0.0,0.0,0.0,0.0,0.0,0.0,0.0,0.0,0.0,0.0,0.0,0.0,0.0,0.0,0.0,0.0,0.0,0.0,0.0,0.0,0.0,0.0,0.0,0.0,0.0,0.0,0.0,0.0,0.0,0.0,0.0,0.0,0.0,-7.1288,-7.3461,-7.467,-7.4741,-7.4702,-7.4643,-7.4637,-7.281,-6.8577,-6.9675,0.0,0.0,0.0,0.0,0.0,0.0,0.0,0.0,0.0,0.0,0.0,0.0,0.0,0.0,0.0,0.0,0.0,0.0,0.0,0.0,0.0,0.0,0.0,0.0,0.0,0.0,0.0,0.0,0.0,0.0,0.0,0.0,0.0,0.0,0.0,0.0,0.0,0.0,0.0,0.0,0.0,0.0,0.0,0.0,0.0,0.0,0.0,0.0,0.0,0.0,0.0,0.0,0.0,0.0,0.0,0.0,0.0,0.0,0.0,0.0,0.0,0.0,0.0,0.0,0.0,0.0,0.0,0.0,0.0,0.0,0.0,0.0,0.0,0.0,0.0,0.0,0.0,0.0,0.0,0.0,0.0,0.0,0.0,0.0,0.0,0.0,0.0,0.0,0.0,0.0,0.0,0.0,0.0,0.0,0.0,0.0,0.0,0.0,0.0,0.0,0.0,0.0,-7.3898,-7.5667,-7.5931,-7.6101,-7.5713,-7.476,-7.4525,-7.225,-6.7126,-6.9018,0.0,0.0,0.0,0.0,0.0,0.0,0.0,0.0,0.0,0.0,0.0,0.0,0.0,0.0,0.0,0.0,0.0,0.0,0.0,0.0,0.0,0.0,0.0,0.0,0.0,0.0,0.0,0.0,0.0,0.0,0.0,0.0,0.0,0.0,0.0,0.0,0.0,0.0,0.0,0.0,0.0,0.0,0.0,0.0,0.0,0.0,0.0,0.0,0.0,0.0,0.0,0.0,0.0,0.0,0.0,0.0,0.0,0.0,0.0,0.0,0.0,0.0,0.0,0.0,0.0,0.0,0.0,0.0,0.0,0.0,0.0,0.0,0.0,0.0,0.0,0.0,0.0,0.0,0.0,0.0,0.0,0.0,0.0,0.0,0.0,0.0,0.0,0.0,0.0,0.0,0.0,0.0,0.0,0.0,0.0,0.0,0.0,0.0,0.0,0.0,0.0,0.0,-7.2688,-7.4029,-7.539,-7.5643,-7.5714,-7.5498,-7.552,-7.3185,-6.7596,-6.9095,0.0,0.0,0.0,0.0,0.0,0.0,0.0,0.0,0.0,0.0,0.0,0.0,0.0,0.0,0.0,0.0,0.0,0.0,0.0,0.0,0.0,0.0,0.0,0.0,0.0,0.0,0.0,0.0,0.0,0.0,0.0,0.0,0.0,0.0,0.0,0.0,0.0,0.0,0.0,0.0,0.0,0.0,0.0,0.0,0.0,0.0,0.0,0.0,0.0,0.0,0.0,0.0,0.0,0.0,0.0,0.0,0.0,0.0,0.0,0.0,0.0,0.0,0.0,0.0,0.0,0.0,0.0,0.0,0.0,0.0,0.0,0.0,0.0,0.0,0.0,0.0,0.0,0.0,0.0,0.0,0.0,0.0,0.0,0.0,0.0,0.0,0.0,0.0,0.0,0.0,0.0,0.0,0.0,0.0,0.0,0.0,0.0,0.0,0.0,0.0,0.0,0.0,0.0,-7.1564,-7.4228,-7.4886,-7.5495,-7.641,-7.6733,-7.4473,-6.8835,0.0,0.0,0.0,0.0,0.0,0.0,0.0,0.0,0.0,0.0,0.0,0.0,0.0,0.0,0.0,0.0,0.0,0.0,0.0,0.0,0.0,0.0,0.0,0.0,0.0,0.0,0.0,0.0,0.0,0.0,0.0,0.0,0.0,0.0,0.0,0.0,0.0,0.0,0.0,0.0,0.0,0.0,0.0,0.0,0.0,0.0,0.0,0.0,0.0,0.0,0.0,0.0,0.0,0.0,0.0,0.0,0.0,0.0,0.0,0.0,0.0,0.0,0.0,0.0,0.0,0.0,0.0,0.0,0.0,0.0,0.0,0.0,0.0,0.0,0.0,0.0,0.0,0.0,0.0,0.0,0.0,0.0,0.0,0.0,0.0,0.0,0.0,0.0,0.0,0.0,0.0,0.0,0.0,0.0,0.0,0.0,0.0,0.0,0.0,0.0,0.0,0.0,0.0,0.0,-7.2898,-7.4439,-7.5752,-7.6617,-7.7025,-7.7076,-7.4702,-6.9085,0.0,0.0,0.0,0.0,0.0,0.0,0.0,0.0,0.0,0.0,0.0,0.0,0.0,0.0]}],[{"header":{"parameterUnit":"kt","parameterCategory":2,"dx":1,"dy":1,"la1":29.285339999999998,"la2":30.599998999999997,"lo1":-89.70041500000002,"lo2":-87.6738589999976,"nx":112,"ny":82,"refTime":"2022-10-07T00:00:00:Z","depth":0,"parameterNumber":2,"parameterNumberName":"V-component_of_WINDS"},"data":[12.9365,12.8917,12.8692,12.7571,12.8543,12.9066,12.63,12.3981,12.2112,12.1065,11.6354,11.2914,0.0,0.0,0.0,0.0,0.0,0.0,0.0,11.3678,0.0,0.0,0.0,0.0,0.0,0.0,0.0,0.0,13.8203,0.0,13.5421,13.5656,13.6343,13.7393,13.872,14.0507,14.2873,14.3872,14.5517,14.7761,14.7761,14.7761,14.7761,14.7761,14.7742,14.7853,14.7908,14.804,14.8244,14.8293,14.8389,14.8505,14.8412,14.8436,14.8482,14.8219,14.8118,14.8092,14.8014,14.7961,14.8357,15.0941,15.2156,15.307,15.5911,15.7183,15.7631,15.7631,15.8753,16.0398,16.2043,16.3763,16.5408,16.6979,16.7352,16.7352,16.7352,16.7352,16.7352,16.7352,16.7352,16.7352,16.7352,16.7352,16.6679,16.4511,16.3763,16.3389,16.3389,16.2866,16.2492,16.2492,16.2492,16.2492,16.2492,16.2492,16.2716,16.3389,16.3389,16.3614,16.4212,16.5322,16.5652,16.5097,16.6945,16.7646,16.7103,16.7897,16.8304,16.8356,16.8356,16.8356,12.6973,12.5552,12.4505,12.3383,12.3907,12.4131,12.1888,11.9719,11.785,11.6728,11.3032,10.9986,0.0,0.0,0.0,0.0,0.0,0.0,0.0,0.0,0.0,0.0,0.0,0.0,0.0,0.0,13.7677,13.5421,13.8429,13.9009,13.6185,13.5934,13.6545,13.8071,13.9592,14.118,14.2873,14.447,14.6041,14.7761,14.7761,14.7761,14.7761,14.7761,14.7742,14.7853,14.7908,14.8014,14.8194,14.8244,14.8293,14.8365,14.8293,14.8293,14.8341,14.8066,14.8014,14.804,14.788,14.7853,14.8275,15.0959,15.1799,15.2397,15.5762,15.6809,15.6884,15.7482,15.8379,15.9576,16.1221,16.2941,16.4436,16.5483,16.6156,16.638,16.5857,16.5707,16.5707,16.5707,16.5707,16.5707,16.5707,16.5707,16.496,16.2791,16.2043,16.1669,16.1669,16.1146,16.0847,16.0847,16.0847,16.0847,16.0847,16.0847,16.1071,16.1595,16.1669,16.1894,16.2492,16.3539,16.4169,16.4231,16.5507,16.6405,16.7178,16.7317,16.7725,16.8356,16.7702,16.7777,12.2911,12.0542,11.8074,11.7999,11.7999,11.8097,11.7947,11.5457,11.3213,11.3213,11.0701,10.8535,10.861,0.0,0.0,0.0,0.0,0.0,0.0,0.0,0.0,0.0,0.0,0.0,13.106,13.8655,14.076,13.4218,13.9858,14.1296,13.6151,13.594,13.6572,13.8022,13.9615,14.1255,14.2975,14.4545,14.6116,14.7761,14.7761,14.7761,14.7761,14.7761,14.7761,14.7789,14.7853,14.7934,14.7934,14.8066,14.8118,14.8118,14.8118,14.8092,14.8066,14.7873,14.777,14.788,14.7742,14.7761,14.7985,14.9705,15.0303,15.0901,15.4117,15.5164,15.5538,15.7183,15.7631,15.8005,15.9576,16.1221,16.2417,16.2492,16.3763,16.4511,16.2866,16.2492,16.2492,16.2492,16.2492,16.2492,16.2492,16.2417,16.2342,16.2342,16.0922,15.9875,15.9875,15.8603,15.7631,15.7631,15.7631,15.7631,15.7631,15.7631,15.8304,15.98,15.9875,16.0622,16.2268,16.2342,16.251,16.2586,16.251,16.3485,16.5514,16.5424,16.6333,16.8205,16.6421,16.6496,12.0467,11.7999,11.5756,11.346,11.47,11.5513,11.1919,11.1456,11.1422,11.0223,11.0187,0.0,0.0,0.0,0.0,0.0,0.0,11.8859,11.5049,11.9932,0.0,12.4894,12.715,12.9331,13.106,13.6549,13.8279,13.4068,13.873,14.0093,13.6076,13.6915,13.8296,13.9819,14.1336,14.2975,14.4545,14.619,14.7237,14.7761,14.7761,14.7761,14.7761,14.7761,14.7817,14.7853,14.7908,14.7961,14.8066,14.8092,14.8118,14.8092,14.8014,14.7908,14.7798,14.7714,14.7789,14.7742,14.7761,14.7761,14.7985,14.9705,15.1051,15.2322,15.4491,15.5986,15.7033,15.7482,15.7631,15.8005,15.9576,16.0323,16.0996,16.2193,16.2866,16.309,16.2567,16.2492,16.2492,16.2492,16.2492,16.2492,16.2492,16.0548,15.8977,15.8977,15.8603,15.8304,15.8304,15.793,15.7631,15.7631,15.7631,15.7631,15.7631,15.7631,15.7856,15.823,15.8304,15.8529,15.8977,16.0099,16.0653,16.0684,16.1972,16.2945,16.3623,16.3595,16.4559,16.6476,16.4796,16.4345,11.4559,11.1835,11.0136,10.8286,10.9768,11.1047,10.8125,10.9382,11.092,10.9945,0.0,0.0,0.0,0.0,0.0,0.0,11.9574,12.1491,11.8129,12.3503,12.7376,12.6473,12.8955,13.091,13.1211,13.6324,13.8257,13.4886,13.9245,14.053,13.6967,13.832,13.957,14.0416,14.2628,14.4321,14.5218,14.6863,14.7761,14.7761,14.7761,14.7761,14.7761,14.7761,14.7742,14.7826,14.7826,14.7853,14.7934,14.7934,14.7934,14.7934,14.7853,14.777,14.7761,14.7761,14.7761,14.7761,14.7761,14.7761,14.791,14.8882,15.0303,15.1873,15.3593,15.5238,15.6734,15.7482,15.7631,15.7856,15.8753,15.9501,16.0024,16.0398,16.0996,16.1221,16.0622,16.0473,16.0473,16.0473,16.0473,16.0473,16.0473,15.8903,15.7631,15.7631,15.7631,15.7631,15.7631,15.7631,15.7631,15.7631,15.7631,15.7631,15.7631,15.7631,15.7631,15.7631,15.7631,15.7631,15.7631,15.8529,15.9008,15.9068,16.0071,16.1013,16.1917,16.1917,16.2526,16.3588,16.2687,16.2664,10.7551,10.4768,10.3573,10.3592,10.4865,10.627,10.6645,0.0,11.1577,11.1727,0.0,11.4542,11.4542,0.0,0.0,11.354,11.8202,12.0984,11.7751,12.2789,12.6849,12.6849,13.091,13.3166,13.1662,13.685,13.9063,13.6076,14.0206,14.1465,13.8172,13.9445,14.0367,14.0582,14.3424,14.5143,14.5517,14.7013,14.7761,14.7761,14.7761,14.7761,14.7761,14.7761,14.7761,14.7761,14.7761,14.7761,14.7761,14.7761,14.7761,14.7761,14.7761,14.7761,14.7761,14.7761,14.7761,14.7761,14.7761,14.7761,14.7761,14.7761,14.8733,15.0228,15.1873,15.3668,15.5463,15.7183,15.7631,15.7631,15.7631,15.8678,15.9351,15.8005,15.8678,15.9351,15.793,15.7631,15.7631,15.7631,15.7631,15.7631,15.7631,15.7631,15.7631,15.7631,15.7631,15.7631,15.7631,15.7631,15.7631,15.7631,15.7631,15.7631,15.7631,15.7631,15.7631,15.7631,15.7631,15.7631,15.7631,15.7631,15.7692,15.7839,15.7692,15.8529,16.024,16.0212,16.0183,16.0052,16.0212,16.11,10.6639,10.4827,10.3592,10.3609,10.4974,10.6978,0.0,0.0,0.0,11.5141,11.779,11.9819,11.9819,12.121,12.2657,12.3315,12.5571,12.6097,12.2883,12.6925,13.0308,13.0308,13.2338,13.3617,13.3316,13.4444,13.5358,13.5851,13.8029,13.8988,13.8097,13.8322,13.9667,14.2302,14.2975,14.462,14.7237,14.7611,14.7761,14.7761,14.7761,14.7761,14.7761,14.7761,14.7761,14.7761,14.7761,14.7761,14.7761,14.7761,14.7761,14.7761,14.7761,14.7761,14.7761,14.7761,14.7761,14.7761,14.7761,14.7761,14.7761,14.7761,14.791,14.8508,15.0228,15.2771,15.5463,15.7183,15.7631,15.7631,15.7631,15.7856,15.8005,15.7706,15.7856,15.8005,15.7706,15.7631,15.7631,15.7631,15.7631,15.7631,15.7631,15.7631,15.7631,15.7631,15.7631,15.7631,15.7631,15.7631,15.7631,15.7631,15.7631,15.7631,15.7631,15.7631,15.7631,15.7631,15.7631,15.7631,15.7631,15.7631,15.7631,15.7662,15.7662,15.7871,15.8346,15.823,15.7882,15.7271,15.8109,15.8692,10.3161,10.2409,10.2463,10.2423,10.5061,0.0,0.0,11.2678,11.5646,11.73,11.9556,12.1586,12.2413,12.324,12.4387,12.6117,12.7,12.7225,12.6398,12.9105,13.091,13.0007,13.2188,13.3391,13.2564,13.3917,13.5154,13.5851,13.7314,13.8146,13.792,13.8743,14.0288,14.2825,14.3648,14.5218,14.7686,14.7761,14.7761,14.7761,14.7761,14.7312,14.6489,14.6489,14.6041,14.5293,14.5293,14.5742,14.6489,14.6489,14.6489,14.6564,14.7387,14.7761,14.7761,14.7761,14.7761,14.7761,14.7761,14.7761,14.7761,14.7761,14.7761,14.806,14.978,15.1948,15.4341,15.6958,15.7631,15.7631,15.7631,15.7631,15.7631,15.7631,15.7631,15.7631,15.7631,15.7631,15.7631,15.7631,15.7631,15.7631,15.7631,15.7631,15.7509,15.7039,15.6973,15.6764,15.6304,15.6268,15.6268,15.6268,15.6268,15.6486,15.694,15.6973,15.6973,15.6973,15.6973,15.6973,15.6973,15.6557,15.6521,15.6973,15.6973,15.7006,15.7105,15.6557,15.6122,15.5746,15.6263,15.6783,9.982,9.998,10.1381,10.1698,10.5371,0.0,11.0533,11.4217,11.7826,11.9405,12.136,12.2939,12.371,12.4387,12.5214,12.6549,12.6774,12.7225,12.8504,13.0158,13.0684,12.9331,13.2113,13.3692,13.2263,13.482,13.6507,13.6377,13.7445,13.7997,13.7815,13.9086,14.0806,14.2825,14.4097,14.5742,14.7686,14.7761,14.7536,14.7237,14.7237,14.634,14.477,14.477,14.4097,14.29,14.29,14.3573,14.477,14.5069,14.5218,14.5368,14.6714,14.7462,14.7761,14.7761,14.7761,14.7761,14.7761,14.7761,14.7761,14.7761,14.7761,14.806,14.978,15.135,15.3219,15.6285,15.7407,15.7631,15.7631,15.7631,15.7631,15.7631,15.7631,15.7631,15.7631,15.7631,15.7706,15.8005,15.808,15.8199,15.8268,15.8311,15.786,15.6678,15.6455,15.6078,15.5098,15.494,15.494,15.494,15.494,15.5231,15.5972,15.6047,15.6047,15.6047,15.6047,15.6047,15.6047,15.5312,15.5271,15.601,15.6047,15.6047,15.6047,15.5107,15.4684,15.4684,15.495,15.5256,9.9021,10.0105,10.1698,10.3282,10.6306,0.0,11.6322,11.9255,12.121,12.2883,12.5722,12.7,12.4312,12.6173,12.8203,12.8353,12.8428,12.8504,12.8654,13.0158,13.1135,13.0985,13.3842,13.5722,13.5572,13.7226,13.8236,13.8126,13.8191,13.8072,13.7842,13.7965,13.9535,14.2751,14.305,14.462,14.7686,14.7761,14.7013,14.5517,14.5517,14.4695,14.3124,14.3124,14.305,14.29,14.29,14.2975,14.3274,14.462,14.5218,14.5218,14.5443,14.6415,14.7761,14.7761,14.7761,14.7761,14.7761,14.7761,14.7761,14.7761,14.7761,14.806,14.978,15.135,15.2995,15.4865,15.651,15.7631,15.7631,15.7631,15.7631,15.7631,15.7631,15.7631,15.7631,15.7631,15.808,15.9426,15.9725,15.9911,16.0647,16.0761,15.9942,15.7551,15.7162,15.6646,15.5087,15.494,15.494,15.494,15.494,15.4982,15.5066,15.5066,15.5066,15.5066,15.5066,15.5066,15.5066,15.4982,15.4982,15.5066,15.5066,15.5066,15.5066,15.4152,15.3761,15.3761,15.4553,15.4213,10.0169,10.1613,10.3492,10.6155,0.0,0.0,11.6774,12.0157,12.2939,12.371,12.5666,12.715,12.6699,12.7752,12.8654,12.8654,12.8654,12.903,13.0007,13.1587,13.2714,13.2714,13.5572,13.7151,13.6173,13.7602,13.8515,13.8313,13.8242,13.8097,13.7842,13.7815,13.9386,14.2751,14.29,14.3947,14.6265,14.6265,14.5443,14.3872,14.3872,14.2975,14.1405,14.1405,14.0881,13.9909,13.9909,14.0507,14.1479,14.2078,14.2377,14.2526,14.447,14.5667,14.634,14.7387,14.7761,14.7761,14.7761,14.7761,14.7761,14.7761,14.7761,14.806,14.978,15.135,15.292,15.464,15.636,15.7631,15.7631,15.7631,15.7631,15.7631,15.7631,15.7631,15.7631,15.7631,15.8055,15.9462,15.9717,15.9824,16.013,16.0237,15.9354,15.6883,15.6451,15.5705,15.3596,15.3328,15.3328,15.3328,15.3328,15.3571,15.4061,15.4152,15.4152,15.4152,15.4106,15.4106,15.4106,15.3618,15.3618,15.4106,15.4152,15.4152,15.4106,15.318,15.2821,15.2821,15.3204,15.2279,10.0968,0.0,0.0,0.0,0.0,0.0,11.6999,12.0533,12.3861,12.3861,12.5515,12.7225,12.7902,12.8353,12.8804,12.9331,12.9406,12.9932,13.1662,13.3316,13.4369,13.4369,13.685,13.7903,13.6248,13.7151,13.7817,13.7543,13.7543,13.7647,13.7842,13.7815,13.9161,14.2078,14.2152,14.2975,14.4545,14.4545,14.3723,14.2152,14.2152,14.1255,13.961,13.961,13.9012,13.7815,13.7815,13.8408,13.9315,13.9556,13.9909,14.0582,14.3498,14.4844,14.5443,14.7088,14.7761,14.7761,14.7761,14.7761,14.7761,14.7761,14.7761,14.8106,14.9947,15.1531,15.2966,15.495,15.6506,15.7631,15.7631,15.7631,15.7631,15.7631,15.7403,15.7426,15.7799,15.7338,15.7339,15.869,15.8905,15.9009,15.9257,15.9285,15.845,15.5902,15.5533,15.4697,15.2481,15.2157,15.2157,15.2157,15.2157,15.2457,15.3154,15.318,15.318,15.318,15.3204,15.3204,15.3204,15.251,15.251,15.3131,15.318,15.318,15.318,15.2076,15.1507,15.1507,15.1074,14.9737,0.0,0.0,0.0,10.8427,11.2713,11.6849,11.8353,12.136,12.3861,12.3861,12.6398,12.8128,12.6699,12.7677,12.9256,13.0835,13.1135,13.1737,13.3466,13.5045,13.5948,13.5948,13.7527,13.7903,13.6248,13.6098,13.6088,13.5968,13.5968,13.6523,13.7767,13.7815,13.8638,14.0358,14.0432,14.1255,14.2975,14.2947,14.2078,14.0432,14.0432,13.9535,13.789,13.789,13.789,13.7815,13.7815,13.7411,13.6829,13.7598,13.8862,14.0507,14.2302,14.3872,14.5443,14.7088,14.7761,14.7761,14.7761,14.7761,14.7761,14.7761,14.7761,14.8169,15.0492,15.1872,15.31,15.555,15.6899,15.7631,15.7631,15.7631,15.7631,15.7631,15.6973,15.675,15.8274,15.6701,15.5424,15.7046,15.734,15.7553,15.8341,15.8487,15.7577,15.4956,15.4595,15.4017,15.2373,15.2157,15.2157,15.2157,15.2157,15.2211,15.2211,15.2211,15.2211,15.2211,15.2211,15.2211,15.2211,15.2211,15.2211,15.2211,15.2211,15.2211,15.2211,15.0694,14.9971,14.9899,14.8257,14.6648,10.4066,10.6397,10.9029,11.2939,11.5947,11.8428,12.0082,12.309,12.5515,12.5515,12.7225,12.8504,12.7977,12.9256,13.0534,13.1135,13.2188,13.3466,13.5045,13.5722,13.6023,13.6023,13.6549,13.6248,13.4669,13.4519,13.4414,13.4169,13.5219,13.5999,13.6271,13.7217,13.804,13.8638,13.9759,14.0389,14.0424,14.0424,13.9531,13.7893,13.7893,13.7904,13.7789,13.725,13.6999,13.7103,13.7579,13.7103,13.5885,13.6127,13.6632,13.7299,13.9003,14.0559,14.2189,14.3893,14.5465,14.6827,14.6827,14.7258,14.7761,14.7761,14.7761,14.8169,15.0532,15.1465,15.2243,15.4703,15.5591,15.5858,15.5858,15.5858,15.5858,15.5858,15.5591,15.55,15.6017,15.5325,15.514,15.6719,15.701,15.7074,15.7359,15.7379,15.6764,15.4811,15.454,15.3962,15.2373,15.2157,15.2157,15.2157,15.2157,15.2157,15.2157,15.2157,15.2157,15.2157,15.2157,15.2157,15.2157,15.2157,15.2157,15.2157,15.2157,15.1074,14.8979,14.8402,14.8185,14.8113,14.6524,14.6019,10.6472,10.8954,11.1585,11.5495,11.8052,11.9932,12.106,12.3917,12.6323,12.6323,12.7601,12.8654,12.8654,13.0083,13.1436,13.2038,13.3542,13.5121,13.6775,13.7,13.6775,13.6173,13.6023,13.5196,13.3015,13.2865,13.2686,13.2444,13.4019,13.51,13.5422,13.6993,13.7815,13.7815,13.8862,13.9035,13.8326,13.7992,13.7339,13.6228,13.6228,13.6532,13.6939,13.6426,13.6228,13.6261,13.6755,13.6228,13.5075,13.5378,13.549,13.5637,13.7369,13.899,14.0573,14.2233,14.4198,14.6006,14.6006,14.6322,14.6837,14.6837,14.6837,14.7301,14.9634,15.0558,15.1374,15.3728,15.4243,15.4203,15.4793,15.4498,15.4203,15.4793,15.494,15.477,15.4061,15.3854,15.3962,15.4973,15.519,15.519,15.519,15.519,15.4829,15.3818,15.3673,15.3312,15.2301,15.2157,15.2157,15.2157,15.2157,15.2157,15.2157,15.2157,15.2157,15.2157,15.2157,15.2157,15.2157,15.2157,15.194,15.1362,15.1362,14.999,14.7318,14.6741,14.6524,14.6452,14.4863,14.4719,10.7901,11.1435,11.4443,11.6172,11.8954,12.136,12.1436,12.3992,12.6323,12.6473,12.7677,12.8654,12.8654,13.0158,13.1887,13.3466,13.5121,13.6775,13.8354,13.8504,13.7827,13.6173,13.5872,13.4594,13.1361,13.106,13.0958,13.0719,13.2294,13.3826,13.5273,13.6843,13.774,13.7762,13.7762,13.7411,13.649,13.5815,13.5416,13.5416,13.5416,13.5453,13.549,13.5453,13.5416,13.5341,13.5341,13.4919,13.4301,13.5036,13.5341,13.5488,13.7183,13.8691,14.0311,14.1969,14.3589,14.5028,14.5102,14.5175,14.5215,14.5215,14.5215,14.5644,14.8005,14.9314,15.0491,15.2712,15.2861,15.2604,15.4298,15.3488,15.2678,15.4371,15.477,15.4287,15.2562,15.2157,15.2157,15.2157,15.2157,15.2157,15.2157,15.2157,15.2157,15.2157,15.2157,15.2157,15.2157,15.2157,15.2157,15.2157,15.2157,15.2157,15.2157,15.2157,15.2157,15.2157,15.2157,15.2157,15.2085,15.2085,15.1344,14.9827,14.9629,14.8763,14.7102,14.5585,14.4863,14.4863,14.3397,14.2675,10.7299,11.2262,11.6172,11.7751,11.9781,12.1661,12.2864,12.4819,12.6699,12.7827,12.8428,12.8654,12.8654,13.106,13.3241,13.3692,13.6098,13.8128,13.8504,13.7527,13.6098,13.4519,13.3241,13.1587,12.9481,12.9331,12.923,12.8919,13.0471,13.2102,13.3553,13.5198,13.6356,13.6939,13.6939,13.6295,13.4919,13.468,13.4632,13.4632,13.4632,13.488,13.5453,13.484,13.4259,13.3754,13.3754,13.3619,13.3464,13.3664,13.3754,13.3827,13.419,13.5351,13.6876,13.8474,14.0502,14.2651,14.3822,14.4614,14.5215,14.5215,14.5215,14.5644,14.8005,14.8819,14.9257,15.0477,15.0666,15.065,15.1086,15.0868,15.0941,15.2539,15.2902,15.2821,15.2318,15.2157,15.2157,15.2157,15.2157,15.2157,15.2157,15.2157,15.2157,15.2157,15.2157,15.2157,15.2157,15.2157,15.2157,15.2157,15.2157,15.2157,15.2157,15.2157,15.2157,15.2157,15.2157,15.1651,15.0549,15.0477,14.9629,14.8041,14.6813,14.5441,14.3903,14.347,14.3253,14.3253,14.2892,14.2675,10.8561,11.3616,11.7676,11.8578,12.1135,12.3541,12.3785,12.6248,12.8504,12.8654,12.8128,12.7677,12.7677,13.0985,13.3466,13.2714,13.5346,13.7226,13.6549,13.5647,13.4444,13.2865,13.1812,13.0534,12.8804,12.8614,12.8512,12.8319,12.9826,13.1357,13.288,13.4286,13.5465,13.6618,13.6295,13.5563,13.4301,13.4301,13.4162,13.3843,13.3843,13.4033,13.4427,13.3989,13.3529,13.3117,13.3117,13.3117,13.3117,13.3117,13.3117,13.3117,13.3117,13.4055,13.5644,13.7232,13.9185,14.1228,14.278,14.3663,14.4115,14.4115,14.4115,14.4464,14.646,14.7576,14.8154,14.8611,14.8763,14.8763,14.8763,14.8763,14.9124,15.0785,15.1651,15.2157,15.2157,15.2157,15.2157,15.2157,15.2157,15.2157,15.2157,15.2157,15.2157,15.2157,15.2157,15.2157,15.2157,15.2157,15.2157,15.2157,15.2157,15.2157,15.2157,15.2157,15.2157,15.2157,15.2157,15.1507,14.9971,14.9899,14.8691,14.638,14.4719,14.3542,14.2675,14.2675,14.2675,14.2675,14.2675,14.2675,11.0758,11.4894,11.8277,11.8954,12.2563,12.5666,12.4161,12.7301,13.0083,12.8353,12.715,12.6323,12.6323,13.0233,13.294,13.1436,13.3767,13.5271,13.3917,13.3542,13.2865,13.1361,13.0985,13.0308,12.8804,12.8574,12.8449,12.8319,12.9555,13.1009,13.2506,13.35,13.4698,13.6087,13.5596,13.4919,13.4132,13.4205,13.377,13.3117,13.3117,13.3117,13.3117,13.3117,13.3117,13.3117,13.3117,13.3117,13.3117,13.3117,13.3117,13.3117,13.3117,13.3983,13.5355,13.6943,13.858,14.0241,14.188,14.253,14.2675,14.2675,14.2675,14.2964,14.4502,14.5946,14.703,14.703,14.703,14.703,14.703,14.7174,14.7752,14.9413,15.1055,15.2157,15.2157,15.2157,15.2157,15.2157,15.2157,15.2157,15.2157,15.2157,15.2157,15.2157,15.2157,15.2157,15.2157,15.2157,15.2157,15.2157,15.2157,15.2157,15.2157,15.2157,15.2157,15.2157,15.2157,15.1416,14.9557,14.9485,14.8021,14.4719,14.3397,14.2675,14.2675,14.2675,14.2675,14.2675,14.2675,14.2675,11.1811,11.4067,11.5721,11.9857,12.2563,12.4161,12.3861,12.559,12.6699,12.4989,12.559,12.6323,12.6323,12.9256,13.1587,13.1286,13.2865,13.4068,13.3767,13.2564,13.1511,13.1286,12.9932,12.903,12.8729,12.8634,12.8533,12.8319,12.8499,12.9307,13.0811,13.1713,13.2663,13.3532,13.4219,13.4162,13.3326,13.3326,13.3305,13.3117,13.3117,13.3117,13.3117,13.3117,13.3117,13.3117,13.3117,13.3117,13.3117,13.3117,13.3117,13.3117,13.3117,13.3261,13.3695,13.5283,13.6871,13.8508,14.0169,14.1591,14.2675,14.2675,14.2675,14.2964,14.4502,14.5152,14.5369,14.5369,14.5369,14.5369,14.5369,14.638,14.7752,14.9413,15.1055,15.2157,15.2157,15.2157,15.2157,15.2157,15.2157,15.2157,15.2157,15.2157,15.2157,15.2157,15.2157,15.2157,15.2157,15.2157,15.2157,15.2157,15.2157,15.2157,15.2157,15.2157,15.2157,15.2157,15.2157,15.0857,14.7896,14.7752,14.6307,14.3181,14.2819,14.2675,14.2675,14.2675,14.2675,14.2675,14.2675,14.2675,11.2563,11.4518,11.5947,11.918,12.1887,12.356,12.2714,12.4518,12.5346,12.1887,12.2563,12.3992,12.4913,12.7677,12.9857,12.9857,13.1286,13.2113,13.1211,13.0383,12.9857,12.9857,12.918,12.8654,12.8654,12.8594,12.8491,12.8319,12.7943,12.834,12.9842,13.0362,13.1184,13.242,13.3245,13.3556,13.3164,13.3117,13.3117,13.3117,13.3117,13.3117,13.3117,13.3117,13.3117,13.3117,13.3117,13.3117,13.3117,13.3117,13.3117,13.3117,13.3117,13.3117,13.3381,13.485,13.6438,13.8026,13.9736,14.1375,14.2675,14.2675,14.2675,14.2819,14.3614,14.4358,14.4791,14.3997,14.4409,14.4791,14.3997,14.5513,14.7535,14.8329,15.0424,15.2157,15.2157,15.2157,15.2157,15.2157,15.2157,15.2157,15.2157,15.2157,15.2157,15.2157,15.2157,15.2157,15.2157,15.2157,15.2157,15.2157,15.2157,15.2157,15.2157,15.2157,15.2157,15.2157,15.1435,14.9846,14.7391,14.6524,14.5008,14.2747,14.2675,14.2675,14.2675,14.2675,14.2675,14.2675,14.2675,14.2675,11.343,11.5628,11.7225,11.8428,12.106,12.2939,12.1586,12.3391,12.4067,11.9631,12.0383,12.2112,12.309,12.6248,12.8579,12.8203,12.9556,13.0233,12.888,12.8654,12.8614,12.8458,12.8437,12.8395,12.831,12.831,12.8244,12.816,12.7542,12.7654,12.8892,12.8942,12.9735,13.1382,13.2224,13.2756,13.3117,13.3117,13.3117,13.3117,13.3117,13.3117,13.3117,13.3117,13.3117,13.3117,13.3117,13.3117,13.3117,13.3117,13.3117,13.3117,13.3117,13.3117,13.3261,13.4489,13.6149,13.8026,13.9303,14.1036,14.2675,14.2675,14.2675,14.2675,14.2675,14.3491,14.4213,14.3036,14.3542,14.4213,14.3036,14.4935,14.7318,14.7318,14.9846,15.2157,15.2157,15.2157,15.2157,15.2157,15.2157,15.2157,15.2157,15.2157,15.2157,15.2157,15.2157,15.2157,15.2157,15.2157,15.2157,15.2157,15.2157,15.2157,15.2157,15.1868,15.1651,15.1651,15.0207,14.8599,14.6885,14.5296,14.3975,14.2747,14.2675,14.2675,14.2675,14.2675,14.2675,14.2675,14.2675,14.2675,11.4692,11.7245,11.8578,11.8729,12.0157,12.1511,12.136,12.1511,12.121,11.918,12.136,12.3165,12.1812,12.5421,12.8203,12.6774,12.7902,12.888,12.8729,12.8654,12.8437,12.7841,12.7793,12.7596,12.7161,12.7493,12.7746,12.7564,12.7409,12.7245,12.7154,12.7288,12.8057,12.9662,13.0585,13.172,13.3117,13.3117,13.3117,13.3117,13.3117,13.3117,13.3117,13.3117,13.3117,13.3117,13.3117,13.3117,13.3117,13.3117,13.3117,13.3117,13.3117,13.3117,13.3164,13.3261,13.5211,13.7809,13.7954,14.0097,14.2675,14.2675,14.2675,14.2675,14.2675,14.2819,14.2892,14.2747,14.2819,14.2892,14.2747,14.4935,14.7318,14.7318,14.9846,15.2157,15.2157,15.2157,15.2157,15.2157,15.2157,15.2157,15.2157,15.2157,15.2157,15.2157,15.2157,15.2157,15.2157,15.2157,15.2157,15.2157,15.2157,15.2157,15.2157,15.0857,15.0116,15.0116,14.8474,14.6813,14.5296,14.3708,14.2819,14.2675,14.2675,14.2675,14.2675,14.2675,14.2675,14.2675,14.2675,14.2675,11.2102,11.441,11.5949,11.7056,11.8578,11.9781,11.9781,11.9781,11.9857,12.0232,12.0533,12.121,12.2563,12.3616,12.5045,12.7376,12.7451,12.7601,12.8579,12.8654,12.8416,12.7769,12.772,12.7493,12.6989,12.7382,12.7463,12.6901,12.6603,12.6261,12.5665,12.6113,12.6685,12.7338,12.9591,13.1142,13.1792,13.2731,13.3117,13.3117,13.3117,13.3117,13.3117,13.3117,13.3117,13.3117,13.3117,13.3117,13.3117,13.3117,13.3117,13.3117,13.3117,13.3117,13.3117,13.3117,13.4489,13.651,13.7448,13.9375,14.1447,14.2386,14.2675,14.2675,14.2675,14.2675,14.2675,14.2675,14.2675,14.2675,14.2675,14.4935,14.7318,14.7318,14.9124,15.1055,15.2012,15.2157,15.2157,15.2157,15.2157,15.2157,15.2157,15.2157,15.2157,15.2157,15.2157,15.2157,15.2157,15.2157,15.2157,15.2157,15.2157,15.1796,15.091,15.026,14.9466,14.8402,14.6813,14.5224,14.3686,14.2986,14.2675,14.2675,14.2675,14.2675,14.2675,14.2675,14.2675,14.2675,14.2675,14.2675,10.9607,11.199,11.4148,11.5968,11.6813,11.7489,11.856,11.8804,11.9405,12.1586,12.1511,12.1285,12.2187,12.2563,12.3616,12.6097,12.6398,12.6699,12.7827,12.8253,12.8147,12.7545,12.7335,12.6973,12.6409,12.6812,12.6812,12.6107,12.5799,12.5379,12.4852,12.512,12.5465,12.5898,12.8687,13.0348,13.0853,13.2323,13.3117,13.3117,13.3117,13.3117,13.3117,13.3117,13.3117,13.3117,13.3117,13.3117,13.3117,13.3117,13.3117,13.3117,13.3117,13.3117,13.3117,13.3117,13.4128,13.5716,13.7232,13.8941,14.058,14.2169,14.2675,14.2675,14.2675,14.2675,14.2675,14.2675,14.2675,14.2675,14.2675,14.4646,14.6596,14.6596,14.8257,15.0188,15.1218,15.1868,15.2157,15.2157,15.2157,15.2157,15.2157,15.2157,15.2157,15.2157,15.2157,15.2157,15.2157,15.2157,15.2012,15.1507,15.1507,15.091,14.9249,14.8743,14.7948,14.6668,14.5152,14.378,14.2747,14.2675,14.2675,14.2675,14.2675,14.2675,14.2675,14.2675,14.2675,14.2675,14.2675,14.2675,10.8011,11.0937,11.3959,11.5781,11.4993,11.4635,11.8034,11.8804,11.9706,12.3109,12.5139,12.4744,11.9706,12.2939,12.5195,12.1887,12.4142,12.6323,12.6323,12.715,12.7519,12.7018,12.6344,12.5707,12.5075,12.5381,12.5488,12.5345,12.516,12.4898,12.4813,12.4033,12.4382,12.5898,12.7604,12.9265,13.0853,13.2323,13.3117,13.3117,13.3117,13.3117,13.3117,13.3117,13.3117,13.3117,13.3117,13.3117,13.3117,13.3117,13.3117,13.3117,13.3117,13.3117,13.3117,13.3117,13.4128,13.5716,13.7232,13.8941,14.058,14.2169,14.2675,14.2675,14.2675,14.2675,14.2675,14.2675,14.2675,14.2675,14.2675,14.3852,14.5008,14.5008,14.7515,14.9899,14.9899,15.1127,15.2157,15.2157,15.2157,15.2157,15.2157,15.2157,15.2157,15.2157,15.2157,15.2157,15.2157,15.2157,15.1579,15.0116,14.9899,14.9196,14.7535,14.5946,14.5008,14.5008,14.3614,14.2747,14.2675,14.2675,14.2675,14.2675,14.2675,14.2675,14.2675,14.2675,14.2675,14.2675,14.2675,14.2675,10.7372,10.9229,11.0992,11.5064,11.5743,11.6044,11.8166,11.7809,11.7377,11.8578,12.0984,12.2413,12.0759,12.0834,12.1586,12.2789,12.3936,12.4872,12.5606,12.6844,12.7361,12.6377,12.6121,12.5635,12.4768,12.5158,12.5196,12.4487,12.4695,12.4615,12.4033,12.3763,12.3849,12.4354,12.5898,12.7604,12.9192,13.0781,13.2153,13.3117,13.3117,13.3117,13.3117,13.3117,13.3117,13.3117,13.3117,13.3117,13.3117,13.3117,13.3117,13.3117,13.3117,13.3117,13.3117,13.3117,13.3453,13.4272,13.6871,13.817,13.9086,14.1758,14.2675,14.2675,14.2675,14.2675,14.2675,14.2675,14.2675,14.2675,14.2675,14.3036,14.3686,14.4719,14.573,14.6892,14.8159,14.9594,15.0642,15.0741,15.0712,15.107,15.2049,15.0596,14.9934,15.194,15.1353,15.1127,15.2103,15.2157,15.2012,15.156,15.0549,14.8691,14.5946,14.5296,14.4502,14.3419,14.2964,14.2675,14.2675,14.2675,14.2675,14.2675,14.2675,14.2675,14.2675,14.2675,14.2675,14.2675,14.2675,14.2675,10.488,10.6975,10.9144,11.3587,11.4163,11.3947,11.5591,11.5373,11.5202,11.6293,11.7866,11.9503,12.115,12.0101,11.9664,12.1331,12.1977,12.2722,12.4206,12.5348,12.6055,12.6014,12.5635,12.5196,12.4608,12.4768,12.4648,12.402,12.42,12.4158,12.3632,12.3632,12.3632,12.3632,12.5104,12.6476,12.7532,12.977,13.1359,13.2298,13.2298,13.2587,13.3117,13.3117,13.3117,13.3117,13.3117,13.3117,13.3117,13.3117,13.3117,13.3117,13.3117,13.3117,13.3117,13.3117,13.3117,13.3525,13.6005,13.7304,13.8242,14.0891,14.2241,14.2675,14.2675,14.2675,14.2675,14.2675,14.2675,14.2574,14.2091,14.1934,14.2044,14.2546,14.3135,14.3843,14.496,14.6356,14.7418,14.758,14.754,14.7853,14.8749,14.7854,14.7717,14.9491,14.9517,14.9632,15.0479,15.107,15.1137,15.0562,14.9506,14.7377,14.3712,14.3425,14.2993,14.2006,14.1934,14.1703,14.1202,14.165,14.1703,14.1274,14.1148,14.1148,14.1148,14.1703,14.1934,14.1986,14.2472,14.2386,10.1184,10.4319,10.7942,11.1412,11.0604,10.9478,11.1206,11.2024,11.3148,11.5617,11.5476,11.6252,12.0236,11.9939,11.8849,11.7986,11.8809,12.0289,12.2442,12.3162,12.4036,12.5661,12.5155,12.4568,12.4601,12.4231,12.3978,12.3978,12.3763,12.3632,12.3632,12.3632,12.3632,12.3632,12.5032,12.5826,12.597,12.8976,13.0492,13.0492,13.0709,13.1576,13.302,13.3045,13.3117,13.3117,13.3117,13.3117,13.3117,13.3117,13.3117,13.3117,13.3117,13.3117,13.3117,13.3117,13.3117,13.3334,13.4922,13.651,13.8098,13.9808,14.1375,14.248,14.2574,14.2502,14.248,14.2574,14.2472,14.2143,14.0983,14.065,14.024,13.9067,13.988,14.0937,14.0953,14.2205,14.3324,14.3269,14.3269,14.3339,14.3465,14.4472,14.5399,14.5797,14.6865,14.7714,14.792,14.8998,14.9221,14.7736,14.7179,14.5241,14.1134,14.0665,14.0594,14.0481,14.0538,14.0011,13.8824,13.9953,14.0011,13.8824,13.8824,13.8824,13.8824,14.0011,14.0523,14.0508,14.1665,14.1411,10.0917,10.2326,10.4159,10.8721,10.9347,10.9408,11.1177,11.0756,11.0126,11.0811,11.1864,11.2882,11.38,11.4717,11.5691,11.6618,11.8362,11.9957,12.1107,12.2507,12.383,12.4821,12.4728,12.452,12.4189,12.4063,12.3892,12.3719,12.3632,12.3632,12.3632,12.3632,12.3632,12.3632,12.3993,12.4787,12.5898,12.6737,12.7053,12.7125,12.9626,13.0998,13.1431,13.2612,13.3117,13.3117,13.3117,13.3117,13.3117,13.3117,13.3117,13.3117,13.3117,13.3117,13.3117,13.3117,13.3117,13.3334,13.4922,13.651,13.8098,13.9808,14.058,14.0935,14.1131,14.1071,14.0885,14.1131,14.0481,13.9837,14.0594,13.9953,13.9187,13.8885,13.9106,13.936,13.9464,14.0602,14.1742,14.1832,14.1841,14.2174,14.3276,14.2056,14.1993,14.5263,14.5096,14.5388,14.7578,14.7251,14.6594,14.6241,14.4004,14.2153,14.1144,13.9953,13.8824,13.7763,13.8702,13.9127,13.8824,13.9067,13.9127,13.8824,13.8824,13.8824,13.8824,13.9127,13.8611,13.741,13.7832,13.7097,9.9024,10.0992,10.2932,10.5364,10.6405,10.7136,10.8145,10.7889,10.7604,10.8087,10.9178,11.0245,11.0603,11.2135,11.3595,11.4402,11.6109,11.7833,11.9283,12.0727,12.2374,12.4196,12.4324,12.4521,12.5035,12.4326,12.3763,12.3632,12.3632,12.3632,12.3632,12.3632,12.3632,12.3632,12.3632,12.4065,12.486,12.4887,12.5248,12.597,12.7748,12.9048,12.9842,13.1359,13.2034,13.2153,13.2828,13.3117,13.3117,13.3117,13.3117,13.3117,13.3117,13.3117,13.3117,13.3117,13.3117,13.3261,13.4128,13.586,13.7809,13.8075,13.9086,14.0164,13.8947,13.8982,13.9444,13.9642,13.9211,13.8824,13.8946,13.8393,13.7699,13.7121,13.699,13.7068,13.7085,13.7702,13.8248,13.8327,13.8325,13.8603,13.9354,13.8873,13.9056,14.1439,14.1714,14.2262,14.3797,14.3855,14.3417,14.2718,14.1757,14.0547,13.9284,13.838,13.7641,13.6857,13.6924,13.699,13.699,13.7641,13.7641,13.699,13.6295,13.5948,13.5948,13.5191,13.4314,13.3474,13.3376,13.2895,9.7057,10.0173,10.2906,10.2364,10.3412,10.4567,10.4567,10.5001,10.5609,10.6413,10.714,10.8035,10.9062,11.0694,11.2005,11.226,11.3602,11.5355,11.7475,11.8786,12.0611,12.3474,12.396,12.4557,12.5817,12.4514,12.3632,12.3632,12.3632,12.3632,12.3632,12.3632,12.3632,12.3632,12.3632,12.3632,12.3632,12.3632,12.4282,12.5609,12.5826,12.6737,12.8181,12.977,13.0637,13.0926,13.2226,13.2948,13.3117,13.3117,13.3117,13.3117,13.3117,13.3117,13.3117,13.3117,13.3117,13.3117,13.3117,13.4994,13.7232,13.586,13.7255,13.8902,13.6462,13.6706,13.7719,13.748,13.7693,13.7674,13.6986,13.6658,13.6256,13.5143,13.4927,13.4927,13.4927,13.4927,13.4927,13.4927,13.4927,13.4927,13.4927,13.5879,13.6766,13.7039,13.8199,13.9155,13.9359,14.0112,14.0124,13.8879,13.96,13.9161,13.673,13.6593,13.6386,13.5901,13.4741,13.4173,13.4173,13.5225,13.5224,13.3903,13.233,13.1579,13.1511,13.0055,12.9249,12.9104,12.8876,12.8633,9.7346,9.9834,10.2328,10.2292,10.3412,10.4567,10.4567,10.4641,10.4787,10.4928,10.5039,10.5619,10.706,10.876,11.0355,11.1812,11.3215,11.4806,11.6757,11.8505,12.0167,12.1816,12.3223,12.4037,12.4037,12.3776,12.3632,12.3632,12.3632,12.3632,12.3632,12.3632,12.3632,12.3632,12.3632,12.3632,12.3632,12.3632,12.3776,12.3993,12.5321,12.6042,12.6403,12.8109,12.9626,13.0853,13.107,13.1937,13.3117,13.3117,13.3117,13.3117,13.3117,13.3117,13.3117,13.3117,13.3117,13.3117,13.3117,13.4344,13.5788,13.5571,13.5175,13.4695,13.4474,13.4621,13.4527,13.357,13.3412,13.3988,13.6314,13.6051,13.5212,13.4927,13.4927,13.4927,13.4927,13.4927,13.4927,13.4927,13.4927,13.4927,13.4927,13.506,13.5606,13.6903,13.7244,13.7858,13.9223,13.8419,13.7607,13.7402,13.6452,13.5632,13.5283,13.5143,13.4049,13.1448,13.1104,13.0965,13.0965,13.1105,13.0558,12.9191,12.7621,12.6735,12.6735,12.6525,12.5769,12.4603,12.4523,12.3828,9.8501,10.1101,10.3484,10.3484,10.4062,10.4351,10.3484,10.334,10.3123,10.2256,10.204,10.2545,10.4134,10.5723,10.7638,11.0172,11.1828,11.3418,11.5088,11.7596,11.9767,12.1275,12.2866,12.4124,12.486,12.4093,12.3632,12.3632,12.3632,12.3632,12.3632,12.3632,12.3632,12.3632,12.3632,12.3632,12.3632,12.3632,12.3632,12.3632,12.4354,12.4715,12.4787,12.6376,12.7532,12.8208,12.9192,13.0492,13.1937,13.1937,13.2442,13.3117,13.3117,13.3117,13.3117,13.3117,13.3117,13.3117,13.3117,13.3622,13.4152,13.3494,13.3489,13.3321,13.1242,13.0779,13.0916,13.1161,13.1929,13.3015,13.5014,13.5214,13.4855,13.4639,13.4711,13.4927,13.4927,13.4927,13.4927,13.4927,13.4927,13.4927,13.4927,13.4927,13.506,13.5742,13.5879,13.6152,13.6834,13.6288,13.5538,13.4719,13.4036,13.3286,13.2467,13.0897,12.9327,12.7962,12.7826,12.7826,12.7826,12.7826,12.7553,12.687,12.5369,12.4618,12.4618,12.298,12.1888,12.1206,12.0319,11.9977,10.0595,0.0,10.4567,10.4567,10.4567,10.4278,0.0,10.2545,10.1895,10.074,10.0162,10.0379,10.1967,10.3556,10.565,10.89,11.0778,11.2294,11.3883,11.6266,11.8577,12.0527,12.2476,12.4137,12.5248,12.4354,12.3632,12.3632,12.3632,12.3632,12.3632,12.3632,12.3632,12.3632,12.3632,12.3632,12.3632,12.3632,12.3632,12.3632,12.3632,12.3632,12.366,12.486,12.5609,12.6042,12.7315,12.8831,13.0348,13.0709,13.1576,13.2659,13.2973,13.3117,13.3117,13.3117,13.3117,13.3117,13.3117,13.2974,13.2564,13.1689,13.1773,13.1771,12.8656,12.7583,12.7826,12.9327,13.0759,13.2186,13.3397,13.395,13.4022,13.3732,13.3605,13.3617,13.3617,13.3689,13.376,13.376,13.3692,13.3763,13.3763,13.376,13.376,13.3763,13.376,13.376,13.376,13.376,13.3212,13.2053,13.1644,13.0894,12.9873,12.6531,12.4488,12.4488,12.4555,12.4622,12.4622,12.4688,12.455,12.4209,12.3117,12.2366,12.2025,11.9704,11.8613,11.8544,11.7384,11.7452,0.0,10.4423,10.4567,10.4567,10.4567,10.4567,10.4423,10.334,0.0,10.2112,10.0956,10.0379,10.1967,10.3556,10.565,10.89,11.0778,11.2294,11.3883,11.4316,11.5616,11.8794,12.1827,12.366,12.3732,12.3704,12.3632,12.3632,12.3632,12.3632,12.3632,12.3632,12.3632,12.3632,12.3632,12.3632,12.3632,12.3632,12.3632,12.3632,12.3632,12.3632,12.3632,12.3776,12.4571,12.597,12.6042,12.7098,12.8759,13.0203,13.0926,13.1142,13.2587,13.3117,13.3117,13.3117,13.3117,13.3117,13.3117,13.2465,13.1535,13.1411,12.9894,12.8082,12.7828,12.6894,12.6256,12.7826,12.8983,13.0199,13.1762,13.1953,13.1668,13.1595,13.0652,12.9636,12.9636,12.9918,13.0202,13.0202,13.0415,13.0556,13.0556,13.0413,13.0272,13.0486,13.0345,13.0202,13.0202,13.0202,13.0202,13.0066,12.8774,12.8028,12.8235,12.3608,12.0763,12.0763,12.1029,12.1295,12.1295,12.1486,12.1001,11.9636,11.95,11.8749,11.7316,11.7111,11.6975,11.6975,11.6838,11.6906,10.4423,10.4567,10.4567,10.4567,10.4567,10.4351,10.334,10.1895,10.0523,9.944,9.879,9.8862,10.0523,10.2906,10.565,10.89,11.0778,11.2655,11.5183,11.4749,11.5327,11.8577,12.0888,12.2549,12.356,12.3632,12.3632,12.3632,12.3632,12.3632,12.3632,12.3632,12.3632,12.3632,12.3632,12.3632,12.3632,12.3632,12.3632,12.3632,12.3632,12.3632,12.3632,12.3632,12.3949,12.4454,12.4454,12.5437,0.0,12.7604,12.9048,13.0926,13.1503,13.2298,13.3117,13.3117,13.3117,13.307,13.2317,13.1792,13.1254,13.0434,12.9078,12.7766,12.7766,12.6137,12.4755,12.6256,12.6735,12.7411,12.9711,13.0178,13.0033,12.9743,12.9483,12.9293,12.9293,12.9365,12.9508,12.9508,12.9579,12.9653,12.9653,12.9579,12.9508,12.9582,12.8765,12.8423,12.9372,12.8694,12.8013,12.8081,12.6726,12.51,12.3337,11.9746,11.7585,11.7585,11.7715,11.778,11.778,11.7842,11.7763,11.7342,11.7342,11.7196,11.6838,11.6838,11.6838,11.6838,11.6838,11.6838,10.4567,10.4567,10.4567,10.4567,10.4567,10.4351,10.3267,10.1751,10.0307,9.9151,9.8573,9.8862,10.1029,10.3123,10.5795,10.955,11.1067,11.2727,11.5327,11.4822,11.5111,11.7855,11.9588,12.1177,12.2765,12.3343,12.3632,12.3632,12.3632,12.3632,12.3632,12.3632,12.3632,12.3632,12.3632,12.3632,12.3632,12.3632,12.3632,12.3632,12.3632,12.3632,12.3632,12.3632,12.3632,12.3632,12.3632,12.4282,12.5248,12.5754,12.727,12.9337,12.9915,13.0781,13.1673,13.1317,13.1389,13.1626,13.0542,13.0188,13.0103,12.9182,12.8126,12.7007,12.6524,12.5064,12.3601,12.4623,12.5238,12.5978,12.7861,12.819,12.8118,12.7828,12.7637,12.7515,12.7515,12.7587,12.7658,12.7658,12.773,12.7872,12.7872,12.773,12.773,12.7801,12.6377,12.5699,12.678,12.5969,12.5361,12.5361,12.4007,12.2319,12.0157,11.7661,11.6042,11.557,11.5567,11.57,11.57,11.5829,11.589,11.6078,11.6078,11.6205,11.6526,11.6583,11.6645,11.6645,11.6776,11.6838,10.4567,10.4567,10.4567,10.4567,10.4567,10.4567,10.4639,10.3412,10.2256,10.2256,10.1029,10.0956,10.4062,10.4639,10.6228,11.0994,11.1789,11.2366,11.3955,11.4172,11.4677,11.6225,11.7927,11.9588,12.1104,12.2693,12.3632,12.3632,12.3632,12.3632,12.3632,12.3632,12.3632,12.3632,12.3632,12.3632,12.3632,12.3632,12.3632,12.3632,12.3632,12.3632,12.3632,12.3632,12.3632,12.3632,12.3632,12.3632,12.3776,12.5248,12.5898,12.6115,12.782,12.847,12.8333,12.7168,12.7699,12.8656,12.7661,12.7455,12.7697,12.7635,12.6757,12.5505,12.4004,12.3262,12.2929,12.2929,12.4621,12.6213,12.628,12.6064,12.5773,12.5773,12.4634,12.3628,12.3628,12.3914,12.4194,12.4194,12.4545,12.4756,12.4756,12.4475,12.4267,12.4687,12.3128,12.1839,12.1839,12.1839,12.1839,12.1839,12.0627,11.9547,11.9203,11.7862,11.6387,11.4845,11.5109,11.5306,11.5306,11.5632,11.5829,11.5829,11.5829,11.5893,11.5893,11.6078,11.62,11.62,11.6645,11.6838,10.4567,10.4567,10.4567,10.4567,10.4567,10.4856,10.6011,10.5,10.4206,10.5289,10.5145,10.5145,10.6084,10.8106,11.0128,11.1572,11.2727,11.3955,11.5544,11.4822,11.4677,11.6225,11.7927,11.9155,11.9588,12.2115,12.3632,12.3632,12.3632,12.3632,12.3632,12.3632,12.3632,12.3632,12.3632,12.3632,12.3632,12.3632,12.3632,12.3632,12.3632,12.3632,12.3632,12.3632,12.3632,12.3632,12.3632,12.3632,12.366,12.4093,12.496,12.597,12.6476,12.7459,12.8425,12.8076,12.7698,12.7191,12.5911,12.5088,12.4453,12.3464,12.2959,12.2366,12.0606,11.9805,11.9273,11.8257,11.9209,12.0698,12.1504,12.2973,12.4231,12.4231,12.3963,12.3628,12.3628,12.37,12.3771,12.3771,12.3914,12.3985,12.3985,12.3914,12.3842,12.3985,12.2637,12.1962,12.3036,12.2231,12.2029,12.3036,12.1828,12.0952,12.0812,11.8466,11.6789,11.6387,11.5381,11.4844,11.4844,11.5043,11.5175,11.5437,11.5437,11.5567,11.5893,11.589,11.6082,11.62,11.6395,11.652,10.4567,10.4567,10.4567,10.4567,10.5073,10.5795,10.6734,10.6734,10.6806,10.7745,10.7961,10.7961,10.7961,11.0056,11.1789,11.1789,11.3089,11.4461,11.5358,11.4749,11.4461,11.5399,11.6988,11.8216,11.8938,12.1249,12.2982,12.3632,12.3632,12.3632,12.3632,12.3632,12.3632,12.3632,12.3632,12.3632,12.3632,12.3632,12.3632,12.3632,12.3632,12.3632,12.3632,12.3632,12.3632,12.3632,12.3632,12.3632,12.3632,12.3632,12.4166,12.5032,12.5032,12.5654,12.6431,12.557,12.5173,12.4781,12.3142,12.2521,12.2343,12.1595,12.0262,11.8915,11.7839,11.765,11.7658,11.6715,11.7391,11.8809,12.0153,12.1556,12.289,12.3494,12.3628,12.3628,12.3628,12.3628,12.3628,12.3628,12.3628,12.3628,12.3628,12.3628,12.3628,12.3628,12.2354,12.1751,12.2622,12.2019,12.1818,12.2689,12.2488,12.1818,12.0611,11.8868,11.7393,11.6186,11.5247,11.4711,11.4711,11.4711,11.4778,11.4976,11.4976,11.5175,11.5372,11.5502,11.5697,11.5887,11.6014,11.6273,10.4567,10.4567,10.4639,10.4784,10.5867,10.7023,10.7456,10.8683,10.9767,11.0056,10.9983,10.9839,10.9839,11.1067,11.2005,11.2005,11.3161,11.41,11.41,11.41,11.41,11.41,11.5431,11.7091,11.8794,12.0382,12.1971,12.356,12.3632,12.3632,12.3632,12.3632,12.3632,12.3632,12.3632,12.3632,12.3632,12.3632,12.3632,12.3632,12.3632,12.3632,12.3632,12.3632,12.3632,12.3632,12.3632,12.3632,12.3632,12.3632,12.3544,12.35,12.35,12.3411,12.3069,12.1046,12.1055,12.1813,11.9811,11.9836,12.0865,12.0865,11.8511,11.5829,11.5829,11.6514,11.7328,11.7193,11.7932,11.9069,12.0477,12.108,12.1617,12.289,12.3427,12.3628,12.3628,12.3628,12.3628,12.3628,12.3628,12.3628,12.3628,12.3628,12.3628,12.3628,12.2488,12.1617,12.1482,12.155,12.1684,12.1684,12.2823,12.2488,11.9806,11.9471,11.8197,11.5516,11.518,11.5113,11.5113,11.5113,11.5046,11.4912,11.4912,11.4845,11.4711,11.5244,11.5443,11.5508,11.5835,11.6032,10.4567,10.4567,10.4856,10.6084,10.6661,10.7851,11.1716,11.1933,11.2005,11.4461,11.3955,11.3161,11.3161,11.3377,11.3594,11.3594,11.3883,11.41,11.41,11.41,11.41,11.41,11.5431,11.7091,11.8794,12.0382,12.1971,12.356,12.3632,12.3632,12.3632,12.3632,12.3632,12.3632,12.3632,12.3632,12.3632,12.3632,12.3632,12.3632,12.3632,12.3632,12.3632,12.3632,12.3632,12.3632,12.3632,12.3632,12.3632,12.3632,12.3114,12.2276,12.2276,12.1795,12.0995,12.0528,11.9936,11.932,11.887,11.8063,11.7347,11.7347,11.6493,11.5372,11.5372,11.5377,11.5247,11.5247,11.5382,11.5784,11.6186,11.7929,11.9739,12.0075,12.1885,12.3628,12.3628,12.3628,12.3628,12.3628,12.3628,12.3628,12.3628,12.3628,12.3628,12.3628,12.336,12.2756,12.1617,12.2488,12.3159,12.3159,12.3427,12.336,12.2756,12.1617,12.0678,12.0075,11.8868,11.8197,11.8197,11.8197,11.7661,11.6521,11.6521,11.5918,11.4711,11.5985,11.6791,11.7125,11.7124,11.7189,10.4567,10.4567,10.4928,10.6517,10.7528,10.8972,11.2222,11.2944,11.3377,11.4966,11.4677,11.3883,11.3161,11.3594,11.3883,11.3161,11.3666,11.41,11.41,11.41,11.41,11.41,11.4822,11.5977,11.7638,11.8505,11.9949,12.2332,12.2549,12.2188,12.1465,12.2115,12.2838,12.3588,12.3632,12.3632,12.3632,12.3632,12.3632,12.3632,12.3632,12.3632,12.3632,12.3632,12.3632,12.3632,12.3632,12.3632,12.3632,12.3632,12.2906,12.1869,12.1869,12.1228,12.0264,11.9671,11.906,11.8501,11.7737,11.6949,11.6137,11.5887,11.5435,11.4976,11.4976,11.4844,11.4577,11.3907,11.3705,11.3705,11.3773,11.5382,11.7393,11.8801,12.0946,12.2756,12.3494,12.3628,12.3628,12.3628,12.3628,12.3628,12.3628,12.3628,12.3628,12.3628,12.3628,12.336,12.2622,12.3159,12.336,12.2622,12.3226,12.336,12.2622,12.1885,12.1147,12.041,11.9605,11.9136,11.9136,11.9136,11.8801,11.8063,11.8063,11.7661,11.6856,11.6991,11.7058,11.7328,11.6455,11.6185,10.4567,10.4567,10.5073,10.6878,10.8395,10.9983,11.215,11.3377,11.4172,11.4461,11.4316,11.3738,11.2439,11.3233,11.3811,11.2727,11.3666,11.4533,11.4533,11.4533,11.4461,11.4172,11.41,11.4749,11.6266,11.6441,11.771,12.0671,12.0599,12.0021,11.901,12.0166,12.1538,12.2765,12.3126,12.3343,12.3632,12.3632,12.3632,12.3632,12.3632,12.3632,12.3632,12.3632,12.3632,12.3632,12.3632,12.3632,12.3632,12.3588,12.286,12.1869,12.1626,12.0873,11.978,11.8605,11.8152,11.7916,11.6577,11.6142,11.6014,11.537,11.491,11.4711,11.4711,11.4711,11.4443,11.2968,11.2566,11.2432,11.1895,11.3236,11.5247,11.7527,11.9806,12.1818,12.2957,12.3427,12.3628,12.3628,12.3628,12.3628,12.3628,12.3628,12.3628,12.3628,12.3628,12.3494,12.3293,12.3494,12.3159,12.1952,12.289,12.3159,12.1952,12.1818,12.1281,12.0008,11.9672,11.9538,11.9538,11.927,11.9069,11.8801,11.8801,11.8667,11.8398,11.746,11.6991,11.6991,11.5717,11.5113,10.4567,10.4567,10.5289,10.8322,10.9261,11.0561,11.4894,11.4966,11.4533,11.5905,11.5038,11.4027,11.3811,11.3955,11.4461,11.5688,11.5977,11.608,11.608,11.608,11.5616,11.4244,11.41,11.4749,11.6266,11.6441,11.7277,11.9155,11.7927,11.7638,11.8938,11.9155,11.9371,11.9588,12.0888,12.226,12.3588,12.3632,12.3632,12.3632,12.3632,12.3632,12.3632,12.3632,12.3632,12.3632,12.3632,12.3632,12.3588,12.3411,12.2722,12.1772,12.0614,11.9381,11.813,11.6942,11.6395,11.6146,11.5954,11.5697,11.5372,11.491,11.4711,11.4711,11.4711,11.4711,11.4443,11.2968,11.2566,11.1962,10.9348,11.1694,11.451,11.3638,11.7527,12.155,12.1684,12.2756,12.3628,12.3628,12.3628,12.3628,12.3628,12.3628,12.3628,12.3628,12.3628,12.3159,12.1885,12.2823,12.3561,12.336,12.3494,12.3561,12.336,12.3293,12.3226,12.3024,12.1818,12.1147,12.1147,11.9873,11.86,11.7326,11.7326,11.6655,11.5314,11.6454,11.6991,11.6991,11.6789,11.6722,10.4567,10.4567,10.5145,10.7456,10.8034,10.9045,11.2944,11.3305,11.3233,11.4822,11.4605,11.41,11.41,11.41,11.4388,11.5038,11.5183,11.5183,11.5183,11.5183,11.4894,11.4172,11.41,11.4388,11.5038,11.5183,11.5833,11.7421,11.6049,11.5472,11.6194,11.706,11.7566,11.7566,11.9155,12.031,12.1032,12.1899,12.2765,12.3632,12.3632,12.3632,12.3632,12.3632,12.3632,12.3588,12.35,12.3411,12.3411,12.3114,12.2395,12.1399,12.0087,11.8821,11.7668,11.6457,11.5954,11.5829,11.5567,11.5306,11.491,11.4711,11.4711,11.4711,11.4711,11.4711,11.4443,11.2968,11.2566,11.2096,10.9951,11.1426,11.3571,11.3705,11.6454,11.9404,12.108,12.1952,12.2622,12.3494,12.3628,12.3628,12.3628,12.3628,12.3628,12.3628,12.3628,12.3092,12.1617,12.2019,12.1801,11.9938,12.0463,12.0589,11.9866,12.0456,12.0954,12.1077,12.0544,12.0142,12.0142,11.9538,11.8868,11.8197,11.8197,11.7862,11.7192,11.7058,11.6991,11.6991,11.6119,11.5717,10.4567,10.4567,10.4928,10.6517,10.695,10.7672,11.0561,11.1211,11.1644,11.3233,11.3522,11.3666,11.4027,11.41,11.4244,11.4677,11.4749,11.4749,11.4749,11.4749,11.4605,11.4172,11.41,11.41,11.41,11.41,11.4564,11.5678,11.4709,11.41,11.41,11.5255,11.5792,11.5792,11.7494,11.836,11.836,11.9877,12.1321,12.2476,12.275,12.2967,12.2967,12.3239,12.3411,12.3411,12.3205,12.3114,12.3069,12.2561,12.1866,12.1117,11.9436,11.8247,11.7308,11.6142,11.5632,11.5502,11.5241,11.491,11.4711,11.4711,11.4711,11.4711,11.4711,11.4711,11.4443,11.2968,11.2566,11.2231,11.0756,11.1493,11.2834,11.3907,11.565,11.7594,11.9873,12.0611,12.1348,12.2756,12.3092,12.3159,12.3561,12.3628,12.3628,12.3628,12.3628,12.2957,12.1147,12.0879,11.9847,11.7073,11.8406,11.8744,11.7,11.8406,11.9401,11.9201,11.8801,11.86,11.86,11.8264,11.7996,11.7996,11.7996,11.7996,11.7996,11.6924,11.6454,11.6387,11.5247,11.4711,10.4567,10.4567,10.4928,10.6517,10.695,10.7384,10.9189,10.955,10.9983,11.1572,11.1933,11.2366,11.3811,11.41,11.4605,11.608,11.6297,11.6297,11.6297,11.6297,11.5792,11.4316,11.41,11.41,11.41,11.41,11.3978,11.3844,11.405,11.41,11.41,11.4172,11.4244,11.4244,11.5761,11.6627,11.6627,11.8288,11.9155,11.9227,12.0455,12.1089,12.1044,12.2331,12.284,12.284,12.284,12.284,12.2748,12.142,12.0943,12.0873,11.8305,11.7247,11.6935,11.5758,11.5042,11.4711,11.4711,11.4711,11.4711,11.4711,11.4711,11.4711,11.4711,11.4711,11.4443,11.2968,11.2566,11.2231,11.0756,11.1493,11.2566,11.2633,11.4912,11.7058,11.7192,11.8331,11.9739,12.1281,12.155,12.2019,12.336,12.3628,12.3628,12.3628,12.3628,12.2555,11.9672,11.927,11.8645,11.7007,11.9556,12.0176,11.7073,11.9556,12.0742,11.927,11.7862,11.7125,11.7125,11.5717,11.4912,11.4912,11.4912,11.4912,11.4912,11.4845,11.4845,11.4845,11.4778,11.4711,10.3123,10.3845,10.4495,10.3989,10.4712,10.5867,10.7456,10.7817,10.8322,10.9911,11.0272,11.0778,11.2294,11.2583,11.3161,11.4677,11.4966,11.4966,11.4966,11.4771,11.4431,11.3968,11.3772,11.376,11.376,11.376,11.3718,11.3634,11.3718,11.376,11.376,11.376,11.373,11.3854,11.4306,11.4594,11.4647,11.6177,11.6998,11.6998,11.8422,11.9169,11.9169,11.9654,11.9825,11.9897,12.0719,12.1103,12.1035,12.0621,12.0528,12.03,11.7778,11.6819,11.6633,11.5367,11.4778,11.4443,11.2566,11.1962,11.1962,11.1962,11.1962,11.1962,11.1962,11.1962,11.1828,11.1292,11.1158,11.1024,11.0554,11.0823,11.1158,11.1158,11.27,11.4376,11.5314,11.6722,11.8197,11.9672,12.0008,12.0142,12.0678,12.0745,12.0745,12.0745,12.0745,12.0008,11.7996,11.7795,11.6777,11.424,11.6572,11.7173,11.4228,11.6638,11.7751,11.6387,11.5784,11.5516,11.5516,11.4979,11.4711,11.4711,11.3773,11.3303,11.3303,11.3303,11.3303,11.337,11.4309,11.4711,10.1281,10.2508,10.3338,10.1823,10.2617,10.4062,10.5145,10.5362,10.5939,10.8178,10.8534,10.9039,11.0666,11.0955,11.1164,11.2246,11.2823,11.3143,11.3175,11.3442,11.3647,11.3647,11.3592,11.3507,11.3507,11.3464,11.3378,11.3378,11.3464,11.3507,11.3507,11.3507,11.3592,11.3647,11.3592,11.3592,11.3647,11.4598,11.5086,11.5086,11.6092,11.6633,11.6656,11.6736,11.6759,11.683,11.775,11.8078,11.805,11.7747,11.7569,11.7402,11.5315,11.4518,11.4392,11.3563,11.3236,11.2968,11.1091,11.042,11.042,11.042,11.042,11.042,11.042,11.042,11.042,11.042,11.042,11.042,11.042,11.042,11.042,11.042,11.1493,11.2834,11.3773,11.518,11.6655,11.813,11.8466,11.86,11.9069,11.9136,11.9136,11.9136,11.9136,11.8466,11.6521,11.6253,11.5242,11.2654,11.5444,11.6115,11.2644,11.551,11.6684,11.4846,11.4711,11.4711,11.4711,11.4711,11.4711,11.4711,11.3773,11.3303,11.3303,11.3303,11.3035,11.2566,11.3504,11.3705,9.9478,10.0703,10.1676,10.0235,10.1065,10.222,10.222,10.2148,10.3014,10.619,10.6687,10.7114,10.8967,10.9177,10.8987,10.9059,11.0315,11.1242,11.1179,11.243,11.3435,11.3435,11.3507,11.3507,11.3435,11.322,11.309,11.309,11.3335,11.3464,11.3507,11.3421,11.3421,11.3464,11.3421,11.3421,11.3464,11.3464,11.3464,11.3464,11.3464,11.3495,11.3623,11.3823,11.3996,11.3996,11.3996,11.3996,11.3886,11.265,11.2189,11.201,11.0924,11.042,11.042,11.0286,11.0286,11.0286,11.0286,11.0286,11.0286,11.0286,11.0286,11.0286,11.0286,11.0286,11.0286,11.0286,11.0286,11.0286,11.0286,11.0286,11.0286,11.0286,11.1359,11.2432,11.2499,11.3638,11.5113,11.6655,11.6924,11.7393,11.8801,11.9002,11.9002,11.9002,11.9002,11.7996,11.5046,11.4711,11.4108,11.2593,11.6433,11.7241,11.2786,11.6499,11.7862,11.4846,11.4645,11.4711,11.4644,11.4644,11.4644,11.4577,11.451,11.451,11.451,11.451,11.3773,11.2432,11.2499,11.1761,9.9079,9.9691,10.0015,9.9584,10.0662,10.1813,10.1813,10.0915,10.0987,10.4152,10.3859,10.3931,10.6669,10.7133,10.7453,10.8603,10.9106,10.9425,10.9384,11.0653,11.153,11.153,11.2402,11.2485,11.1342,11.1227,11.1612,11.2754,11.2094,11.2047,11.2914,11.1434,11.0975,11.1955,11.1073,11.1024,11.2001,11.1814,11.172,11.172,11.172,11.1284,11.0647,11.0698,11.0693,11.0816,11.1927,11.2413,11.2374,11.2239,11.2189,11.201,11.0924,11.042,11.0152,10.8007,10.7202,10.7202,10.7202,10.7202,10.7202,10.7202,10.7202,10.7202,10.7202,10.7202,10.7202,10.7202,10.7202,10.7202,10.7202,10.7202,10.7202,10.7202,10.8275,10.9616,11.0756,11.2096,11.3571,11.5046,11.5314,11.5449,11.5851,11.5918,11.5918,11.5918,11.5918,11.565,11.4778,11.4711,11.4511,11.404,11.6183,11.6174,11.2654,11.5567,11.6245,11.3145,11.404,11.4242,11.3236,11.3169,11.2633,11.1627,11.0487,10.9951,10.9951,10.9951,10.975,10.9348,11.0487,11.0756,9.4864,9.5408,9.6275,9.6348,9.6994,9.8215,10.0225,9.9473,9.9257,10.2379,10.2197,10.2086,10.403,10.4278,10.4701,10.6279,10.7068,10.7457,10.7447,10.8753,10.967,10.967,11.0326,11.025,10.8923,10.8736,10.9238,11.0304,10.9795,10.9977,11.1267,11.0122,10.9812,11.0579,10.9864,10.9812,11.0579,11.0428,11.0377,11.0377,11.0377,10.9812,10.869,10.869,10.8414,10.8035,10.8925,10.9335,10.9346,10.9473,10.958,10.952,10.8789,10.8543,10.8342,10.6599,10.5928,10.5928,10.5928,10.5928,10.5928,10.5928,10.5928,10.5928,10.5928,10.5928,10.5928,10.5928,10.5928,10.5928,10.5928,10.5928,10.5928,10.5928,10.7068,10.8342,10.9281,11.1091,11.2834,11.3638,11.4309,11.4711,11.4711,11.4711,11.451,11.3907,11.3303,11.2901,11.2901,11.3437,11.384,11.384,11.4108,11.3019,10.9968,11.2275,11.2956,11.0675,11.2039,11.2566,11.1694,11.1694,11.1292,11.042,10.9549,10.9079,10.9079,10.9079,10.8744,10.8078,10.9012,10.8762,8.8592,8.9718,9.1939,9.2008,9.2186,9.3478,0.0,9.7675,9.746,10.0474,10.0895,10.0818,10.1082,10.1038,10.1495,10.3101,10.446,10.5421,10.55,10.6814,10.7742,10.7399,10.7485,10.7138,10.6213,10.6213,10.6468,10.6823,10.6755,10.7327,10.882,10.8832,10.8847,10.8954,10.9055,10.9124,10.9231,10.9231,10.9231,10.9231,10.9231,10.8635,10.7521,10.7521,10.6946,10.5928,10.5928,10.5928,10.5928,10.5928,10.5928,10.5928,10.5928,10.5928,10.5928,10.5928,10.5928,10.5928,10.5928,10.5928,10.5928,10.5928,10.5928,10.5928,10.5928,10.5928,10.5928,10.5928,10.5928,10.5928,10.5928,10.5928,10.5928,10.5928,10.6934,10.7877,10.8074,11.0353,11.2365,11.2499,11.3705,11.4711,11.4711,11.4577,11.3974,11.2566,11.1225,11.042,11.042,11.1493,11.2232,11.2036,11.0836,10.8936,10.6014,10.7771,10.86,10.7493,10.8915,10.977,10.957,10.9635,10.9633,10.9692,10.9692,10.9756,10.9884,10.9884,10.9214,10.781,10.7684,10.5989,0.0,0.0,0.0,0.0,0.0,0.0,0.0,9.4725,9.5011,9.7049,9.7368,9.7368,9.7406,9.844,9.9758,10.1329,10.1829,10.2431,10.3675,10.5244,10.5418,10.3287,10.3783,10.4107,10.3413,10.4128,10.4853,10.5344,10.4501,10.4533,10.5748,10.5236,10.5291,10.6118,10.6503,10.7055,10.7966,10.8022,10.8022,10.8022,10.8022,10.7405,10.6295,10.6295,10.6173,10.5928,10.5928,10.5928,10.5928,10.5928,10.5928,10.5928,10.5928,10.5928,10.5928,10.5928,10.5928,10.5928,10.5928,10.5928,10.5928,10.5928,10.5928,10.5928,10.5928,10.5928,10.5928,10.5928,10.5928,10.5928,10.5928,10.5928,10.5928,10.5928,10.6197,10.6733,10.7873,10.9549,11.1158,11.2298,11.3705,11.4711,11.4711,11.3773,11.2499,11.1024,11.0554,11.042,11.042,11.0689,11.0171,10.8642,10.8233,10.7136,10.5025,10.529,10.4914,10.3452,10.5235,10.5788,10.4488,10.4902,10.5067,10.5081,10.508,10.5662,10.68,10.68,10.6666,10.6336,10.5134,10.239,0.0,0.0,0.0,0.0,0.0,0.0,0.0,0.0,0.0,0.0,0.0,9.4667,9.4928,0.0,9.6634,9.8227,10.0123,10.1441,10.1483,10.3241,10.3385,10.0274,10.1063,10.1558,10.0745,10.1116,10.1638,10.2123,10.1603,10.1887,10.3175,10.2876,10.2872,10.3377,10.3612,10.4015,10.4595,10.4595,10.4595,10.4595,10.5339,10.539,10.4923,10.566,10.5928,10.5928,10.5928,10.5928,10.5928,10.5928,10.5928,10.5794,10.4319,10.3716,10.3716,10.3716,10.3716,10.3716,10.3716,10.3716,10.3716,10.3716,10.3716,10.3716,10.3716,10.3716,10.3716,10.3716,10.3716,10.3716,10.3716,10.3716,10.3716,10.3716,10.3716,10.3857,10.4594,10.6599,10.8409,10.9147,11.1024,11.2566,11.2566,11.1292,10.9957,10.8901,10.823,10.7826,10.7699,10.7587,10.7521,10.7158,10.5749,10.4437,10.3238,10.1924,10.0763,9.9911,10.1668,10.2441,10.1738,10.1951,10.1731,10.1065,10.1798,10.2256,10.2481,10.3103,10.3535,10.3656,9.9768,9.6788,0.0,0.0,0.0,0.0,0.0,0.0,0.0,0.0,0.0,0.0,0.0,0.0,0.0,0.0,0.0,9.4708,9.7923,9.9915,9.8906,10.0618,10.0869,9.8037,9.8959,9.9535,9.8542,9.8595,9.8818,9.8879,9.8956,9.9425,10.0574,10.0909,10.1043,10.1043,10.1311,10.1445,10.1445,10.1445,10.1445,10.1445,10.2777,0.0,10.3381,10.4588,10.5124,10.5124,10.5124,10.5124,10.5124,10.5124,10.5124,10.4856,10.2442,10.1445,10.1445,10.1445,10.1445,10.1445,10.1445,10.1445,10.1445,10.1445,10.1445,10.1445,10.1445,10.1445,0.0,10.1445,10.1445,10.1445,10.1445,10.1445,10.1445,10.1445,10.1445,10.1445,10.1445,10.385,10.5928,10.5928,10.8342,11.042,11.0356,10.8488,10.6834,10.6331,10.5202,10.4473,10.4488,10.415,10.417,10.4846,10.2783,10.1012,10.0306,9.858,9.7307,9.6859,9.8512,9.966,9.9733,9.9554,9.9219,9.8712,9.962,9.9646,9.8838,9.9954,10.0554,10.0272,9.4463,9.1692,0.0,0.0,0.0,0.0,0.0,0.0,0.0,0.0,0.0,0.0,0.0,0.0,0.0,0.0,0.0,0.0,9.3315,9.4844,9.6072,9.6512,9.6697,9.6583,9.7553,9.7996,9.7403,9.8182,9.8411,9.747,9.7414,9.7548,9.7682,9.8889,0.0,0.0,0.0,10.1445,10.1445,10.1445,10.1445,10.1445,10.1646,10.1713,10.1713,10.1847,10.1981,10.1981,10.1981,10.1981,10.1981,10.1981,10.1981,10.1914,10.1579,10.1445,10.1445,10.1445,10.1445,10.1445,10.1445,0.0,0.0,10.1445,10.1445,10.1445,10.1445,10.1445,10.1445,10.1445,10.1445,10.1445,10.1445,10.1445,10.1445,10.1445,10.1445,10.1445,10.1445,10.385,10.5928,10.5928,10.8342,11.0292,10.9902,10.6311,10.3289,10.2974,10.1863,10.1396,10.24,10.1546,10.0259,9.8612,9.8146,0.0,9.5461,9.616,9.622,9.486,9.6183,9.717,9.7492,9.6754,9.7499,9.9894,9.8967,9.847,9.8434,9.8554,9.8008,9.6686,9.2148,9.0083,0.0,0.0,0.0,0.0,0.0,0.0,0.0,0.0,0.0,0.0,0.0,0.0,0.0,0.0,0.0,0.0,9.0808,9.2069,9.0185,9.1614,9.2824,9.3042,9.4149,9.4859,9.4586,9.5774,9.63,9.5872,9.6676,9.7213,9.7213,9.7749,9.8084,9.8084,9.8688,9.9023,9.9023,9.9023,9.9023,9.9023,9.9827,10.023,10.0297,10.1043,10.1445,10.1445,10.1445,10.1445,10.1445,10.1445,10.1445,10.1244,0.0,0.0,0.0,0.0,9.9023,9.9023,9.9023,9.9023,9.9023,9.9023,9.9023,9.9023,9.9023,9.9023,9.9023,9.9023,9.8841,9.8667,9.8667,9.8667,9.8667,9.8667,9.8667,9.8667,9.8667,10.0154,10.1769,10.2636,10.4503,0.0,10.3306,10.1533,10.0102,9.9454,9.9129,9.931,10.0422,9.9293,9.8337,9.829,9.7477,9.6585,9.5817,9.6214,0.0,0.0,0.0,9.432,9.448,9.3396,0.0,0.0,0.0,9.2468,9.1897,9.3498,0.0,0.0,8.6609,8.4808,0.0,0.0,0.0,0.0,0.0,0.0,0.0,0.0,0.0,0.0,0.0,0.0,0.0,0.0,0.0,0.0,8.789,8.917,8.5582,8.7401,8.9294,8.9696,9.1087,9.2091,9.2559,9.3618,9.4275,9.4275,9.528,9.6006,9.6006,9.6341,9.6542,9.6542,9.6945,9.7213,9.7213,9.7213,9.7213,9.7213,9.8285,9.8755,9.8822,9.977,10.0297,10.0297,10.0297,10.0297,10.0297,10.0297,10.0297,10.0096,9.8017,9.6888,9.6497,9.6486,9.6229,9.5715,9.5715,9.5715,9.5715,9.5715,9.5983,9.6384,9.6384,9.6652,9.6919,9.6919,9.6749,9.651,9.651,9.651,9.651,9.651,9.651,9.651,9.651,9.7468,9.868,9.9683,10.0382,9.9897,9.7111,9.685,9.6898,9.6531,9.6459,9.6951,9.8399,9.7197,9.6684,9.7582,9.6706,9.6035,9.6035,9.6334,9.5855,9.406,9.3402,9.2744,9.2026,9.1068,8.9513,8.7313,8.829,8.85,0.0,0.0,0.0,0.0,0.0,0.0,0.0,0.0,0.0,0.0,0.0,0.0,0.0,0.0,0.0,0.0,0.0,0.0,0.0,0.0,0.0,0.0,0.0,0.0,8.3579,8.4592,8.5988,8.7383,8.9045,9.0673,9.2154,9.2626,9.2734,9.2734,9.2801,9.2868,9.2868,9.4141,9.4945,9.4945,9.6408,9.7213,9.7213,9.7213,9.7213,9.7213,9.7213,9.728,9.728,9.7347,9.7347,9.7347,9.7347,9.7347,9.7347,9.7347,9.7347,9.7347,9.7213,9.6106,9.4612,9.489,9.3732,9.209,9.209,9.209,9.209,9.209,9.3088,9.4161,9.4161,9.5158,9.6288,9.6288,9.6221,9.6221,9.6221,9.6221,9.6221,9.6221,9.6221,9.6221,9.6221,9.7351,9.8414,9.8414,9.6831,9.4976,9.3512,9.3308,9.3567,9.4567,9.3667,0.0,9.6382,9.5398,9.4619,9.4619,9.4539,9.4539,9.4539,9.5795,9.5436,9.2744,9.3761,9.3282,9.0709,9.059,8.9931,8.8555,8.8777,8.8845,8.8754,0.0,0.0,0.0,0.0,0.0,0.0,0.0,0.0,0.0,0.0,0.0,0.0,0.0,0.0,0.0,0.0,0.0,0.0,0.0,0.0,0.0,0.0,0.0,0.0,8.3046,8.519,8.4725,8.5973,8.6757,8.6291,8.8059,8.9245,8.9245,9.1045,9.2178,9.2178,9.2644,9.2911,9.2911,9.35,9.3766,9.3766,9.4644,9.5177,9.5177,9.611,9.6577,9.6577,9.6749,9.6749,9.6577,9.6976,9.7033,9.6863,9.71,9.5782,9.3766,9.3766,9.3377,9.2933,9.3988,9.3932,9.3497,9.4427,9.4759,9.4759,9.4759,9.5158,9.5499,9.5499,9.5889,9.6221,9.6221,9.5988,9.5812,9.5812,9.5812,9.5812,9.5812,9.5812,9.5812,9.5812,9.6091,9.6265,9.6255,9.35,9.1233,9.1479,9.0834,9.071,9.1766,9.0813,9.0963,9.3601,9.3462,9.3522,9.4419,9.4479,9.412,9.3282,9.3641,9.3163,9.1368,8.9991,8.8914,8.8017,8.7193,8.6102,8.4786,8.5722,8.5737,8.4819,0.0,0.0,0.0,0.0,0.0,0.0,0.0,0.0,0.0,0.0,0.0,0.0,0.0,0.0,0.0,0.0,0.0,0.0,0.0,0.0,0.0,0.0,0.0,0.0,0.0,0.0,8.3703,8.4535,0.0,8.4638,8.5419,8.6187,8.6719,8.7981,8.9044,8.951,9.0041,9.0573,9.1038,9.1691,9.1957,9.1957,9.2832,9.3297,9.3297,9.4228,9.4693,9.4693,9.4864,9.4864,9.4693,9.5157,9.5146,9.4977,9.5269,9.3633,9.1104,9.1104,9.044,8.9601,9.1182,9.1271,9.0839,9.2408,9.2939,9.2825,9.2825,9.287,9.2917,9.2917,9.2917,9.2982,9.3508,9.3428,9.334,9.3867,9.3581,9.3284,9.3284,9.3284,9.3165,9.2678,9.2864,9.2759,9.183,8.9389,8.7753,8.8362,8.771,8.7713,8.9376,8.9001,8.924,9.1547,9.1846,9.2145,9.2983,9.3103,9.2744,9.1906,9.1846,9.1068,8.9273,8.7673,8.6535,8.6056,8.4798,8.3338,8.1883,8.286,8.2382,0.0,0.0,0.0,0.0,0.0,0.0,0.0,0.0,0.0,0.0,0.0,0.0,0.0,0.0,0.0,0.0,0.0,0.0,0.0,0.0,0.0,0.0,0.0,0.0,0.0,0.0,0.0,8.3921,8.4369,0.0,0.0,0.0,0.0,8.5072,8.401,8.3811,8.5139,8.6467,8.7862,8.9323,9.0839,9.157,9.157,9.1636,9.1636,9.157,9.1636,9.1702,9.1702,9.1702,9.1702,9.1702,9.1824,9.1824,9.1769,9.1581,9.0717,8.9456,8.9335,8.7516,8.512,8.6774,8.6058,8.4536,8.6426,8.6953,8.6746,8.6812,8.6881,8.6995,8.7,8.7,0.0,0.0,8.879,8.8999,9.0378,8.9825,8.8863,8.8927,8.8927,8.8623,8.7316,8.8005,8.8066,8.5245,8.4712,8.4591,8.433,0.0,8.4977,8.7532,8.7948,8.8517,9.0154,9.041,9.053,9.059,9.059,9.0453,9.0393,9.0333,8.9197,8.67,8.6521,8.5863,8.4546,8.335,8.1883,8.0233,8.0441,0.0,0.0,0.0,0.0,0.0,0.0,0.0,0.0,0.0,0.0,0.0,0.0,0.0,0.0,0.0,0.0,0.0,0.0,0.0,0.0,0.0,0.0,0.0,0.0,0.0,0.0,7.5565,7.7989,7.7989,7.9075,7.9915,0.0,0.0,0.0,0.0,0.0,0.0,8.3115,8.3379,8.4184,8.5635,8.6096,8.6294,8.6294,8.7469,8.7469,8.6294,8.7469,8.7997,8.7997,8.8215,8.8215,8.8117,8.9613,9.0132,8.9658,8.637,8.5968,8.7283,8.5214,8.451,8.4722,8.5224,8.447,8.3589,8.6179,8.7043,8.7122,8.8102,8.8448,8.8484,8.8519,0.0,0.0,0.0,0.0,8.6404,8.7747,8.7116,8.636,8.7314,8.7568,8.7442,8.7126,8.7316,8.6365,8.2268,8.1463,8.2273,8.474,8.4355,0.0,8.5968,8.6431,8.6775,8.7208,8.8041,8.9053,9.0005,8.989,8.9378,8.8371,8.7422,8.6178,8.4518,8.3729,8.2815,8.1504,8.1146,8.0243,7.8865,0.0,0.0,0.0,0.0,0.0,0.0,0.0,0.0,0.0,0.0,0.0,0.0,0.0,0.0,0.0,0.0,0.0,0.0,0.0,0.0,0.0,0.0,0.0,0.0,0.0,0.0,0.0,7.1976,7.4218,7.4218,7.4798,7.5456,0.0,0.0,0.0,0.0,0.0,0.0,0.0,0.0,0.0,8.2572,8.2637,8.2905,8.3447,8.4894,8.5223,8.4381,8.5946,8.6724,8.6724,8.6821,8.6887,8.6724,8.7842,8.7108,8.5028,8.2591,8.2163,8.2802,0.0,0.0,0.0,0.0,8.1153,8.0366,8.2004,8.2163,8.1964,8.3258,0.0,0.0,0.0,0.0,0.0,0.0,0.0,8.2522,8.3909,8.379,8.3414,8.41,8.4287,8.4095,8.3515,8.1898,8.0024,7.8584,7.8295,7.9292,8.2232,8.1528,0.0,0.0,0.0,8.3081,8.4089,8.5289,8.6415,8.7126,8.6956,8.6508,8.5876,8.4561,8.3263,8.1964,8.1412,8.0206,7.8288,7.823,7.7002,0.0,0.0,0.0,0.0,0.0,0.0,0.0,0.0,0.0,0.0,0.0,0.0,0.0,0.0,0.0,0.0,0.0,0.0,0.0,0.0,0.0,0.0,0.0,0.0,0.0,0.0,0.0,0.0,0.0,7.0649,7.0943,0.0,0.0,0.0,0.0,0.0,0.0,0.0,0.0,0.0,0.0,0.0,0.0,0.0,8.0129,8.1349,8.259,8.319,8.319,8.4354,8.4932,8.4932,8.4932,8.5172,8.5532,8.5565,0.0,7.9785,7.9191,0.0,0.0,0.0,0.0,0.0,0.0,0.0,0.0,0.0,0.0,0.0,0.0,0.0,0.0,0.0,0.0,0.0,0.0,0.0,0.0,0.0,0.0,7.9722,7.9355,7.9538,7.9396,7.7631,7.4496,7.2459,7.4367,7.4845,7.5532,0.0,0.0,0.0,0.0,0.0,0.0,8.0738,8.235,8.3115,8.2968,8.3042,8.2968,8.2597,8.1573,8.0413,7.9298,7.9097,7.7898,7.5412,7.5456,0.0,0.0,0.0,0.0,0.0,0.0,0.0,0.0,0.0,0.0,0.0,0.0,0.0,0.0,0.0,0.0,0.0,0.0,0.0,0.0,0.0,0.0,0.0,0.0,0.0,0.0,0.0,0.0,0.0,0.0,0.0,0.0,0.0,0.0,0.0,0.0,0.0,0.0,0.0,0.0,0.0,0.0,0.0,0.0,0.0,0.0,0.0,0.0,0.0,0.0,7.612,7.5799,7.5799,7.5799,7.7153,7.9461,7.9375,7.8994,7.8119,7.365,0.0,0.0,0.0,0.0,0.0,0.0,0.0,0.0,0.0,0.0,0.0,0.0,0.0,0.0,0.0,0.0,0.0,0.0,0.0,0.0,0.0,0.0,7.4909,7.2448,7.3706,7.4442,7.0571,0.0,0.0,0.0,0.0,0.0,0.0,0.0,0.0,0.0,0.0,0.0,7.7707,7.9921,8.0972,7.9594,8.0381,7.9934,7.7225,7.6948,7.6904,7.666,7.5728,7.4641,0.0,0.0,0.0,0.0,0.0,0.0,0.0,0.0,0.0,0.0,0.0,0.0,0.0,0.0,0.0,0.0,0.0,0.0,0.0,0.0,0.0,0.0,0.0,0.0,0.0,0.0,0.0,0.0,0.0,0.0,0.0,0.0,0.0,0.0,0.0,0.0,0.0,0.0,0.0,0.0,0.0,0.0,0.0,0.0,0.0,0.0,0.0,0.0,0.0,0.0,0.0,0.0,0.0,0.0,0.0,0.0,0.0,0.0,7.4493,7.2617,0.0,0.0,0.0,0.0,0.0,0.0,0.0,0.0,0.0,0.0,0.0,0.0,0.0,0.0,0.0,0.0,0.0,0.0,0.0,0.0,0.0,0.0,0.0,0.0,0.0,0.0,0.0,0.0,0.0,0.0,0.0,0.0,0.0,0.0,0.0,0.0,0.0,0.0,0.0,0.0,7.3266,7.5577,7.6911,7.6095,7.6608,7.6304,7.4761,7.4068,7.3728,7.3502,7.2443,0.0,0.0,0.0,0.0,0.0,0.0,0.0,0.0,0.0,0.0,0.0,0.0,0.0,0.0,0.0,0.0,0.0,0.0,0.0,0.0,0.0,0.0,0.0,0.0,0.0,0.0,0.0,0.0,0.0,0.0,0.0,0.0,0.0,0.0,0.0,0.0,0.0,0.0,0.0,0.0,0.0,0.0,0.0,0.0,0.0,0.0,0.0,0.0,0.0,0.0,0.0,0.0,0.0,0.0,0.0,0.0,0.0,0.0,0.0,6.9397,6.6143,0.0,0.0,0.0,0.0,0.0,0.0,0.0,0.0,0.0,0.0,0.0,0.0,0.0,0.0,0.0,0.0,0.0,0.0,0.0,0.0,0.0,0.0,0.0,0.0,0.0,0.0,0.0,0.0,0.0,0.0,0.0,0.0,0.0,0.0,0.0,0.0,0.0,0.0,0.0,0.0,6.9051,7.1565,7.3114,7.2805,7.3037,7.2882,7.226,7.1497,7.0795,7.035,6.9186,0.0,0.0,0.0,0.0,0.0,0.0,0.0,0.0,0.0,0.0,0.0,0.0,0.0,0.0,0.0,0.0,0.0,0.0,0.0,0.0,0.0,0.0,0.0,0.0,0.0,0.0,0.0,0.0,0.0,0.0,0.0,0.0,0.0,0.0,0.0,0.0,0.0,0.0,0.0,0.0,0.0,0.0,0.0,0.0,0.0,0.0,0.0,0.0,0.0,0.0,0.0,0.0,0.0,0.0,0.0,0.0,0.0,0.0,0.0,0.0,0.0,0.0,0.0,0.0,0.0,0.0,0.0,0.0,0.0,0.0,0.0,0.0,0.0,0.0,0.0,0.0,0.0,0.0,0.0,0.0,0.0,0.0,0.0,0.0,0.0,0.0,0.0,0.0,0.0,0.0,0.0,0.0,0.0,0.0,0.0,0.0,0.0,0.0,0.0,0.0,0.0,6.6047,6.9434,7.1348,6.9936,7.0735,7.0349,6.7692,6.8336,6.847,6.7496,0.0,0.0,0.0,0.0,0.0,0.0,0.0,0.0,0.0,0.0,0.0,0.0,0.0,0.0,0.0,0.0,0.0,0.0,0.0,0.0,0.0,0.0,0.0,0.0,0.0,0.0,0.0,0.0,0.0,0.0,0.0,0.0,0.0,0.0,0.0,0.0,0.0,0.0,0.0,0.0,0.0,0.0,0.0,0.0,0.0,0.0,0.0,0.0,0.0,0.0,0.0,0.0,0.0,0.0,0.0,0.0,0.0,0.0,0.0,0.0,0.0,0.0,0.0,0.0,0.0,0.0,0.0,0.0,0.0,0.0,0.0,0.0,0.0,0.0,0.0,0.0,0.0,0.0,0.0,0.0,0.0,0.0,0.0,0.0,0.0,0.0,0.0,0.0,0.0,0.0,0.0,0.0,0.0,0.0,0.0,0.0,0.0,0.0,0.0,0.0,0.0,0.0,6.2696,6.6,6.8125,6.7216,6.7486,6.7326,6.6131,6.6488,6.5771,6.3462,0.0,0.0,0.0,0.0,0.0,0.0,0.0,0.0,0.0,0.0,0.0,0.0,0.0,0.0,0.0,0.0,0.0,0.0,0.0,0.0,0.0,0.0,0.0,0.0,0.0,0.0,0.0,0.0,0.0,0.0,0.0,0.0,0.0,0.0,0.0,0.0,0.0,0.0,0.0,0.0,0.0,0.0,0.0,0.0,0.0,0.0,0.0,0.0,0.0,0.0,0.0,0.0,0.0,0.0,0.0,0.0,0.0,0.0,0.0,0.0,0.0,0.0,0.0,0.0,0.0,0.0,0.0,0.0,0.0,0.0,0.0,0.0,0.0,0.0,0.0,0.0,0.0,0.0,0.0,0.0,0.0,0.0,0.0,0.0,0.0,0.0,0.0,0.0,0.0,0.0,0.0,0.0,0.0,0.0,0.0,0.0,0.0,0.0,0.0,0.0,0.0,0.0,6.0076,6.3553,6.5885,6.5557,6.5392,6.5243,6.5109,6.4977,6.3338,5.9728,0.0,0.0,0.0,0.0,0.0,0.0,0.0,0.0,0.0,0.0,0.0,0.0,0.0,0.0,0.0,0.0,0.0,0.0,0.0,0.0,0.0,0.0,0.0,0.0,0.0,0.0,0.0,0.0,0.0,0.0,0.0,0.0,0.0,0.0,0.0,0.0,0.0,0.0,0.0,0.0,0.0,0.0,0.0,0.0,0.0,0.0,0.0,0.0,0.0,0.0,0.0,0.0,0.0,0.0,0.0,0.0,0.0,0.0,0.0,0.0,0.0,0.0,0.0,0.0,0.0,0.0,0.0,0.0,0.0,0.0,0.0,0.0,0.0,0.0,0.0,0.0,0.0,0.0,0.0,0.0,0.0,0.0,0.0,0.0,0.0,0.0,0.0,0.0,0.0,0.0,0.0,0.0,0.0,0.0,0.0,0.0,0.0,0.0,0.0,0.0,0.0,0.0,5.8708,6.263,6.5557,6.5557,6.5145,6.4617,6.4013,6.3641,6.1333,0.0,0.0,0.0,0.0,0.0,0.0,0.0,0.0,0.0,0.0,0.0,0.0,0.0,0.0,0.0,0.0,0.0,0.0,0.0,0.0,0.0,0.0,0.0,0.0,0.0,0.0,0.0,0.0,0.0,0.0,0.0,0.0,0.0,0.0,0.0,0.0,0.0,0.0,0.0,0.0,0.0,0.0,0.0,0.0,0.0,0.0,0.0,0.0,0.0,0.0,0.0,0.0,0.0,0.0,0.0,0.0,0.0,0.0,0.0,0.0,0.0,0.0,0.0,0.0,0.0,0.0,0.0,0.0,0.0,0.0,0.0,0.0,0.0,0.0,0.0,0.0,0.0,0.0,0.0,0.0,0.0,0.0,0.0,0.0,0.0,0.0,0.0,0.0,0.0,0.0,0.0,0.0,0.0,0.0,0.0,0.0,0.0,0.0,0.0,0.0,0.0,0.0,0.0,5.6282,5.8155,6.0752,6.4334,6.2718,6.1892,6.2994,6.1209,5.8028,5.3422,0.0,0.0,0.0,0.0,0.0,0.0,0.0,0.0,0.0,0.0,0.0,0.0,0.0,0.0,0.0,0.0,0.0,0.0,0.0,0.0,0.0,0.0,0.0,0.0,0.0,0.0,0.0,0.0,0.0,0.0,0.0,0.0,0.0,0.0,0.0,0.0,0.0,0.0,0.0,0.0,0.0,0.0,0.0,0.0,0.0,0.0,0.0,0.0,0.0,0.0,0.0,0.0,0.0,0.0,0.0,0.0,0.0,0.0,0.0,0.0,0.0,0.0,0.0,0.0,0.0,0.0,0.0,0.0,0.0,0.0,0.0,0.0,0.0,0.0,0.0,0.0,0.0,0.0,0.0,0.0,0.0,0.0,0.0,0.0,0.0,0.0,0.0,0.0,0.0,0.0,0.0,0.0,0.0,0.0,0.0,0.0,0.0,0.0,0.0,0.0,0.0,0.0,0.0,5.6878,5.9219,6.1878,6.0492,5.9348,5.9464,5.7911,5.4779,4.9782,0.0,0.0,0.0,0.0,0.0,0.0,0.0,0.0,0.0,0.0,0.0,0.0,0.0,0.0,0.0,0.0,0.0,0.0,0.0,0.0,0.0,0.0,0.0,0.0,0.0,0.0,0.0,0.0,0.0,0.0,0.0,0.0,0.0,0.0,0.0,0.0,0.0,0.0,0.0,0.0,0.0,0.0,0.0,0.0,0.0,0.0,0.0,0.0,0.0,0.0,0.0,0.0,0.0,0.0,0.0,0.0,0.0,0.0,0.0,0.0,0.0,0.0,0.0,0.0,0.0,0.0,0.0,0.0,0.0,0.0,0.0,0.0,0.0,0.0,0.0,0.0,0.0,0.0,0.0,0.0,0.0,0.0,0.0,0.0,0.0,0.0,0.0,0.0,0.0,0.0,0.0,0.0,0.0,0.0,0.0,0.0,0.0,0.0,0.0,0.0,0.0,0.0,0.0,5.7599,5.962,5.847,5.8132,5.7062,5.4605,5.4227,5.1695,4.593,4.6336,0.0,0.0,0.0,0.0,0.0,0.0,0.0,0.0,0.0,0.0,0.0,0.0,0.0,0.0,0.0,0.0,0.0,0.0,0.0,0.0,0.0,0.0,0.0,0.0,0.0,0.0,0.0,0.0,0.0,0.0,0.0,0.0,0.0,0.0,0.0,0.0,0.0,0.0,0.0,0.0,0.0,0.0,0.0,0.0,0.0,0.0,0.0,0.0,0.0,0.0,0.0,0.0,0.0,0.0,0.0,0.0,0.0,0.0,0.0,0.0,0.0,0.0,0.0,0.0,0.0,0.0,0.0,0.0,0.0,0.0,0.0,0.0,0.0,0.0,0.0,0.0,0.0,0.0,0.0,0.0,0.0,0.0,0.0,0.0,0.0,0.0,0.0,0.0,0.0,0.0,0.0,0.0,0.0,0.0,0.0,0.0,0.0,0.0,0.0,0.0,0.0,0.0,5.1864,5.2248,5.6186,5.4533,5.3508,5.4316,5.2426,4.9309,4.4958,4.4288,0.0,0.0,0.0,0.0,0.0,0.0,0.0,0.0,0.0,0.0,0.0,0.0,0.0,0.0,0.0,0.0,0.0,0.0,0.0,0.0,0.0,0.0,0.0,0.0,0.0,0.0,0.0,0.0,0.0,0.0,0.0,0.0,0.0,0.0,0.0,0.0,0.0,0.0,0.0,0.0,0.0,0.0,0.0,0.0,0.0,0.0,0.0,0.0,0.0,0.0,0.0,0.0,0.0,0.0,0.0,0.0,0.0,0.0,0.0,0.0,0.0,0.0,0.0,0.0,0.0,0.0,0.0,0.0,0.0,0.0,0.0,0.0,0.0,0.0,0.0,0.0,0.0,0.0,0.0,0.0,0.0,0.0,0.0,0.0,0.0,0.0,0.0,0.0,0.0,0.0,0.0,0.0,0.0,0.0,0.0,0.0,0.0,0.0,0.0,0.0,0.0,0.0,4.8798,4.9115,5.2911,5.1746,5.083,5.1285,4.9749,4.7074,4.3271,4.1722,0.0,0.0,0.0,0.0,0.0,0.0,0.0,0.0,0.0,0.0,0.0,0.0,0.0,0.0,0.0,0.0,0.0,0.0,0.0,0.0,0.0,0.0,0.0,0.0,0.0,0.0,0.0,0.0,0.0,0.0,0.0,0.0,0.0,0.0,0.0,0.0,0.0,0.0,0.0,0.0,0.0,0.0,0.0,0.0,0.0,0.0,0.0,0.0,0.0,0.0,0.0,0.0,0.0,0.0,0.0,0.0,0.0,0.0,0.0,0.0,0.0,0.0,0.0,0.0,0.0,0.0,0.0,0.0,0.0,0.0,0.0,0.0,0.0,0.0,0.0,0.0,0.0,0.0,0.0,0.0,0.0,0.0,0.0,0.0,0.0,0.0,0.0,0.0,0.0,0.0,0.0,0.0,0.0,0.0,0.0,0.0,0.0,0.0,0.0,0.0,0.0,0.0,0.0,4.8157,4.9364,4.9332,4.8676,4.7515,4.7137,4.5302,4.1565,0.0,0.0,0.0,0.0,0.0,0.0,0.0,0.0,0.0,0.0,0.0,0.0,0.0,0.0,0.0,0.0,0.0,0.0,0.0,0.0,0.0,0.0,0.0,0.0,0.0,0.0,0.0,0.0,0.0,0.0,0.0,0.0,0.0,0.0,0.0,0.0,0.0,0.0,0.0,0.0,0.0,0.0,0.0,0.0,0.0,0.0,0.0,0.0,0.0,0.0,0.0,0.0,0.0,0.0,0.0,0.0,0.0,0.0,0.0,0.0,0.0,0.0,0.0,0.0,0.0,0.0,0.0,0.0,0.0,0.0,0.0,0.0,0.0,0.0,0.0,0.0,0.0,0.0,0.0,0.0,0.0,0.0,0.0,0.0,0.0,0.0,0.0,0.0,0.0,0.0,0.0,0.0,0.0,0.0,0.0,0.0,0.0,0.0,0.0,0.0,0.0,0.0,0.0,0.0,4.7794,4.6514,4.6991,4.7181,4.6511,4.6426,4.4775,4.1,0.0,0.0,0.0,0.0,0.0,0.0,0.0,0.0,0.0,0.0,0.0,0.0,0.0,0.0]}]]]